GFSSGP_925_temp_003.txt.gz
Temp
21 21 21 21 25 24 25 26 26 24 23 23 23 23 22 21 21 22 18 19 20 18 18 19 19 20 19 19 19 19 19 19 19 19 19 19 19 19 19 19 18 17 17 17 18 18 18 18 18
22 21 21 21 25 25 25 25 25 24 23 22 23 23 22 20 20 19 19 18 19 18 18 18 19 19 19 19 19 19 19 19 19 19 19 19 19 19 19 18 18 19 19 19 19 19 19 19 18
21 21 23 23 22 25 26 25 25 24 23 23 20 21 22 20 19 19 19 18 19 18 19 19 19 19 19 19 19 19 19 19 19 19 19 19 19 18 19 19 19 19 19 18 18 18 18 18 18
21 22 22 24 24 24 26 25 25 25 24 25 23 22 21 22 21 20 18 18 20 19 19 19 19 18 18 18 18 19 19 18 19 19 19 18 18 18 18 19 19 18 18 18 18 18 18 18 18
20 21 23 23 24 25 25 26 25 24 23 25 25 22 21 18 19 19 18 18 19 19 18 18 18 18 18 18 18 18 18 18 18 18 18 18 18 18 18 18 18 18 18 17 17 17 17 17 17
22 21 23 24 24 25 25 26 25 25 25 24 23 22 20 18 18 18 18 19 19 18 17 18 18 18 18 18 18 18 18 18 19 18 18 18 18 18 18 18 18 18 17 17 17 17 17 18 18
22 23 24 24 25 25 25 25 24 25 25 23 23 20 19 18 18 18 20 19 18 17 17 17 17 18 18 17 18 17 18 18 18 18 18 18 18 18 18 17 17 17 17 18 18 18 18 18 18
21 23 23 24 25 25 26 26 24 22 23 23 23 21 19 18 18 19 18 18 18 18 17 17 17 18 17 17 17 17 17 18 18 18 18 18 18 18 18 18 18 18 18 18 18 18 18 18 18
19 23 24 25 26 25 26 25 24 23 24 23 22 22 21 18 18 18 18 17 17 18 18 17 17 17 17 17 17 17 17 18 18 18 18 18 18 18 18 17 17 18 18 18 18 18 17 17 17
23 23 24 24 26 26 28 27 24 24 24 22 20 19 19 18 18 18 17 17 17 17 17 17 17 17 17 16 16 17 17 17 18 18 18 18 18 18 17 17 17 17 18 18 18 18 18 17 17
21 24 23 25 25 25 25 24 23 24 24 23 22 18 18 18 18 18 18 18 18 17 16 16 17 16 16 16 16 17 17 17 17 18 18 18 17 17 18 18 18 18 17 17 17 18 17 17 16
24 23 23 25 23 24 26 24 23 25 25 24 21 19 18 18 18 18 18 17 16 16 16 16 16 17 17 17 17 17 17 17 17 17 17 17 17 17 18 18 18 17 17 17 17 17 17 17 16
23 24 22 21 23 23 23 24 24 24 22 22 21 20 20 18 18 17 17 17 16 16 17 17 16 17 17 17 17 17 16 16 16 16 16 17 17 17 17 17 17 17 17 17 17 17 16 16 16
23 23 22 22 22 23 24 23 25 22 21 21 20 21 20 20 19 18 18 17 17 17 16 16 16 16 17 17 18 18 18 16 16 18 17 16 16 16 17 17 17 17 17 16 16 16 15 15 15
22 24 23 22 23 23 23 24 20 18 20 21 21 20 20 20 20 20 19 18 17 16 16 16 16 17 18 18 19 19 18 17 15 15 15 16 15 16 17 17 17 17 16 15 15 15 14 14 13
23 22 24 24 23 22 24 24 20 18 21 20 20 20 20 18 17 17 19 19 18 17 16 16 17 18 18 17 17 19 18 17 15 15 15 15 16 17 17 17 16 15 15 14 14 13 12 12 12
21 23 23 24 20 23 23 21 19 18 20 19 18 19 18 17 16 14 16 17 18 17 15 15 17 18 18 18 16 15 16 16 16 15 15 16 16 16 15 15 14 13 13 13 12 11 10 10 10
23 23 23 24 21 20 20 18 17 17 19 18 17 17 17 16 15 13 13 14 14 15 15 16 17 18 17 15 15 16 17 16 15 15 15 15 15 14 14 13 12 12 12 11 10 10 9 9 8
22 23 23 21 20 19 17 18 17 17 17 17 17 17 16 15 13 13 12 13 14 15 16 17 17 17 16 16 16 17 16 15 15 15 15 14 13 13 12 12 11 11 11 11 11 10 9 9 7
21 21 20 20 19 20 19 18 18 17 16 16 17 17 16 15 15 13 13 14 15 15 17 17 17 16 16 16 16 16 16 15 14 14 13 12 12 11 11 11 11 10 10 9 9 9 9 8 6
21 21 19 21 20 20 21 20 18 17 17 16 16 16 16 16 15 15 14 14 14 15 17 16 16 16 16 16 16 16 15 14 13 12 11 11 11 11 11 11 10 10 10 9 8 7 7 8 6
22 20 20 20 21 22 19 22 19 18 17 17 16 16 16 16 16 15 14 14 14 16 16 16 15 15 15 15 15 14 13 12 11 11 11 11 11 11 11 10 10 9 8 7 6 6 5 6 6
21 19 20 20 20 21 20 22 19 18 18 18 17 16 16 16 17 16 15 15 14 15 15 15 15 14 13 13 13 13 12 12 12 11 11 10 10 10 10 10 9 8 7 6 5 5 5 4 5
19 20 19 19 20 21 20 21 20 18 19 18 17 16 16 16 16 16 15 14 13 14 14 14 14 12 12 12 11 11 10 9 9 9 9 9 10 10 10 9 8 7 6 5 5 5 4 4 3
20 21 20 20 20 20 18 19 22 20 19 19 18 17 16 16 15 15 15 15 12 12 12 11 11 10 10 10 10 10 10 9 9 9 8 8 8 8 8 8 7 5 5 5 4 4 4 3 3
20 21 20 19 19 20 18 20 22 18 19 19 19 18 16 15 15 15 13 12 11 10 10 10 9 9 10 10 10 10 10 9 9 8 7 7 6 6 7 6 5 4 4 4 3 3 3 3 3
20 20 18 16 14 17 19 19 20 17 18 18 17 16 16 15 14 14 12 11 10 10 9 10 11 10 10 10 9 9 9 8 8 7 7 6 6 6 6 5 4 4 4 3 3 3 3 2 2
20 18 20 17 18 18 18 17 20 17 18 18 17 17 16 14 13 12 11 10 9 9 8 9 9 10 9 9 9 9 8 8 8 7 6 6 6 5 4 4 4 5 4 3 3 3 2 3 2
19 19 15 16 15 18 17 20 17 18 19 18 18 16 15 13 13 11 10 9 8 8 8 10 10 9 9 9 9 8 8 7 7 6 5 5 5 4 4 4 4 4 3 3 3 3 3 3 1
19 18 17 18 17 13 14 19 14 14 15 16 16 14 13 13 12 11 9 9 8 8 8 10 9 9 9 8 8 7 7 6 5 5 4 4 3 3 3 3 3 2 3 3 4 3 3 2 1

GFSSGP_925_temp_006.txt.gz
Temp
21 21 22 26 28 30 30 30 30 27 26 27 26 26 24 24 24 24 21 21 21 20 19 19 19 19 19 19 20 20 20 20 19 19 19 19 19 19 19 19 18 18 17 17 18 19 19 18 18
22 22 24 28 28 29 31 30 29 27 26 26 25 26 25 24 23 22 21 20 20 20 20 20 19 19 19 19 20 20 19 19 19 19 19 19 19 19 19 18 18 18 18 18 18 19 18 18 18
22 23 28 29 29 29 30 30 28 27 27 26 24 23 23 22 23 22 19 19 20 20 20 19 19 19 19 19 19 19 19 19 19 19 19 19 18 18 19 18 18 18 18 18 18 18 18 18 18
24 26 28 28 29 30 30 29 28 28 27 26 23 22 23 23 23 21 19 19 19 19 19 19 19 19 19 19 19 19 19 18 18 18 18 18 18 18 18 18 18 18 18 18 18 18 18 18 18
25 28 28 28 29 29 30 30 29 29 28 27 27 24 24 22 21 20 20 19 18 18 18 18 18 18 19 19 18 18 18 18 18 18 18 18 18 18 18 18 18 17 17 18 18 18 18 17 18
27 28 28 28 29 29 30 30 29 29 28 27 26 26 24 21 21 20 19 19 18 19 18 18 18 18 18 18 18 18 18 17 18 18 18 17 18 18 18 18 18 17 17 17 17 17 17 18 18
27 28 29 29 29 28 29 30 28 28 27 28 27 25 21 21 20 20 20 20 19 19 18 18 18 18 18 17 17 17 17 17 17 17 17 18 18 18 18 18 17 18 18 18 18 18 17 17 18
28 28 28 29 29 28 28 28 28 28 27 27 27 25 21 21 20 19 19 19 18 18 18 18 18 18 18 18 18 17 17 17 17 17 17 18 18 18 18 18 18 18 18 18 18 18 18 18 17
27 28 29 29 28 27 28 27 28 28 26 26 26 26 24 21 21 20 19 19 18 19 19 19 19 18 18 18 17 17 17 17 17 17 17 18 18 18 18 18 18 18 18 18 18 18 18 18 18
27 28 29 30 30 29 29 29 28 27 26 26 25 25 22 22 21 21 20 19 20 20 17 18 18 17 17 18 18 17 17 18 18 18 17 18 17 17 17 18 18 18 18 18 18 18 18 18 19
27 28 29 28 29 30 30 29 29 29 27 28 25 24 22 22 22 20 20 19 19 18 17 16 17 17 18 18 18 18 18 18 18 17 17 17 17 17 18 18 18 18 18 18 18 18 18 17 17
27 28 27 27 28 29 29 29 28 29 29 28 26 24 22 22 21 22 21 22 21 19 18 17 18 17 17 18 19 18 18 18 18 17 17 16 16 17 17 18 18 17 18 17 17 18 17 16 16
26 28 26 27 28 29 28 28 28 27 28 27 25 24 24 23 23 23 23 22 21 20 19 18 17 17 17 18 18 18 18 18 17 17 16 17 17 16 16 17 17 17 17 17 17 17 17 17 17
28 27 26 26 28 27 28 27 29 25 26 26 25 25 25 24 23 23 22 22 21 20 18 17 17 17 18 18 17 17 16 16 17 15 16 16 17 17 15 16 17 17 17 17 17 17 17 16 16
27 27 27 27 28 27 29 27 25 24 24 26 26 26 25 25 24 24 23 22 21 20 18 18 17 17 17 17 17 16 15 17 17 17 16 17 16 16 15 16 16 16 16 16 15 15 15 15 15
27 28 27 26 28 26 27 27 25 24 26 26 26 25 24 24 24 23 22 22 21 20 18 18 17 17 18 19 18 18 17 17 14 14 14 14 15 15 15 15 15 15 14 14 14 14 15 15 14
27 27 27 26 26 28 29 27 24 24 26 26 25 25 24 23 22 22 22 22 21 20 18 18 17 18 19 18 19 17 17 14 14 15 14 15 15 15 14 13 13 13 14 13 13 14 13 13 13
27 27 28 27 26 28 27 25 24 24 25 25 25 25 24 23 22 21 21 22 21 20 19 17 18 18 17 17 16 16 16 15 15 14 14 13 13 13 14 13 12 13 13 13 13 12 12 12 12
28 28 27 27 25 26 25 25 24 23 24 24 24 24 24 23 20 19 19 19 20 19 18 18 17 17 18 18 18 17 17 16 15 14 12 12 12 12 12 13 13 12 13 12 11 12 12 12 11
28 27 26 24 24 26 26 24 23 23 23 24 24 24 23 21 21 19 18 18 19 18 18 18 18 18 18 18 17 17 17 15 14 13 12 12 12 12 13 12 12 12 12 12 11 10 11 12 10
27 27 26 27 24 26 26 25 24 22 22 21 23 23 22 22 21 20 19 19 19 18 18 18 18 18 17 16 16 15 15 15 15 14 14 12 12 12 12 12 11 11 11 11 10 10 9 10 10
26 25 25 25 25 26 25 26 24 23 22 22 21 22 22 21 22 21 20 19 19 18 18 18 17 16 14 15 15 15 16 16 13 13 13 12 11 11 11 11 11 10 10 10 10 9 8 8 9
25 25 25 25 26 26 25 26 25 23 22 22 21 21 21 21 21 21 20 20 19 17 17 16 15 14 14 14 14 15 14 13 13 12 12 12 12 11 11 11 10 10 10 9 8 7 7 7 7
24 25 25 25 26 24 26 26 27 24 25 23 22 21 21 21 21 21 20 19 18 16 15 15 14 14 13 13 12 12 12 12 12 11 11 11 11 11 11 10 9 9 9 8 7 6 6 6 6
25 26 24 24 24 24 23 24 27 26 25 24 22 22 21 21 21 21 19 19 17 15 14 14 14 13 12 12 12 11 11 11 11 10 10 9 10 9 9 8 8 8 8 6 5 5 5 5 5
25 26 25 22 22 25 22 24 26 24 25 25 24 23 22 21 21 20 20 19 17 15 14 14 14 13 12 11 11 11 10 10 10 9 8 8 8 8 7 7 7 7 6 5 4 5 5 5 5
23 24 24 22 19 22 25 25 25 23 23 24 24 23 22 21 21 20 19 17 16 14 13 13 13 12 11 11 10 10 9 8 8 8 8 8 7 7 7 6 6 6 5 4 5 5 5 5 4
24 23 23 23 21 21 25 24 25 23 23 23 23 22 22 22 21 19 17 15 15 14 13 12 13 12 10 10 10 9 8 8 8 8 7 7 6 6 6 6 6 5 5 5 5 5 5 4 4
23 23 22 23 21 23 22 25 24 24 24 23 23 22 22 21 20 18 16 15 14 13 12 12 12 10 10 10 9 9 8 8 7 7 6 6 5 5 5 6 5 5 5 5 4 5 4 4 4
24 24 24 23 21 19 19 24 21 21 22 24 23 23 22 21 20 18 16 14 13 13 12 12 11 11 10 9 9 8 8 7 7 6 6 5 5 5 4 4 4 5 4 4 4 4 4 4 4

GFSSGP_925_temp_012.txt.gz
Temp
23 23 23 27 27 28 29 31 34 32 29 30 31 30 28 28 26 24 20 21 20 19 20 20 20 20 19 19 19 19 19 18 18 18 18 19 19 18 18 18 18 17 17 17 17 17 18 18 18
22 25 26 28 27 28 30 33 28 29 29 30 30 30 28 26 26 24 22 22 22 20 19 19 19 19 19 19 19 19 18 18 18 18 18 18 18 18 18 18 17 17 16 16 16 18 18 18 19
23 26 28 28 28 28 30 31 30 28 28 28 28 29 28 26 26 24 23 22 21 20 20 18 19 19 19 19 18 18 18 18 18 18 19 19 19 18 18 18 17 16 16 17 18 18 18 18 18
25 28 28 27 28 31 32 31 30 30 30 30 29 26 27 27 26 25 22 21 20 20 19 19 19 19 19 18 18 18 18 18 18 19 19 19 19 19 18 18 18 17 18 18 18 18 18 18 18
26 28 27 28 29 31 33 30 25 22 23 22 23 26 26 25 25 24 22 21 18 17 17 18 17 18 18 18 18 18 18 18 19 19 19 19 19 18 18 18 18 18 18 18 18 18 18 18 18
27 28 27 28 30 32 33 27 23 21 21 22 21 28 26 25 24 20 20 19 17 17 17 17 17 17 16 17 18 18 18 18 18 19 19 19 18 18 18 18 18 18 18 18 18 18 18 18 18
26 28 28 29 30 31 33 29 26 23 25 26 26 22 17 26 20 18 18 18 17 17 17 17 16 17 17 18 18 18 18 19 19 18 19 18 18 18 18 18 18 18 18 18 18 18 18 19 18
28 28 28 30 31 31 26 26 23 23 28 29 26 22 23 22 17 18 17 16 16 16 16 16 17 16 17 17 18 18 19 18 18 19 19 19 19 19 18 18 18 18 18 18 18 18 19 19 19
30 27 28 29 31 25 21 21 25 26 29 28 26 22 23 22 20 19 17 15 17 16 16 17 17 17 18 18 18 18 19 19 19 19 19 19 19 19 18 18 19 19 19 19 19 19 19 19 19
28 27 28 27 27 25 22 18 22 29 25 26 25 17 19 22 21 20 20 15 16 16 17 18 18 18 18 18 18 19 19 19 19 19 19 19 19 19 19 19 19 19 19 19 19 19 19 18 18
28 27 30 23 21 23 25 22 28 28 23 19 18 22 25 23 22 22 21 20 19 19 18 18 19 19 19 19 19 19 19 19 19 19 19 19 19 19 19 19 18 19 19 19 19 19 19 19 18
28 29 30 24 23 23 28 28 24 23 20 17 18 25 25 24 23 24 23 22 21 20 19 19 19 20 20 21 21 20 20 20 19 19 19 19 19 18 18 18 18 18 19 19 19 19 18 18 18
28 29 30 30 29 29 28 28 24 23 23 23 21 28 26 25 25 25 24 22 21 21 21 20 20 20 20 21 20 20 19 19 19 18 18 18 18 17 17 17 17 18 18 18 18 17 17 17 17
29 29 29 30 30 29 26 26 28 26 26 27 27 28 27 26 26 26 25 24 23 21 21 20 19 20 20 20 19 19 19 18 19 18 17 17 17 17 16 17 17 17 18 16 16 16 16 16 16
30 28 28 29 30 29 24 27 28 28 28 27 27 27 27 27 27 26 25 24 23 21 20 20 19 20 19 19 19 19 19 18 18 17 17 16 17 17 16 16 16 16 16 16 16 15 15 15 15
28 29 26 28 29 30 30 27 28 28 28 28 28 27 27 27 27 26 25 24 23 21 20 20 20 19 19 19 18 18 17 17 16 16 16 16 16 16 16 16 15 15 15 15 15 15 14 14 14
28 26 25 26 29 30 30 27 29 29 29 28 27 27 27 27 27 26 25 24 23 21 20 20 19 19 19 18 18 17 16 16 17 16 16 16 15 15 16 16 15 15 15 15 15 14 13 13 13
26 26 27 27 29 30 29 28 28 29 21 16 28 28 27 27 27 26 25 25 23 21 21 20 19 18 18 18 18 17 17 17 17 17 16 16 15 15 15 15 15 14 15 14 13 13 13 13 13
28 28 28 29 30 29 29 28 28 29 28 28 27 28 27 27 27 26 26 25 23 22 21 20 19 18 19 19 19 18 18 18 16 15 15 15 15 15 14 14 14 14 13 13 13 13 12 12 12
28 28 28 29 30 29 29 28 29 29 29 29 29 27 27 27 27 26 26 25 23 22 21 20 20 19 20 21 20 20 18 17 17 15 15 14 14 14 14 13 13 13 12 12 12 12 12 11 11
28 28 27 28 29 29 26 27 28 29 30 30 29 29 28 27 26 25 25 24 24 22 21 21 20 20 21 20 18 18 18 17 17 16 15 14 14 14 13 13 13 12 12 12 11 11 11 10 10
25 27 28 27 25 26 26 24 21 25 28 29 29 28 28 28 26 25 24 24 22 21 21 21 21 20 19 19 19 18 18 16 16 15 14 14 13 13 12 12 12 11 11 11 11 11 10 10 9
26 26 27 29 28 27 25 24 23 22 25 27 28 28 28 27 26 24 24 21 21 21 21 21 20 19 18 18 17 17 16 16 15 14 13 13 12 12 12 11 10 10 10 10 10 10 9 8 7
28 26 27 28 28 23 24 23 22 22 24 25 27 27 27 26 25 25 22 21 21 21 21 19 19 18 17 16 16 15 15 14 13 13 12 12 12 11 11 10 9 9 9 10 9 8 7 6 6
28 27 25 23 22 23 28 25 24 23 24 19 18 26 26 25 25 24 22 22 21 20 19 18 18 17 16 14 14 13 13 13 12 12 11 11 11 10 10 9 9 8 9 8 8 7 6 6 5
27 27 24 18 17 22 27 25 28 28 25 21 24 26 26 25 24 24 24 22 20 19 18 18 17 16 15 14 14 13 13 13 12 11 10 10 10 9 9 9 8 8 8 8 7 6 6 5 5
27 26 28 25 21 24 26 28 30 29 29 29 27 26 25 24 24 24 23 22 20 19 18 18 17 16 14 14 13 12 12 12 11 10 10 10 9 9 8 8 8 8 7 7 6 6 6 6 5
26 28 25 25 22 22 25 26 27 27 27 27 27 26 25 24 24 23 23 22 20 19 18 18 17 16 14 13 12 12 11 11 10 10 9 9 8 8 8 7 7 7 7 7 6 6 6 6 5
26 25 26 26 25 22 22 25 27 27 27 27 27 26 25 24 24 23 23 22 20 19 18 17 17 16 14 13 12 12 11 10 10 10 9 8 8 7 7 7 7 7 7 7 6 6 6 6 5
27 26 26 22 23 23 21 23 28 27 27 27 27 27 26 25 24 24 23 22 21 19 18 17 17 16 14 13 12 11 11 11 10 10 9 8 7 7 7 6 6 6 6 6 5 5 5 5 3

GFSSGP_925_temp_015.txt.gz
Temp
23 23 22 22 19 19 20 23 26 26 26 26 27 25 23 23 23 21 18 20 20 19 19 20 20 19 19 19 19 19 18 19 19 19 19 19 19 18 18 18 18 18 17 17 17 18 19 19 19
23 23 22 20 19 19 21 25 24 24 26 26 26 26 24 23 23 19 18 18 18 18 18 19 20 19 19 19 18 18 18 18 19 19 19 19 18 18 18 18 17 17 16 16 17 18 19 19 19
23 22 19 19 18 20 21 27 25 26 25 26 25 25 25 22 22 20 20 17 17 18 18 19 19 19 19 18 18 18 18 18 19 19 19 19 19 18 18 17 17 17 17 17 18 18 19 19 19
22 21 20 21 20 22 25 26 24 24 22 22 22 23 24 24 24 21 19 18 19 18 19 19 19 18 18 17 18 18 18 19 19 19 19 19 19 18 18 18 18 17 17 18 18 18 19 19 19
22 20 20 21 22 25 27 25 22 22 21 22 24 24 22 20 22 22 19 17 17 18 18 18 18 17 17 17 18 18 19 19 19 19 19 19 19 18 18 18 18 18 18 18 18 19 19 19 19
20 20 20 20 24 27 22 22 22 21 21 22 23 24 21 19 21 17 18 17 16 16 16 17 17 16 16 16 18 19 19 19 19 19 19 19 19 19 19 19 18 18 18 18 19 19 19 19 19
20 19 20 23 25 25 24 23 21 21 22 23 23 20 19 16 16 16 16 16 16 16 16 15 16 15 16 17 18 18 19 19 19 19 19 19 19 19 19 19 19 19 19 19 19 19 19 19 18
21 21 22 23 25 23 23 22 23 23 22 24 20 20 19 16 16 16 15 16 16 15 14 15 16 15 16 17 18 18 19 19 19 19 19 19 19 19 19 19 19 19 19 19 19 19 19 18 18
24 21 21 23 21 20 19 21 21 23 24 23 18 19 17 15 15 15 15 17 17 15 16 17 17 16 17 18 18 19 19 20 19 19 19 19 18 18 19 19 19 19 19 19 19 19 18 18 18
22 20 23 23 23 22 21 21 22 24 21 18 20 19 17 16 15 16 16 15 15 14 16 17 17 16 17 18 19 19 19 19 19 19 19 18 18 18 19 18 18 18 18 18 19 18 18 18 18
23 23 23 22 23 23 22 22 21 23 21 21 19 18 17 19 16 17 16 16 15 15 15 17 18 18 19 19 19 19 19 19 19 18 19 18 18 18 18 18 17 18 18 18 17 18 17 17 17
24 25 26 23 23 21 22 20 22 21 21 19 20 19 18 19 16 16 15 16 16 16 17 19 18 19 19 19 19 19 19 19 19 18 19 19 19 18 18 18 18 18 18 18 18 17 17 17 16
25 26 27 25 24 23 24 22 22 20 19 21 20 21 20 21 19 15 17 17 18 18 18 19 19 19 19 19 19 19 19 18 18 18 18 18 18 18 17 17 17 17 17 17 17 17 16 16 16
27 26 28 27 26 25 24 23 24 23 19 19 20 20 22 22 21 19 19 19 19 19 19 19 20 20 19 19 20 19 18 19 19 18 18 17 17 17 17 16 16 16 16 16 16 16 15 15 15
27 26 27 27 24 25 26 23 23 23 21 20 20 21 22 23 22 21 20 20 20 19 19 20 20 20 20 20 19 19 18 19 18 17 17 16 16 16 16 16 16 16 15 15 15 15 14 14 14
27 25 24 26 26 25 25 22 23 23 24 23 22 23 23 23 22 22 21 20 20 20 19 19 19 19 19 19 19 18 17 17 17 17 16 16 16 16 16 16 16 15 15 15 15 14 14 13 13
24 22 24 26 27 26 24 22 24 24 24 23 22 22 22 22 22 22 21 20 20 20 20 19 19 19 19 18 18 17 17 17 17 16 16 16 16 16 15 15 15 15 14 14 13 13 13 13 12
23 23 24 24 26 26 24 23 23 23 22 20 21 20 21 21 21 23 21 20 20 20 19 19 19 19 18 18 17 17 17 16 16 16 15 15 15 15 15 14 14 13 13 13 13 12 12 12 12
26 26 24 24 25 25 24 23 21 20 19 22 18 19 18 21 22 24 22 20 20 20 19 19 19 19 18 17 17 17 16 16 16 16 15 15 14 14 14 14 14 13 13 12 12 12 11 11 11
24 24 24 26 26 26 24 23 23 19 19 20 18 18 18 20 22 23 21 20 20 20 19 19 19 19 18 18 18 17 17 17 16 15 14 14 14 14 13 13 12 12 12 12 11 11 11 11 10
25 24 24 25 27 26 25 23 23 24 22 21 20 18 22 22 22 21 21 19 19 20 19 19 19 19 19 18 18 17 17 16 15 14 14 13 13 13 13 12 12 12 11 11 10 10 10 10 9
23 25 25 26 24 22 24 19 21 24 23 24 24 23 23 22 22 21 20 19 19 19 20 19 20 19 18 19 18 17 16 15 14 14 13 13 13 13 12 12 11 11 10 10 10 10 9 9 7
24 25 25 25 24 22 24 21 20 22 23 23 23 23 21 22 22 20 20 20 20 20 20 20 19 19 19 18 18 17 16 14 14 14 14 13 13 12 11 11 10 10 9 9 9 8 8 7 7
27 25 25 23 21 18 22 21 20 20 22 23 24 25 23 21 19 20 21 21 20 20 20 19 19 18 18 17 17 16 15 14 14 13 13 12 11 11 10 10 9 8 8 8 8 7 7 6 6
25 23 19 20 17 17 22 21 22 21 23 23 23 23 22 20 20 18 18 18 19 19 18 18 18 17 17 16 16 15 15 15 14 13 12 11 11 10 10 9 8 8 8 8 7 7 6 6 5
24 22 18 19 16 19 20 21 22 25 23 24 23 21 21 19 19 18 19 20 18 18 18 18 17 15 15 15 15 14 14 14 13 12 11 10 10 9 9 8 8 8 7 7 7 7 6 6 5
25 22 22 17 17 17 20 23 25 23 22 21 20 19 20 19 19 19 19 18 17 18 18 17 16 15 14 14 14 13 13 12 12 11 10 10 9 9 8 8 7 7 7 7 7 7 6 6 5
25 24 20 18 17 18 21 22 22 23 23 21 18 19 19 19 18 17 18 17 17 18 18 17 16 15 14 14 13 13 12 12 11 10 10 9 8 8 7 7 7 7 7 7 6 6 6 6 5
23 22 23 21 17 16 15 19 24 24 24 20 20 21 20 19 19 17 18 17 18 18 18 18 16 15 14 13 13 12 11 11 10 10 9 9 8 7 7 7 6 6 6 6 6 6 5 5 4
24 24 21 15 20 14 13 17 24 24 25 24 22 22 21 20 19 18 18 17 17 17 17 17 16 15 14 13 12 11 11 10 10 9 9 8 8 7 7 6 6 6 6 6 5 5 5 4 4

GFSSGP_925_temp_018.txt.gz
Temp
22 21 21 21 18 16 19 21 24 25 25 24 25 23 21 21 22 21 18 19 18 18 19 19 20 20 19 19 19 19 19 19 19 19 19 19 19 18 18 18 18 18 18 19 19 19 19 19 19
22 21 21 17 17 17 19 21 25 24 25 24 24 23 22 21 20 18 18 17 17 18 18 18 19 19 19 18 18 18 18 18 19 18 18 19 19 18 18 18 18 19 18 19 19 19 19 19 19
21 21 18 18 15 18 19 24 22 21 23 25 24 23 22 20 19 18 18 17 17 17 18 18 19 19 18 18 18 18 18 19 18 19 19 19 18 18 18 19 18 19 19 19 19 19 20 20 20
21 19 17 19 19 20 22 24 23 23 24 23 23 21 21 19 20 19 19 19 18 17 17 18 19 18 18 18 18 19 19 19 18 19 19 19 18 18 18 19 19 19 19 19 19 19 19 19 19
21 16 17 18 20 23 24 23 21 19 20 22 23 21 20 17 17 17 17 17 17 17 18 18 18 18 18 18 19 18 19 18 19 19 19 19 19 19 19 19 19 19 19 19 19 19 19 19 18
17 16 18 18 22 24 22 20 21 19 19 22 22 20 19 17 17 17 17 16 16 16 17 16 16 16 16 17 18 18 19 19 19 19 19 19 19 19 19 18 18 18 19 19 19 19 19 19 18
18 17 19 21 22 24 23 21 20 21 21 21 21 19 17 17 16 16 16 16 15 16 16 14 14 14 15 16 18 19 19 19 19 19 19 19 19 19 18 19 19 19 19 19 19 18 18 19 19
18 18 21 22 20 19 20 20 20 21 22 21 21 18 18 16 15 15 15 16 16 15 14 13 15 15 16 17 18 19 19 19 19 19 19 19 19 19 19 19 19 19 19 19 19 18 18 18 18
20 19 18 22 22 22 20 20 21 22 21 19 18 17 16 15 15 15 15 16 17 16 15 15 16 16 16 16 18 19 19 19 18 18 19 18 18 18 18 18 18 18 18 18 18 18 18 18 18
20 18 20 22 22 21 21 22 22 22 20 18 16 16 15 15 15 15 14 14 15 14 14 15 17 16 17 18 18 18 18 19 19 18 18 18 18 18 18 18 18 18 18 18 17 17 17 17 17
21 21 22 22 22 21 21 21 21 21 19 19 16 16 16 15 15 15 15 15 17 16 14 15 17 17 17 18 18 18 18 18 18 18 18 18 18 17 17 17 18 18 18 17 17 17 17 17 17
22 23 23 21 22 21 22 21 21 20 21 19 17 17 16 16 15 15 15 15 15 16 17 17 17 17 18 18 18 18 18 18 18 18 18 18 17 17 17 17 17 17 17 17 17 17 16 16 16
22 24 24 22 22 22 23 22 22 19 18 18 19 18 16 16 16 16 16 15 15 15 17 18 17 17 18 18 18 18 18 18 18 18 18 18 18 18 17 17 17 16 16 16 16 16 15 15 15
24 24 25 22 22 23 23 22 22 20 18 18 19 19 17 16 16 15 16 15 15 16 17 18 18 18 18 18 18 18 18 18 18 18 18 17 17 17 17 17 16 16 16 15 15 15 15 14 14
23 25 23 22 22 23 22 22 20 20 18 19 19 19 19 16 16 16 17 17 17 17 18 18 18 18 19 18 18 18 18 18 18 17 17 17 17 16 16 16 16 15 15 15 14 14 14 14 13
23 23 22 23 24 23 23 21 23 20 19 18 19 19 20 19 17 17 17 18 18 18 18 18 19 18 18 18 18 18 18 18 17 17 16 16 16 16 16 16 15 15 15 14 14 14 13 13 12
21 22 24 24 25 24 23 21 22 21 21 19 19 19 20 20 19 19 18 18 19 19 19 19 19 19 19 18 18 18 17 17 16 16 16 16 16 15 15 15 14 14 14 13 13 13 12 12 12
22 23 23 24 25 24 22 21 22 21 20 18 18 18 19 20 19 19 18 18 19 19 19 18 18 18 18 18 17 16 16 16 16 16 15 15 15 15 15 14 14 13 13 13 12 12 12 11 11
23 24 23 23 23 24 21 21 20 19 20 18 18 19 19 21 20 19 19 18 19 19 19 18 18 18 18 17 16 16 16 15 15 15 15 15 15 15 14 14 14 13 13 12 12 11 11 11 10
23 23 22 22 23 24 20 21 21 19 22 20 19 19 21 18 19 19 18 18 18 19 18 18 18 18 18 18 17 17 16 15 16 15 14 14 14 14 14 14 13 12 12 11 11 10 10 10 9
23 23 23 23 23 22 21 21 21 21 21 20 20 22 22 20 20 19 18 17 18 17 18 18 18 18 18 17 17 16 16 15 14 14 14 14 14 14 14 13 12 11 11 10 10 9 9 9 7
21 24 23 25 22 21 22 19 20 21 21 20 20 18 18 18 21 19 18 17 17 17 18 19 19 18 18 17 17 16 15 14 14 14 13 13 13 13 12 12 11 10 10 9 9 9 9 8 7
22 22 24 25 21 21 22 20 21 20 22 20 19 19 18 18 21 19 18 18 17 18 18 19 18 18 18 17 17 17 16 15 14 13 13 13 12 12 11 11 10 9 9 8 8 8 7 7 6
25 24 21 20 19 17 20 20 18 19 23 23 20 20 20 20 19 17 18 18 17 18 18 17 18 18 18 18 17 17 16 14 13 13 13 12 11 11 10 10 9 8 8 8 7 7 7 6 6
24 20 19 19 15 16 21 20 20 21 21 21 21 20 21 20 17 16 17 17 17 17 17 17 18 17 17 17 17 16 15 14 14 13 13 11 10 9 9 9 8 8 7 7 7 7 6 6 5
23 20 17 19 16 19 19 19 21 23 22 22 21 20 18 17 18 18 17 17 16 16 17 17 18 17 16 16 16 15 14 14 13 13 11 10 10 9 8 8 8 7 7 7 7 7 6 6 5
23 21 21 16 15 17 18 22 21 21 20 21 19 18 17 16 16 17 16 17 16 16 16 16 16 16 15 15 14 14 13 13 13 11 11 10 9 9 8 7 7 7 7 7 6 6 6 6 5
23 23 20 16 18 18 19 20 20 23 23 21 20 18 18 17 16 16 16 16 16 16 16 16 16 15 14 14 13 13 13 12 12 11 10 9 9 8 8 7 7 7 6 6 6 6 6 5 5
20 21 21 19 15 16 15 18 20 22 22 21 19 18 17 17 17 16 16 16 16 16 15 16 15 15 14 13 13 13 12 12 11 11 10 9 8 8 8 7 7 6 6 6 6 5 5 5 4
22 21 19 14 19 12 12 17 21 21 22 20 18 18 17 18 17 17 16 15 15 15 15 16 16 15 15 14 13 13 12 11 10 10 9 9 8 8 7 7 6 6 6 6 5 5 5 4 4

GFSSGP_925_temp_021.txt.gz
Temp
20 20 21 20 18 15 17 19 22 22 24 22 23 23 20 19 21 21 17 18 18 18 18 19 19 20 19 19 19 19 19 20 19 19 19 19 19 19 19 19 19 18 17 17 17 17 19 19 19
20 21 20 15 16 17 18 20 22 22 23 22 21 22 21 20 20 18 18 18 18 17 17 18 19 19 19 18 19 19 19 19 19 19 19 19 18 18 19 19 19 19 19 17 18 17 19 19 19
20 20 17 15 14 17 18 21 22 22 20 21 22 21 21 19 19 18 17 17 18 18 17 18 18 18 18 18 18 19 19 19 19 18 18 18 18 18 19 19 19 19 19 19 19 18 18 19 19
20 18 15 17 19 18 21 21 23 22 22 20 21 19 19 18 19 18 17 17 17 17 17 18 18 18 18 18 19 19 19 18 18 18 18 17 18 18 18 19 18 19 19 19 19 19 18 19 19
20 15 17 17 19 21 22 20 21 20 20 19 19 19 19 17 17 17 17 17 17 18 17 18 18 18 18 19 19 18 18 18 18 18 18 18 17 17 18 18 19 19 19 19 19 19 19 18 19
15 14 16 18 20 22 21 19 20 20 20 20 20 19 18 17 17 16 16 16 16 16 16 16 17 16 17 18 18 18 18 19 19 19 18 18 18 18 18 19 19 19 19 19 19 19 18 18 18
16 15 17 20 20 21 20 19 20 20 21 21 20 18 17 16 16 16 16 15 15 15 15 14 14 14 15 17 18 18 18 19 19 18 18 18 18 18 19 19 19 19 19 18 18 18 18 18 18
15 16 20 20 20 20 20 20 20 21 21 20 19 17 17 16 15 15 15 15 15 15 15 14 13 14 14 16 17 19 20 19 18 18 18 18 18 18 19 18 19 18 18 18 18 18 18 18 17
18 16 16 20 20 22 20 21 21 19 18 17 17 16 16 15 15 15 15 14 12 13 13 13 14 15 15 17 18 18 18 18 18 18 18 18 18 18 18 18 18 18 18 18 17 18 17 17 17
18 16 18 20 22 21 21 21 22 20 18 17 16 16 15 15 15 15 14 14 13 12 12 14 15 15 16 17 18 18 18 17 18 18 18 17 17 17 18 18 18 18 18 18 17 17 17 17 17
20 20 20 22 21 21 20 21 21 20 19 17 17 16 16 15 15 15 14 14 14 13 14 15 15 16 16 17 17 18 18 17 18 18 17 17 17 17 17 17 18 17 17 17 17 17 17 17 16
21 21 21 22 22 21 21 21 21 19 19 17 16 16 16 16 15 15 15 14 13 14 15 15 16 16 16 16 17 17 17 17 17 18 18 18 18 17 17 17 17 17 17 17 16 16 16 15 15
21 22 22 22 21 21 21 21 20 17 16 16 16 16 16 16 15 16 15 15 14 14 15 15 16 16 16 17 17 18 18 17 18 17 18 18 17 17 17 17 17 16 16 16 16 16 15 15 14
23 22 23 21 21 22 21 21 21 17 17 16 17 16 17 17 16 15 15 15 15 15 16 17 17 16 16 17 17 17 17 18 18 18 17 17 17 17 17 16 16 16 16 15 15 15 14 14 13
22 24 22 21 21 21 22 21 20 17 18 17 17 16 17 16 16 16 16 15 16 17 17 17 17 17 17 18 17 17 17 17 18 17 17 16 17 17 16 16 15 15 15 14 14 13 13 13 13
23 22 21 23 22 22 23 21 20 17 18 17 17 16 17 16 16 16 16 16 17 17 17 18 17 17 17 17 18 18 17 17 17 17 16 16 16 16 16 16 15 15 14 14 14 13 13 12 12
20 21 22 23 23 22 23 21 19 18 18 17 17 17 16 16 16 16 16 17 17 18 18 18 17 17 17 17 17 17 17 17 17 16 16 16 15 15 16 15 14 14 14 13 13 12 12 11 11
21 22 23 22 23 22 22 20 18 18 18 18 16 17 17 16 16 17 17 17 17 18 18 18 18 18 17 17 17 16 16 16 16 15 15 15 15 15 15 15 14 14 13 12 12 12 11 11 10
21 23 23 22 23 22 21 20 20 18 17 17 16 16 18 17 18 17 17 17 17 17 18 18 18 17 17 16 16 16 16 15 15 15 15 15 15 15 15 15 13 13 12 12 11 11 11 10 10
23 22 22 22 22 23 20 20 19 18 19 18 18 17 18 18 18 18 17 17 17 18 18 18 18 17 17 17 17 17 16 15 15 15 14 15 15 14 14 14 13 13 12 12 11 10 10 9 9
22 23 22 22 22 20 19 19 19 20 20 19 18 19 19 19 18 18 17 17 17 16 17 18 18 17 17 17 17 16 15 14 14 14 14 14 14 14 13 13 12 12 11 11 10 9 9 9 7
21 22 22 22 21 20 21 18 18 19 19 19 20 17 19 18 18 18 17 16 16 16 17 18 18 17 17 17 17 16 15 13 13 13 13 13 13 12 12 12 11 11 11 10 9 9 9 8 7
22 22 22 23 20 20 21 19 18 18 20 20 20 20 18 17 18 18 17 17 17 16 16 17 17 17 17 17 17 16 14 14 14 13 13 12 12 11 11 11 10 10 10 9 8 8 7 7 7
23 23 19 18 18 17 20 19 18 17 21 21 22 20 20 15 16 17 18 17 17 16 16 16 16 16 17 17 17 16 15 14 14 13 13 12 11 11 10 9 9 8 8 8 8 7 7 7 6
22 19 18 19 16 16 19 19 19 21 20 21 20 20 18 17 17 15 16 16 16 16 16 16 16 16 17 16 16 16 15 14 14 13 12 11 10 9 9 9 9 8 7 7 7 7 6 6 6
22 20 16 19 16 19 18 18 20 21 20 20 19 18 17 16 17 16 16 16 16 16 15 16 16 16 16 16 16 16 15 14 13 13 12 11 10 9 9 8 7 7 7 6 6 6 5 5 5
22 20 19 15 14 15 17 19 20 21 21 18 18 18 16 15 15 16 16 16 16 16 15 16 16 15 16 15 14 14 14 14 13 13 11 11 10 9 8 7 7 7 7 6 6 6 5 5 5
22 20 19 15 18 18 18 19 19 21 22 19 17 17 17 15 15 15 16 16 16 16 15 15 16 16 17 16 15 14 13 13 13 12 11 11 10 8 8 7 7 7 6 6 6 6 6 5 5
20 20 18 17 14 16 15 17 17 20 23 22 20 16 16 15 15 15 16 16 15 15 15 15 15 15 15 14 14 14 13 13 12 11 11 9 9 8 8 7 7 7 6 6 6 5 5 5 4
21 20 18 14 18 12 11 16 19 19 20 19 19 19 15 15 15 16 16 14 14 14 14 14 14 14 14 14 13 13 12 12 11 11 10 9 9 8 8 8 7 7 6 6 6 5 5 5 5

GFSSGP_925_temp_024.txt.gz
Temp
21 21 21 19 17 14 17 19 19 21 23 21 21 22 20 19 21 20 17 18 18 17 18 19 19 19 19 18 19 20 20 20 19 20 19 19 19 17 17 17 17 17 17 17 18 19 19 19 19
21 20 20 14 16 16 17 19 21 20 21 20 20 21 19 20 20 18 18 18 17 17 18 18 18 18 19 19 19 19 20 19 20 19 19 19 18 18 18 17 17 17 17 17 18 19 19 19 18
21 20 16 14 13 17 17 20 20 20 19 21 22 19 19 19 19 18 18 18 17 17 17 17 17 18 19 19 19 19 20 19 19 18 17 18 18 17 18 18 17 17 17 17 18 19 19 19 19
20 17 14 16 17 18 19 20 20 22 20 20 20 18 19 17 19 17 18 18 18 17 17 17 18 18 18 18 19 19 18 19 18 18 17 17 17 17 19 18 18 17 16 17 19 19 19 19 19
19 14 16 17 17 20 20 19 19 20 20 19 19 19 18 17 17 17 17 17 17 17 17 18 18 18 18 18 18 18 20 19 18 17 17 17 17 18 19 19 19 19 18 18 18 19 19 19 19
16 13 15 16 18 21 20 19 20 19 19 20 18 19 18 17 17 16 17 16 17 16 16 16 16 17 17 18 17 19 17 18 17 17 17 17 18 19 19 19 19 19 18 18 18 18 19 18 18
16 14 17 18 19 20 20 19 19 19 20 19 18 18 17 17 16 16 16 16 15 15 15 15 15 13 15 18 18 17 19 17 17 17 18 18 18 19 18 18 18 18 18 18 18 18 18 18 18
14 15 19 18 19 20 20 20 20 20 18 18 18 18 18 16 15 15 14 15 14 15 14 15 15 13 14 16 16 17 17 17 17 18 18 18 18 18 18 18 18 18 18 18 18 17 17 17 17
16 16 16 19 20 21 20 20 19 17 17 17 17 17 17 15 14 14 13 13 13 14 13 12 13 13 14 16 17 17 16 17 18 18 18 18 18 18 18 18 18 17 17 18 17 17 17 17 16
17 15 17 18 21 21 20 20 20 18 17 17 17 16 15 15 14 14 13 13 13 12 13 14 14 12 14 15 15 16 18 18 18 18 18 18 18 18 18 17 17 17 17 17 17 17 17 16 16
18 18 19 20 20 20 21 21 20 18 18 17 17 16 16 16 15 15 13 13 12 12 12 12 12 13 15 16 17 19 19 18 17 17 17 17 17 18 17 17 17 17 17 17 17 17 17 16 15
20 19 20 20 20 20 21 20 19 18 18 18 17 16 16 16 15 15 14 13 12 12 14 14 15 15 16 15 16 17 18 17 17 17 17 17 17 17 17 17 17 17 17 17 16 16 16 15 15
20 21 21 20 19 20 20 19 18 15 16 17 17 16 16 16 15 15 14 13 13 13 14 14 15 15 15 16 17 17 17 17 18 17 17 17 17 17 17 17 16 16 16 16 16 15 15 14 14
21 21 20 20 20 21 20 19 18 16 16 16 16 16 15 16 15 15 14 13 13 13 14 15 16 15 15 16 17 17 17 17 17 17 17 16 17 17 17 16 16 16 16 15 15 14 14 14 13
21 22 21 20 20 21 20 20 17 16 16 16 15 15 16 16 16 15 15 14 13 14 14 15 16 15 16 16 17 17 17 17 17 17 16 16 16 16 16 16 16 16 15 15 14 14 13 13 12
21 22 21 22 21 21 20 20 16 16 16 17 16 16 16 15 15 16 16 16 15 15 15 16 15 16 16 16 17 17 17 17 17 16 16 16 16 16 16 16 16 15 15 14 13 13 13 12 12
18 21 22 22 21 22 21 20 17 16 17 16 16 16 16 15 15 15 16 16 16 16 16 16 16 16 16 16 17 17 16 17 16 16 16 16 16 15 16 16 15 14 14 13 13 12 12 11 11
20 21 21 22 22 21 21 20 17 17 17 16 15 15 16 15 15 16 16 16 16 17 17 17 17 17 17 16 16 16 16 16 16 16 15 15 15 15 15 15 14 13 13 13 12 11 11 10 10
21 21 22 22 22 21 20 19 17 16 16 16 15 15 16 16 17 16 16 17 17 16 17 17 17 17 17 16 15 15 16 15 15 15 15 15 15 15 14 14 13 13 12 11 11 11 10 9 9
21 22 21 22 22 22 18 19 18 16 17 17 17 16 16 16 16 16 16 16 17 17 17 17 17 17 17 16 16 15 16 15 15 15 14 14 14 14 13 13 12 12 11 11 10 10 9 8 8
22 22 22 21 21 19 18 18 19 19 19 17 17 17 17 16 16 16 16 16 16 17 17 17 18 17 16 16 16 16 15 14 14 14 14 13 13 13 13 12 12 11 11 10 10 9 9 8 7
23 22 22 21 20 19 20 18 18 18 18 18 18 16 17 17 17 16 16 16 16 16 17 17 17 17 16 16 16 16 15 13 14 14 14 13 12 12 12 12 11 11 10 10 9 9 9 8 7
22 21 21 21 20 19 20 18 18 17 19 19 18 18 17 17 17 16 16 17 16 17 16 17 17 16 16 16 16 16 15 15 14 13 13 12 12 11 11 11 10 10 10 10 9 8 8 7 7
22 22 19 17 17 16 20 18 18 17 20 22 20 18 19 16 16 16 17 17 16 16 17 16 16 16 16 16 16 16 16 14 14 12 12 11 11 11 10 10 10 10 9 8 8 7 7 7 6
20 19 18 18 15 16 18 18 18 20 19 19 19 19 19 19 15 14 15 15 15 16 16 16 16 15 15 15 15 15 15 15 15 13 12 11 10 10 10 9 9 9 8 7 7 7 6 6 6
20 18 16 19 15 18 18 18 20 20 20 19 18 18 17 16 16 16 16 16 16 15 15 15 15 15 15 15 15 14 14 15 14 13 13 12 11 10 10 10 10 8 8 8 7 6 6 6 5
20 19 18 14 13 15 16 18 19 20 20 18 18 17 16 14 14 15 15 16 16 15 15 16 15 15 15 15 14 14 14 14 14 13 12 12 11 10 10 9 9 8 8 7 7 6 6 5 5
20 18 18 15 18 18 17 17 18 20 21 19 18 17 16 15 13 14 14 15 15 15 15 15 15 16 17 15 14 14 14 13 12 12 11 11 10 9 9 9 8 7 7 7 6 6 5 5 5
19 19 16 16 14 16 14 16 17 20 20 20 19 17 16 15 13 13 13 15 15 15 16 16 15 15 15 14 14 13 12 11 11 11 11 11 10 9 9 9 8 7 6 6 6 6 5 5 5
20 19 17 14 17 11 11 15 18 17 17 18 18 18 17 15 13 13 13 14 15 15 14 14 14 14 14 15 13 11 11 10 10 11 11 11 10 9 9 8 7 7 6 6 6 5 5 5 5

GFSSGP_925_temp_027.txt.gz
Temp
21 21 20 21 23 21 22 23 22 24 24 22 22 24 23 21 23 24 17 17 18 17 17 17 18 19 19 20 19 19 19 19 20 19 17 17 17 17 17 17 17 18 18 18 19 19 19 19 18
20 20 20 20 23 22 24 21 23 22 21 21 21 22 22 20 20 18 18 18 17 17 17 17 17 17 17 18 17 17 17 19 19 18 18 17 17 16 17 17 18 18 19 19 19 19 19 18 18
20 20 22 22 20 23 23 22 23 22 21 22 22 21 20 20 19 18 18 17 17 17 17 17 17 17 18 18 17 17 18 18 19 18 18 17 17 17 17 17 18 18 19 18 19 19 19 18 18
19 20 19 22 22 21 22 23 21 22 23 22 21 20 20 17 18 18 17 18 17 17 17 17 17 18 17 18 17 18 19 18 18 18 18 17 17 17 17 17 18 18 18 19 19 19 19 18 18
18 19 21 20 20 22 21 21 20 22 22 21 21 19 19 17 17 17 17 17 18 17 17 17 18 18 17 17 17 18 18 18 18 18 18 18 18 18 18 18 18 18 18 19 19 19 19 18 18
21 19 21 21 22 22 22 21 21 21 21 21 21 20 18 16 16 16 17 17 17 17 16 16 16 16 15 16 17 18 18 18 18 18 18 19 18 18 18 18 18 18 18 18 18 18 18 18 17
21 20 21 20 21 22 22 21 21 21 21 20 20 20 18 16 15 15 16 16 16 16 16 15 15 14 14 17 17 17 17 17 18 18 18 19 18 18 18 18 17 17 18 18 18 18 18 17 17
19 20 20 20 22 23 22 21 20 20 19 19 19 20 18 16 14 15 15 15 15 15 15 14 14 13 13 16 16 16 17 17 18 18 18 18 18 18 18 18 18 17 17 17 17 17 17 17 17
18 21 21 21 22 23 21 21 19 19 19 19 18 18 17 14 13 13 13 13 14 13 14 12 12 14 15 15 16 16 17 17 17 17 18 18 17 17 17 17 17 17 17 17 17 17 17 16 16
21 20 21 21 22 23 21 21 20 20 18 18 17 16 15 14 14 13 13 13 13 12 12 12 12 13 14 15 16 16 16 18 18 18 18 17 17 17 17 17 17 17 17 17 17 16 16 16 16
19 22 21 22 22 22 20 21 20 20 19 19 17 17 15 15 14 14 13 13 12 12 11 12 12 13 13 14 16 17 18 17 17 17 17 17 17 17 17 17 17 17 17 17 16 16 16 15 15
21 21 22 22 21 21 21 21 20 19 20 19 18 17 16 16 15 14 13 13 12 12 12 12 13 14 14 14 15 16 16 16 17 17 17 17 17 17 16 17 17 17 17 16 16 16 15 15 14
20 22 22 21 21 20 21 20 18 17 17 17 17 17 17 16 15 15 15 13 12 12 12 11 13 14 14 15 16 16 16 17 17 17 17 17 16 17 17 16 16 17 16 16 16 15 15 14 14
22 22 22 21 21 21 20 19 19 17 18 17 17 17 17 16 15 15 14 14 13 13 12 12 12 13 15 15 16 17 17 17 17 16 16 16 16 17 17 16 16 16 16 15 15 15 14 13 13
22 22 21 21 21 21 22 21 18 17 17 17 17 17 17 17 16 15 15 14 14 14 14 13 13 15 15 15 16 17 17 17 17 16 16 16 17 17 17 16 16 16 15 15 15 14 13 12 12
22 22 23 22 22 21 22 21 17 16 17 17 17 17 17 17 16 16 15 15 14 14 14 13 14 15 15 15 17 17 17 17 17 16 16 16 16 16 16 16 16 15 15 14 14 13 12 12 11
21 23 23 22 22 22 23 20 19 17 18 18 18 18 18 17 17 16 15 15 15 15 14 14 15 15 15 16 17 17 17 16 16 16 16 16 16 16 16 16 15 15 14 13 13 13 12 10 10
22 22 22 23 23 22 22 21 18 17 18 17 18 19 18 18 18 17 16 16 15 15 15 15 15 16 15 16 16 16 16 16 15 15 16 16 16 15 15 15 15 14 13 13 12 12 11 10 9
22 22 22 23 23 23 22 21 19 18 18 18 18 18 18 19 19 17 16 16 16 15 15 15 15 16 15 15 15 15 15 15 15 15 15 15 15 14 15 14 14 13 13 13 12 11 10 8 8
21 22 22 22 21 23 21 21 20 18 19 19 19 18 19 19 19 17 16 16 16 16 15 15 15 16 16 16 16 15 15 15 14 14 14 14 14 14 14 14 13 13 13 12 11 10 9 8 8
22 22 22 22 21 20 21 22 20 20 18 19 19 20 19 19 19 18 17 16 16 16 16 16 16 17 17 17 16 15 14 14 13 13 14 13 13 14 13 13 13 12 12 11 10 10 9 9 7
22 22 21 21 21 22 21 23 21 20 20 20 20 20 20 20 19 20 18 17 16 16 16 16 15 16 16 17 16 15 14 14 13 14 13 13 13 13 13 12 12 12 11 11 10 9 9 8 8
23 21 22 21 21 20 20 22 23 19 21 21 21 21 21 20 20 20 19 19 17 16 16 16 15 16 16 16 15 15 15 14 14 14 13 13 12 12 12 12 12 11 11 10 9 9 9 9 8
21 21 20 19 20 21 20 21 23 22 23 24 23 22 21 21 20 20 19 19 18 16 16 16 15 15 14 16 16 15 15 15 13 13 12 12 12 11 11 11 11 11 10 9 9 9 8 8 7
21 22 21 21 20 20 19 20 23 24 22 22 22 22 22 21 21 20 19 18 18 16 15 15 15 15 14 15 15 15 15 15 14 14 13 12 12 11 11 10 10 10 9 8 8 8 7 7 7
21 22 20 20 19 21 18 20 24 23 22 21 21 20 20 21 21 20 20 19 18 16 16 15 15 15 14 14 15 15 14 14 13 13 12 12 11 10 10 10 10 9 9 8 8 7 7 7 6
20 21 20 17 15 18 20 20 22 22 23 21 21 20 20 19 19 19 20 19 18 17 16 16 15 15 14 14 15 15 14 14 13 12 12 11 11 10 10 9 9 9 7 8 7 6 7 6 6
21 20 20 18 19 19 20 19 22 23 23 22 21 21 21 19 18 17 18 18 17 17 16 15 15 16 15 14 14 14 13 13 11 11 11 10 9 10 9 9 8 7 7 7 7 7 7 6 5
20 20 18 19 18 20 20 21 21 22 22 23 22 20 19 19 19 18 17 17 17 16 16 15 15 15 15 13 14 14 13 12 11 10 9 9 10 9 8 9 7 7 7 6 7 7 6 6 5
20 20 19 19 19 16 16 19 21 21 20 20 21 20 19 19 19 18 17 16 15 15 15 15 14 14 13 14 14 12 12 10 10 9 10 10 10 8 9 8 8 7 7 7 6 6 6 5 4

GFSSGP_925_temp_030.txt.gz
Temp
20 20 22 25 26 27 27 28 28 28 28 26 27 28 30 28 28 27 21 20 21 21 20 18 17 17 18 19 19 19 19 19 19 18 18 18 18 18 18 18 18 18 18 18 17 17 17 18 18
21 22 24 27 26 27 28 28 28 28 27 26 25 26 26 22 23 20 18 19 20 20 20 19 18 18 18 19 19 18 18 18 17 17 18 18 18 18 18 18 18 18 18 17 17 17 18 18 18
21 22 27 27 27 27 28 27 27 27 26 27 26 23 18 21 21 21 20 19 19 20 19 19 18 19 19 19 19 18 17 16 16 17 18 18 18 18 18 18 18 18 18 17 17 18 18 18 18
23 26 26 26 26 27 27 28 27 27 27 27 27 24 19 17 19 20 19 18 18 19 19 18 18 18 18 18 17 17 17 16 17 17 17 18 18 18 18 18 18 18 17 18 18 18 18 18 18
24 26 26 26 26 27 27 27 25 26 27 26 26 23 22 17 17 19 18 17 18 18 18 17 18 17 17 17 17 16 17 17 17 16 17 18 18 18 17 18 18 19 19 19 18 18 18 18 17
26 26 26 26 26 27 27 26 25 25 25 25 26 25 21 16 16 16 17 17 17 17 17 16 17 16 16 16 16 17 17 17 17 17 17 18 17 18 18 18 18 19 19 18 18 18 18 17 17
25 26 26 26 26 27 26 25 25 24 25 25 25 24 19 16 15 16 17 17 16 16 16 15 15 15 15 16 17 17 16 17 17 18 17 17 18 18 18 18 18 18 18 18 18 17 17 17 17
26 26 26 26 26 26 26 25 24 24 25 24 24 23 19 15 14 15 15 15 15 15 15 15 15 15 16 16 16 17 17 17 17 18 17 17 18 18 17 18 18 18 18 18 17 17 17 17 16
25 26 26 26 26 26 26 25 25 23 23 23 22 23 17 14 14 14 14 13 13 13 13 13 13 13 15 15 16 16 16 17 17 18 18 18 17 18 18 17 17 17 17 17 17 17 17 16 16
26 26 26 27 27 27 26 25 25 24 23 22 19 15 14 14 15 15 14 13 12 12 11 12 12 12 12 12 14 15 15 16 16 17 16 17 17 18 18 16 17 17 17 17 17 17 17 16 17
26 26 27 27 26 27 23 23 24 25 25 24 19 16 15 15 15 15 14 13 12 12 11 11 12 12 13 14 15 14 15 17 17 17 17 16 16 16 17 16 16 16 16 16 16 16 16 15 16
25 27 26 27 26 25 24 24 22 23 22 22 19 16 15 16 16 15 14 12 12 12 11 11 12 14 14 14 15 15 15 16 16 17 16 16 17 17 17 17 17 16 16 15 15 15 14 14 14
25 26 26 26 25 24 25 24 23 21 20 21 18 18 16 16 17 16 15 14 12 12 11 13 13 14 13 13 15 16 16 16 17 17 17 17 17 16 17 16 16 17 16 16 16 15 15 14 14
26 26 26 25 25 24 24 23 23 19 20 19 18 18 16 16 17 17 17 15 14 12 12 12 13 13 14 16 16 16 17 17 17 17 16 16 17 16 16 16 16 16 16 16 16 16 15 15 14
26 25 26 25 25 25 24 25 23 20 22 20 19 20 21 19 19 18 18 16 14 13 13 14 14 15 15 16 16 16 17 17 17 17 15 16 16 16 16 17 16 16 15 15 14 14 14 14 14
26 26 26 26 26 25 25 25 22 20 21 22 22 22 21 20 19 19 18 16 16 16 15 15 15 15 15 15 16 17 17 17 17 16 16 15 16 15 16 16 16 15 15 15 15 15 15 14 14
27 26 26 26 26 26 26 26 24 20 22 23 23 22 22 21 20 20 19 18 17 17 16 16 16 16 15 15 16 16 17 17 17 16 16 15 16 15 16 16 15 14 15 15 15 14 14 14 14
26 26 27 26 27 26 26 26 25 22 22 22 24 23 23 22 21 19 19 19 18 18 17 17 16 16 16 17 17 18 17 17 16 16 16 15 16 15 15 15 14 14 15 14 14 14 13 14 14
26 26 26 27 27 26 27 27 25 23 22 22 23 23 24 23 22 20 20 19 19 19 18 18 17 17 17 17 17 17 17 17 16 16 16 15 16 15 15 15 13 14 15 15 13 13 13 12 12
25 26 26 27 26 25 27 27 26 25 24 24 24 23 24 24 24 22 21 20 19 19 18 18 18 18 18 18 18 18 18 18 16 15 15 15 15 15 14 14 14 14 14 13 13 12 13 13 11
25 26 25 26 25 25 26 26 25 25 25 24 24 25 25 25 24 23 22 21 20 19 19 19 19 18 18 18 18 17 17 15 15 14 14 14 14 14 14 13 14 13 13 13 12 12 12 13 11
25 27 25 25 25 25 25 26 26 26 25 24 24 24 25 25 26 25 23 22 21 20 20 19 19 19 18 18 19 17 18 18 16 14 14 15 13 14 14 13 13 12 13 13 12 12 12 11 11
26 25 26 26 26 25 24 26 27 25 26 27 26 26 25 26 26 26 25 24 22 21 20 19 19 19 19 18 18 17 18 19 18 15 15 14 12 12 13 12 12 12 12 12 11 10 9 10 11
25 25 25 25 25 24 25 26 27 27 28 29 28 28 27 27 27 26 25 24 24 22 21 20 19 19 19 18 17 18 18 18 16 15 13 12 10 11 11 11 11 11 11 10 10 9 9 10 9
25 25 24 24 23 23 24 24 27 28 28 28 28 29 28 27 27 26 26 25 24 23 21 20 20 20 19 18 17 17 17 17 15 14 12 11 11 11 11 10 10 10 10 9 9 9 7 8 9
25 26 24 22 22 24 23 24 26 28 27 27 27 27 27 27 27 27 27 26 25 23 22 20 20 20 19 18 17 16 16 15 14 13 12 12 11 10 9 9 8 9 9 9 9 7 7 8 8
24 24 26 23 21 23 25 26 27 28 28 27 27 26 27 27 27 27 27 26 24 23 22 20 20 19 20 18 17 16 15 14 13 12 12 12 10 10 9 10 8 8 8 9 8 7 8 7 7
25 26 23 24 22 22 24 24 26 27 27 27 27 27 27 26 25 25 25 25 24 23 22 20 20 20 20 19 17 16 16 14 12 11 11 10 10 9 8 7 8 7 7 7 6 7 7 7 7
23 24 24 24 24 23 23 24 27 27 27 27 27 26 26 26 26 24 23 23 23 22 21 20 19 19 19 19 18 17 16 13 11 11 10 9 10 9 8 8 7 6 7 6 7 7 8 6 6
26 26 25 23 23 22 22 24 27 27 27 26 27 25 25 25 25 24 23 22 21 21 21 20 20 20 20 19 18 17 13 12 12 11 11 10 10 7 7 7 6 7 7 7 6 7 6 5 5

GFSSGP_925_temp_033.txt.gz
Temp
21 22 25 28 27 29 29 30 32 31 31 32 31 31 32 27 25 25 22 23 24 22 20 18 19 19 18 18 18 19 19 20 20 18 18 18 19 18 18 18 18 18 17 17 17 17 17 18 18
24 25 26 29 27 28 30 32 30 31 31 30 29 29 30 24 24 22 21 21 21 21 20 18 18 18 18 18 18 19 19 19 18 18 18 18 18 18 18 18 18 17 17 17 17 17 17 18 18
22 25 28 29 29 29 28 30 30 30 30 29 30 27 21 20 22 22 21 21 20 21 21 18 18 18 17 18 18 18 18 18 18 18 18 18 18 18 18 17 17 17 17 17 17 17 18 18 18
26 28 29 27 28 30 30 30 30 30 30 30 30 25 21 17 18 18 18 21 19 19 19 18 17 17 17 18 18 18 18 18 17 17 17 17 18 18 18 18 17 17 17 17 17 18 18 18 18
26 29 28 28 29 29 30 30 30 29 30 30 29 26 22 18 17 18 17 19 18 18 18 18 17 17 17 18 17 17 18 17 17 17 17 17 18 18 18 18 18 18 17 18 18 18 18 18 18
28 29 28 29 29 29 30 30 29 28 29 29 29 25 21 17 17 17 18 18 18 18 17 17 17 17 17 17 17 17 17 17 16 17 17 17 18 18 18 19 19 19 18 18 18 18 18 18 17
28 29 28 28 28 24 28 29 29 28 28 29 29 25 19 17 15 16 16 17 17 17 16 16 16 16 16 16 17 17 16 17 16 16 17 18 18 18 18 19 19 18 18 18 18 18 18 17 17
28 29 29 29 28 24 28 29 28 27 29 28 28 26 22 16 15 15 15 16 15 16 16 16 16 15 16 16 16 16 17 16 16 16 17 18 18 18 18 18 18 18 18 18 18 17 17 17 17
29 28 27 28 28 28 29 28 29 27 27 27 23 21 17 15 14 14 14 14 14 14 15 15 15 15 15 16 16 16 16 16 17 17 17 17 18 18 18 18 18 18 18 18 17 17 17 17 16
28 29 28 29 29 28 28 28 28 27 27 24 17 16 15 15 16 16 14 13 12 12 13 14 14 14 15 15 16 15 16 16 16 17 17 18 18 17 17 17 17 17 17 17 17 17 17 17 18
29 28 29 29 28 29 26 27 26 26 19 17 20 16 16 16 16 15 14 13 12 12 12 12 12 13 13 15 14 13 14 16 16 16 17 17 18 18 16 17 17 17 17 16 16 17 18 17 18
28 29 29 29 29 28 28 26 24 25 22 20 18 17 17 17 17 14 13 12 12 12 11 11 11 12 13 12 13 13 14 15 16 16 17 17 17 17 17 17 17 17 17 17 17 17 16 16 16
28 29 29 29 28 28 28 27 27 23 22 21 18 18 19 19 18 15 13 12 11 11 11 11 11 11 11 12 14 15 16 17 17 18 17 18 18 18 18 19 18 18 17 17 17 16 17 16 16
29 29 29 29 29 28 26 26 26 24 24 21 21 19 16 18 19 17 14 12 11 11 10 10 11 11 12 14 15 16 17 18 18 18 18 18 18 18 18 17 18 18 18 18 18 17 17 17 16
28 28 29 29 29 28 25 21 25 24 24 22 20 21 19 17 18 20 17 14 12 12 12 11 12 14 15 16 16 17 17 18 18 18 18 18 18 17 18 18 18 18 18 18 17 17 17 17 16
28 29 26 27 29 29 23 18 25 25 25 24 24 23 23 22 22 20 19 17 15 12 13 14 15 15 15 15 16 17 18 18 19 19 17 17 17 17 17 18 18 18 17 17 17 17 17 17 17
29 27 25 26 29 29 24 17 26 26 26 25 25 25 25 23 23 20 18 17 16 15 15 15 15 16 16 17 17 18 18 17 18 19 17 17 17 17 17 18 17 16 17 17 17 17 17 16 16
28 28 29 26 27 28 28 28 27 26 26 26 26 25 25 24 24 22 20 19 18 17 16 17 16 16 16 16 17 18 18 18 19 18 18 18 18 17 17 18 17 16 17 17 17 16 16 16 16
28 28 28 28 27 28 28 26 28 27 26 25 26 25 26 25 24 22 22 20 20 19 18 18 18 18 17 17 18 19 19 19 19 17 18 18 18 17 17 17 16 16 17 17 16 15 15 15 14
27 28 28 29 29 28 29 29 26 28 27 27 27 26 26 26 25 23 22 22 21 20 19 19 19 19 19 19 20 20 20 20 20 17 18 18 17 17 16 17 16 16 17 16 15 15 15 15 14
27 27 27 28 28 29 29 28 29 29 28 28 27 28 27 27 26 25 23 22 21 21 21 20 20 20 20 20 20 20 20 20 20 18 17 17 17 17 17 16 16 16 16 15 14 14 15 15 14
27 29 27 27 27 26 29 25 28 29 28 28 27 28 28 27 27 26 25 23 22 22 21 21 21 21 21 20 21 20 20 20 20 19 18 17 16 16 17 16 16 16 15 15 14 14 14 14 14
27 28 27 28 27 27 27 27 26 29 28 28 28 28 28 28 28 28 26 25 23 22 22 21 21 21 21 20 20 21 20 20 20 19 17 16 17 16 16 16 15 15 14 14 14 14 13 12 11
28 27 27 27 27 25 26 27 25 28 29 29 30 29 28 28 28 29 28 26 25 24 23 22 22 22 22 21 20 20 20 20 21 20 18 17 16 15 15 15 14 13 13 13 13 12 10 10 10
27 26 25 24 25 24 28 27 28 27 30 30 30 30 30 29 29 29 29 28 27 25 24 23 22 22 22 21 20 20 20 20 20 20 17 17 15 13 12 12 11 11 11 11 10 10 10 9 9
26 27 25 20 21 25 26 25 28 30 30 30 30 30 31 30 30 29 29 29 28 27 25 23 23 22 22 21 21 20 19 19 19 18 17 15 13 12 12 13 9 9 10 9 8 9 9 8 7
27 26 28 26 25 24 26 28 29 30 30 29 30 29 30 30 30 30 30 29 28 28 26 24 23 23 23 22 21 20 18 18 18 17 16 13 13 12 12 10 9 10 9 7 8 7 7 7 8
27 28 25 26 21 22 26 27 27 28 29 29 29 29 30 29 29 29 29 29 29 28 27 25 24 23 23 22 21 19 19 18 17 16 13 12 11 10 10 9 8 8 7 8 6 6 7 8 8
26 26 26 26 26 23 24 26 29 28 29 29 29 29 29 29 29 27 27 27 28 27 26 25 24 23 23 22 21 19 18 18 16 14 12 11 10 10 11 9 8 7 7 6 6 6 7 8 8
28 27 27 25 24 25 24 25 29 29 29 29 29 29 29 28 28 28 27 26 26 25 25 25 24 23 23 22 21 19 17 16 15 12 11 11 11 11 10 10 8 6 6 6 6 6 7 8 6

GFSSGP_925_temp_036.txt.gz
Temp
23 23 23 26 26 27 27 29 31 32 32 25 26 25 23 24 28 24 20 18 18 20 19 20 20 19 18 19 19 19 20 20 20 20 19 19 18 18 18 18 18 17 17 17 17 17 17 19 19
22 25 27 27 25 26 28 29 31 32 31 26 27 24 22 21 22 22 21 21 21 21 19 18 20 19 18 19 19 19 19 19 19 19 19 18 18 18 18 18 18 17 17 17 17 17 18 18 18
22 25 27 27 27 27 28 30 30 31 32 31 30 28 24 20 20 21 17 21 21 21 19 18 18 18 18 18 19 18 18 19 19 18 18 18 18 18 18 18 17 17 17 17 16 18 18 18 18
25 28 28 27 27 30 30 30 31 30 31 31 29 21 22 19 20 19 17 18 18 18 19 18 18 18 18 18 18 18 18 18 18 18 18 18 18 18 18 17 17 17 17 16 18 18 18 18 18
27 28 27 27 29 30 31 31 31 30 30 26 30 20 19 21 19 17 17 17 20 18 18 18 17 18 17 18 18 18 18 18 17 17 17 18 17 17 17 17 17 17 18 18 18 18 18 18 18
27 29 27 28 29 27 25 23 30 30 30 30 22 20 21 16 16 16 17 17 17 19 17 17 17 17 17 18 18 17 17 17 17 17 17 17 18 18 18 18 18 18 18 18 18 18 18 18 18
27 28 28 29 28 24 21 19 22 29 29 17 16 16 19 16 15 16 17 16 17 17 16 16 16 16 17 17 17 17 17 17 17 17 17 18 18 18 18 18 18 19 18 18 18 17 17 17 17
29 28 28 29 29 28 23 21 24 27 23 17 17 17 20 16 14 16 16 16 15 15 16 16 16 16 16 16 16 16 16 17 17 17 17 17 18 18 19 18 18 18 18 18 18 17 17 17 17
29 27 27 28 28 28 30 29 19 20 18 19 19 17 16 15 15 15 14 14 14 15 15 15 15 15 16 16 16 16 16 16 17 17 17 18 17 18 17 18 18 18 18 18 17 17 17 17 17
28 27 28 30 29 28 29 28 27 22 20 18 18 17 16 16 15 14 13 13 13 13 14 15 15 15 15 15 16 17 16 16 17 17 17 17 17 17 18 18 18 18 17 17 17 17 17 17 17
29 28 29 30 29 29 29 27 27 23 17 17 17 17 16 16 15 15 14 12 12 12 13 14 14 15 15 15 16 15 16 16 17 17 18 17 17 17 18 17 17 17 17 17 17 17 16 17 17
28 30 30 30 30 29 28 28 26 23 20 19 18 18 18 17 14 14 13 12 12 12 11 11 12 13 14 14 14 15 15 16 17 17 17 17 17 18 17 17 17 17 17 17 17 16 16 16 16
28 29 30 30 30 29 29 27 26 23 19 19 19 20 19 17 14 13 12 12 11 11 11 11 11 12 13 13 14 16 14 15 16 17 17 17 18 18 18 17 17 17 17 17 17 17 16 16 16
29 29 29 30 30 29 27 25 23 24 22 20 20 19 18 17 15 13 12 11 10 11 10 10 11 11 12 12 13 13 14 14 16 17 17 18 18 18 18 18 18 18 18 17 17 17 17 17 16
29 28 29 30 30 28 26 24 21 24 23 21 21 19 19 18 17 16 13 11 10 10 11 11 11 11 12 12 12 13 12 15 16 18 18 18 18 18 18 18 18 18 18 18 18 17 17 17 16
28 28 27 29 29 25 23 19 23 21 23 22 21 20 20 19 19 16 14 12 11 11 11 11 11 12 12 12 13 13 14 17 18 18 18 18 18 18 18 18 18 18 18 17 17 17 17 17 17
28 27 27 27 29 26 23 19 21 22 26 24 23 23 22 20 21 19 16 14 14 13 12 12 13 13 14 14 15 16 18 17 18 19 18 18 18 18 17 18 18 18 17 17 17 17 17 17 17
27 27 28 27 29 29 22 19 18 19 27 26 25 25 24 23 21 19 18 16 15 14 14 14 14 15 15 15 16 17 17 17 18 19 18 18 17 17 17 18 18 17 17 17 17 17 17 16 16
28 27 27 28 28 28 28 21 19 19 26 26 26 25 25 24 21 20 19 17 15 15 15 15 15 16 16 15 15 17 18 18 18 18 18 18 18 17 17 17 17 17 17 17 17 16 16 16 16
28 27 28 29 29 29 29 25 20 19 26 26 27 25 25 25 23 21 20 19 16 16 16 16 16 16 16 16 16 17 18 18 18 18 18 18 16 18 17 17 17 16 16 17 16 16 15 15 15
28 27 28 28 27 29 29 28 24 24 28 27 27 26 26 25 23 22 21 20 19 17 17 18 17 16 16 17 18 18 19 19 19 19 18 18 17 18 17 17 17 16 16 17 16 15 15 15 14
26 29 28 27 27 26 28 25 27 28 28 28 28 27 26 26 25 23 22 21 20 19 19 19 19 19 18 19 19 20 20 20 20 19 18 18 18 17 17 17 16 16 16 16 15 14 14 15 14
27 28 27 28 27 27 27 26 28 29 28 28 28 28 28 27 26 25 23 23 22 21 20 20 20 20 20 19 20 20 20 20 20 20 19 18 17 17 16 17 17 16 16 15 15 14 14 14 13
29 28 27 27 27 24 26 27 27 28 28 29 29 28 28 27 27 26 25 24 23 22 21 21 21 21 21 21 20 20 20 20 20 20 19 18 18 17 16 16 16 15 15 14 12 10 12 11 11
28 27 24 24 24 24 27 27 27 28 26 25 27 26 22 28 27 27 26 25 24 23 22 21 21 21 21 21 21 20 20 20 20 20 19 17 16 16 15 15 15 15 14 13 11 9 10 10 10
27 26 24 22 22 23 22 25 28 29 29 30 30 26 25 28 27 27 27 26 25 24 23 22 22 21 22 22 21 20 20 20 19 19 19 18 16 16 15 15 15 14 12 11 10 11 10 10 9
27 25 27 25 23 20 18 25 29 30 30 30 30 30 30 30 28 28 28 28 27 25 24 23 23 22 22 22 22 21 20 19 19 16 18 17 15 15 15 14 13 11 10 10 10 10 9 8 7
27 28 24 25 22 21 24 26 27 27 29 30 29 29 30 30 30 29 28 28 28 27 25 24 23 23 23 23 22 21 20 19 18 17 17 15 14 14 13 13 11 9 9 9 10 9 8 7 7
26 26 25 25 25 22 22 24 27 26 29 29 29 29 29 29 28 28 28 28 29 28 28 25 24 24 24 23 22 21 20 19 17 16 16 14 13 12 11 10 10 9 8 8 8 8 7 6 7
27 27 26 23 24 24 22 24 28 27 28 29 29 29 29 29 28 28 27 27 27 27 28 26 25 24 24 24 21 20 20 18 18 16 15 14 13 11 11 10 10 9 7 7 7 7 6 6 6

GFSSGP_925_temp_039.txt.gz
Temp
24 23 22 22 19 18 19 22 24 26 27 24 25 25 22 21 22 20 20 19 19 22 19 19 18 18 19 20 20 20 20 19 19 19 18 18 18 18 17 18 18 17 17 17 17 17 17 18 17
23 23 23 19 19 18 20 24 25 27 26 23 24 24 22 20 21 19 17 18 20 19 20 19 19 18 19 20 20 20 20 19 19 19 18 18 18 18 17 18 17 17 17 17 17 18 18 18 18
23 23 19 19 18 20 20 25 27 28 28 28 21 22 21 19 20 18 18 19 20 18 18 19 19 18 18 19 19 19 19 19 19 18 18 18 18 18 18 18 17 17 17 17 18 18 18 18 19
23 21 20 20 20 22 24 24 23 27 28 23 21 18 19 18 18 18 18 17 18 20 19 19 19 18 18 18 18 19 18 18 18 18 18 18 17 17 17 17 17 17 17 17 19 18 18 19 19
22 19 19 20 21 24 24 23 23 22 22 19 22 18 18 16 17 18 18 18 18 19 20 18 18 19 18 18 17 18 18 18 18 18 17 17 17 17 17 17 17 18 18 18 18 18 19 19 19
20 19 19 20 24 25 24 22 24 20 19 18 19 20 19 15 17 17 17 17 17 18 19 19 17 18 18 17 16 17 17 17 17 17 17 17 17 17 17 18 18 18 18 18 18 18 18 19 19
20 19 19 22 25 24 24 22 23 19 18 17 17 18 17 15 15 16 16 15 16 16 16 17 17 16 16 16 15 17 17 17 17 17 17 17 17 17 17 18 18 18 18 18 18 18 18 18 18
21 20 21 22 24 25 23 23 22 21 17 18 16 18 17 15 14 16 15 15 16 16 16 16 16 16 15 16 16 16 17 17 17 18 17 17 17 17 18 18 18 18 18 18 18 18 18 18 18
24 20 20 24 25 24 26 24 19 19 17 19 17 18 16 15 14 15 14 15 15 15 16 16 15 15 15 15 16 16 17 17 17 17 18 18 17 18 18 18 18 18 18 18 17 18 17 18 17
22 19 22 26 26 25 26 25 20 21 20 18 16 15 15 14 14 14 14 14 14 15 15 14 14 14 14 14 16 16 16 17 17 17 18 17 18 18 18 18 18 17 18 18 17 17 17 17 17
23 22 24 27 27 27 25 24 23 19 19 18 17 16 15 15 15 13 13 13 13 14 14 14 14 13 13 14 15 16 16 17 17 18 18 18 18 19 18 17 17 17 17 17 17 16 16 16 16
25 25 26 27 27 28 26 23 19 18 18 18 16 16 16 15 15 13 12 12 11 12 13 14 14 14 15 14 15 16 16 17 17 17 17 18 18 17 18 17 17 17 17 17 17 16 16 16 17
26 26 26 26 27 27 24 21 19 17 17 17 17 18 16 15 14 13 12 12 11 11 11 12 13 14 14 15 15 15 16 16 17 17 17 18 18 18 17 18 17 17 17 17 16 16 16 16 16
26 26 26 26 26 27 24 21 21 18 17 17 19 17 15 15 14 12 11 11 11 11 11 11 12 13 14 13 13 14 15 17 17 17 18 18 17 18 18 17 17 18 17 17 17 17 16 16 16
25 24 25 25 26 24 23 22 19 20 19 18 18 17 16 14 13 13 11 11 11 11 11 11 11 12 13 14 14 14 16 17 17 17 18 18 17 17 17 17 17 17 17 17 17 17 16 16 16
23 23 23 25 24 23 24 22 20 18 21 18 17 18 17 15 15 13 12 11 10 11 11 11 11 12 13 13 13 15 16 17 17 17 17 17 17 18 18 18 18 18 18 17 17 17 17 16 16
22 21 22 24 26 22 22 21 21 19 20 19 18 18 17 17 14 13 12 11 10 10 10 11 12 12 12 12 13 14 14 16 16 18 17 18 18 18 18 18 18 18 18 17 17 17 17 16 16
21 23 24 25 26 23 20 19 20 20 18 20 19 18 18 18 15 14 12 12 11 11 10 11 12 13 13 13 14 14 15 15 16 17 18 18 18 18 18 18 17 18 18 17 17 17 16 16 16
24 24 24 25 26 24 21 19 20 21 19 20 20 20 19 18 16 14 13 13 12 12 11 11 11 12 12 12 13 13 13 15 17 17 17 18 18 18 17 18 17 18 17 17 17 17 17 16 16
25 24 24 26 27 26 21 19 20 19 20 21 21 20 19 19 17 16 15 13 13 13 13 12 12 13 13 13 14 14 15 17 18 18 18 18 18 17 17 17 17 17 17 17 17 16 16 16 15
25 24 25 25 26 26 24 19 19 20 20 22 22 22 20 18 17 17 15 14 14 14 14 14 14 15 15 15 15 16 16 17 17 18 18 18 17 17 17 17 17 17 17 17 16 16 16 15 15
24 26 26 26 24 22 25 21 19 20 22 22 23 22 20 18 19 18 17 15 14 15 15 15 15 15 15 15 15 15 15 16 17 18 18 18 18 18 17 16 17 16 16 16 16 16 15 15 14
24 25 26 25 23 24 23 22 23 22 22 23 22 22 21 20 19 19 18 17 15 15 15 15 15 15 16 16 16 15 16 17 18 18 18 18 18 18 17 16 16 16 16 16 16 15 15 14 12
26 26 26 25 22 19 22 23 21 22 23 24 23 23 22 21 21 20 19 19 17 16 16 16 16 16 16 16 16 17 17 18 19 19 18 19 18 17 17 16 16 16 16 15 15 14 13 13 11
24 24 20 20 18 17 22 22 22 23 24 25 25 24 23 23 22 21 20 20 19 18 17 17 17 17 17 17 17 17 18 19 20 20 19 19 18 18 18 16 16 16 16 15 15 14 12 11 10
24 23 18 20 17 20 21 21 23 24 23 25 26 26 24 22 23 22 21 21 21 19 19 18 18 18 18 18 18 18 18 19 19 20 20 19 19 17 17 16 16 16 15 15 14 13 11 10 10
24 22 23 21 20 18 18 22 23 24 24 24 24 23 21 21 21 23 23 22 22 21 20 19 19 19 20 19 19 19 19 19 19 19 19 19 19 16 15 16 15 15 15 14 13 12 10 10 10
24 25 22 20 18 18 19 20 22 24 25 25 24 22 22 22 22 23 23 23 23 22 21 20 20 20 20 20 20 20 20 19 20 19 19 19 17 16 15 13 14 14 12 12 11 10 9 9 9
23 23 23 22 20 18 17 19 22 23 24 25 24 24 23 23 22 21 20 23 24 24 22 21 20 20 19 20 20 20 20 20 20 19 17 16 15 14 13 13 12 12 11 11 9 9 8 8 8
24 24 23 17 20 20 17 20 24 24 24 26 25 25 23 23 23 23 22 23 24 24 24 22 20 18 21 20 19 20 17 16 15 15 15 15 13 13 13 13 12 11 10 10 8 8 7 8 7

GFSSGP_925_temp_042.txt.gz
Temp
23 22 22 21 18 15 17 19 22 22 24 24 23 23 21 20 21 20 17 19 19 18 18 19 18 18 19 20 21 20 19 19 19 19 18 18 18 18 18 18 18 17 17 17 17 16 16 15 15
23 23 21 16 17 16 17 20 23 23 24 22 22 22 20 19 20 17 17 17 17 18 18 18 17 17 19 19 19 19 19 18 18 18 18 18 18 18 18 18 18 18 17 17 16 16 16 17 17
22 22 18 16 14 16 18 21 22 22 21 22 21 19 19 18 18 17 17 17 17 17 18 17 19 17 17 17 19 17 17 17 17 18 17 17 18 18 18 18 18 18 17 17 16 17 18 17 18
22 19 17 18 18 19 22 22 22 20 20 20 19 19 18 16 16 17 18 18 18 17 18 17 18 17 17 17 17 17 16 17 17 17 17 17 18 18 18 18 18 18 17 18 18 18 18 18 18
21 16 17 18 19 21 23 22 20 19 20 19 20 18 18 17 16 16 17 18 18 18 20 18 17 16 16 16 16 17 17 17 17 17 17 17 18 18 17 18 18 18 18 18 18 18 18 17 16
18 16 17 17 19 22 24 21 19 20 20 19 19 19 18 16 16 16 17 17 17 17 18 19 17 16 16 16 17 17 17 17 17 17 17 17 18 17 18 18 18 18 18 18 18 18 18 17 17
19 17 17 19 20 24 24 21 20 20 20 18 18 19 17 16 15 16 16 16 16 16 17 16 17 18 16 14 16 17 17 17 17 17 17 17 17 18 18 18 18 18 18 18 18 18 18 17 17
18 18 20 19 21 24 24 22 20 19 18 18 17 18 17 16 15 16 15 15 16 16 16 16 16 15 14 13 16 18 18 17 17 17 17 17 18 18 18 18 18 18 18 18 18 18 18 17 17
20 18 17 20 23 24 24 22 18 18 18 18 17 17 15 15 14 15 15 15 15 15 16 15 15 14 14 14 16 17 17 17 17 17 17 17 17 18 18 18 18 18 18 18 18 17 18 17 17
19 16 20 21 25 25 22 22 19 19 18 17 17 16 15 15 14 14 15 14 15 15 14 14 17 14 14 14 16 17 17 17 17 17 17 17 18 18 18 18 18 18 18 17 17 17 17 17 16
21 20 23 24 24 24 20 20 20 18 18 17 16 16 16 15 14 14 13 14 14 14 14 14 13 13 14 16 17 17 17 17 17 17 18 18 18 18 18 17 18 18 17 17 17 16 17 16 16
23 23 23 24 25 25 22 20 18 18 18 17 15 16 15 15 14 13 13 12 13 13 13 13 12 12 13 14 16 17 17 17 17 17 18 18 18 18 18 18 17 17 17 17 16 16 16 16 16
23 23 24 25 24 21 22 20 18 17 16 16 16 16 16 15 14 13 12 11 12 13 13 13 13 13 13 14 16 16 17 17 17 18 18 18 18 18 18 18 17 17 17 17 16 16 16 16 16
23 22 23 25 25 20 19 18 19 17 16 15 17 15 15 15 14 12 12 11 11 11 12 13 13 13 14 15 16 16 16 17 17 17 18 18 19 18 18 18 17 17 17 17 17 16 16 16 16
23 23 22 24 25 22 20 20 19 18 17 16 15 15 14 14 13 13 12 11 11 11 11 11 12 13 14 15 16 16 16 16 17 17 17 18 18 18 18 17 17 17 17 17 16 16 16 16 15
22 22 22 23 23 22 22 21 19 17 18 16 15 15 14 13 13 13 11 11 11 11 11 11 12 12 14 14 15 16 17 17 17 17 17 17 17 17 17 17 17 17 17 17 17 17 16 16 16
20 19 21 21 23 22 22 21 19 17 19 17 16 15 14 13 12 13 12 11 11 11 11 11 11 12 14 14 15 16 16 17 18 18 19 17 17 17 17 17 17 17 17 17 17 17 16 16 16
19 20 21 20 22 22 20 20 18 17 19 18 15 15 15 14 13 12 12 11 11 11 11 11 11 12 13 13 13 15 15 16 18 18 18 17 17 17 18 17 17 17 17 17 17 17 16 16 16
21 20 20 22 23 23 20 20 18 17 18 17 16 16 16 15 14 12 11 11 10 11 10 11 11 12 12 12 13 12 14 16 17 18 18 17 17 17 17 17 17 17 17 17 17 17 16 16 16
21 21 21 22 25 23 20 20 19 17 18 17 18 17 16 15 13 12 11 11 11 10 10 10 11 12 12 12 12 13 14 15 16 17 17 17 17 18 17 17 17 17 17 17 17 17 16 16 15
21 21 21 22 25 23 20 20 20 20 19 19 19 19 18 16 14 13 12 11 11 10 10 10 11 11 12 12 12 13 13 15 15 16 17 17 17 17 17 17 17 17 17 17 17 17 16 15 14
21 23 23 23 22 21 21 19 18 19 19 20 19 19 18 16 15 14 13 12 11 11 11 11 11 11 12 12 13 13 13 14 14 15 16 17 17 17 17 17 17 17 17 17 17 16 16 16 15
22 23 23 24 23 22 22 20 20 20 20 20 19 20 19 17 16 15 14 13 13 12 12 12 12 12 12 13 13 13 14 15 15 16 17 18 18 18 17 17 17 17 16 17 16 16 15 16 15
24 24 24 22 20 19 21 20 19 19 22 22 21 21 19 18 17 16 15 14 13 13 13 13 13 13 14 14 14 14 14 14 15 16 16 17 18 18 18 17 17 16 16 15 15 15 15 15 15
23 21 19 19 18 17 21 21 20 23 22 22 22 21 21 18 17 17 16 15 14 14 14 14 14 14 14 14 14 14 15 15 15 16 16 16 16 17 18 17 16 16 15 15 15 14 14 14 14
21 20 17 19 16 19 20 20 21 24 23 23 24 23 22 20 19 18 17 16 15 15 14 14 14 15 15 15 15 15 15 15 15 16 16 16 17 18 18 17 16 16 15 15 14 14 14 14 13
22 20 21 20 18 17 18 20 21 22 23 22 22 23 23 21 20 19 18 18 17 16 15 15 15 15 15 15 15 15 15 15 15 16 16 16 18 19 17 18 17 16 14 13 13 14 14 13 12
23 23 21 17 18 18 19 19 20 22 24 24 23 22 22 20 21 20 20 19 19 18 17 16 16 16 16 16 16 16 16 16 16 16 17 16 17 16 15 15 16 15 14 12 12 12 12 11 10
22 21 21 20 17 17 17 18 19 21 23 25 24 23 22 20 20 21 20 20 20 19 18 17 16 17 17 17 17 17 17 17 16 15 15 15 14 15 15 14 14 13 12 11 11 11 11 10 9
22 23 21 18 19 17 15 20 21 22 20 23 23 24 21 21 20 20 20 21 21 20 20 19 18 17 17 17 17 17 17 17 15 15 15 14 14 14 13 12 12 12 12 11 10 10 9 8 7

GFSSGP_925_temp_045.txt.gz
Temp
21 21 21 20 17 14 16 18 20 20 23 21 21 21 18 18 19 21 17 17 18 18 19 20 20 20 19 18 18 20 20 17 18 17 17 17 17 17 17 17 17 17 17 17 16 16 16 15 16
21 21 21 15 16 15 17 18 21 19 19 21 21 20 19 18 19 17 17 17 17 17 18 18 19 19 18 18 17 17 21 18 17 17 17 17 17 17 17 17 17 16 16 16 16 16 15 15 15
22 22 17 15 13 16 17 20 21 21 20 20 20 18 19 18 18 17 17 17 17 17 18 18 18 18 17 16 16 17 18 17 17 17 16 17 17 17 17 17 17 16 16 16 16 16 17 16 16
22 18 15 17 18 18 20 20 21 20 21 20 18 18 17 17 17 18 18 18 17 17 17 16 17 19 18 18 16 17 18 17 17 17 17 17 18 18 18 17 16 16 16 16 16 18 17 16 16
20 15 16 17 17 19 20 22 21 19 20 20 19 20 17 16 17 17 17 16 18 17 17 17 17 18 17 15 15 17 20 17 17 16 17 17 18 18 17 17 16 16 16 16 17 17 16 16 16
17 15 16 17 18 20 22 21 19 20 20 19 19 19 17 15 15 16 16 16 16 17 18 17 17 17 15 14 14 16 18 17 17 16 17 17 18 18 18 18 17 17 17 17 17 17 16 16 16
17 16 17 18 19 21 22 19 20 19 19 18 17 18 16 15 15 16 15 16 16 17 17 17 16 15 16 15 13 15 18 17 17 16 17 17 18 18 18 18 18 18 17 17 17 16 16 16 16
16 16 19 18 19 20 22 20 19 19 19 18 16 18 16 15 15 15 14 15 16 16 16 16 16 15 15 15 15 16 18 17 17 17 16 17 18 18 18 18 18 18 17 17 17 17 17 17 16
17 17 16 19 21 23 22 21 18 18 17 17 16 16 15 14 15 15 15 15 15 15 15 15 15 15 15 14 14 15 18 17 17 17 17 17 17 18 18 18 18 18 18 17 16 17 17 17 16
18 16 19 20 22 23 22 21 18 18 18 17 16 16 15 15 15 15 14 15 15 14 14 15 14 13 12 12 14 16 17 17 17 17 17 17 18 18 18 18 18 18 18 18 17 17 17 16 16
19 19 20 22 21 22 20 19 19 18 18 17 16 15 15 15 14 14 14 14 14 14 14 13 15 15 13 12 13 14 15 17 17 17 17 17 18 18 18 17 18 17 17 17 17 17 16 16 16
22 20 21 21 23 20 19 18 18 18 19 17 16 15 14 14 14 13 13 13 14 14 13 14 13 13 13 13 13 13 15 17 17 17 17 18 18 18 17 17 17 17 17 17 17 17 16 16 16
21 22 22 21 22 21 20 19 19 17 16 15 15 15 15 14 14 13 13 12 13 13 13 13 14 13 13 12 13 15 15 18 18 17 18 18 18 17 17 18 17 17 17 17 16 16 16 16 15
22 22 20 21 21 21 19 18 18 17 15 15 15 15 15 15 14 13 12 12 12 12 13 13 13 13 13 13 14 15 16 17 16 17 18 18 18 18 17 17 17 17 17 17 16 16 16 15 15
23 22 20 22 21 21 18 19 17 17 15 15 15 16 15 15 14 13 12 12 12 11 12 12 12 12 13 14 15 16 17 17 17 18 18 18 18 18 18 17 17 17 17 16 16 16 16 16 15
21 21 20 22 22 21 21 20 19 16 15 15 14 14 14 14 14 13 12 11 11 12 12 12 12 13 12 14 14 16 16 17 17 17 17 18 18 18 18 17 17 17 17 17 16 16 16 16 15
18 18 20 21 22 21 20 20 18 15 16 15 14 14 13 12 12 12 12 11 11 11 11 11 12 12 12 13 15 15 16 16 16 17 17 17 17 17 18 17 17 17 17 17 16 16 16 16 15
18 19 20 20 21 21 20 20 17 16 17 16 14 14 13 13 13 13 12 11 11 11 11 11 12 13 12 13 14 15 15 15 16 17 16 17 16 17 17 17 17 17 17 17 16 16 16 16 16
20 20 19 19 20 22 20 19 18 16 16 15 14 13 14 13 12 12 13 11 11 11 11 11 11 11 11 12 14 14 14 15 15 16 16 16 16 17 16 17 17 17 17 17 16 16 16 16 15
19 19 18 19 21 20 20 19 18 16 17 17 16 14 14 14 12 11 11 11 10 10 11 11 11 11 12 13 14 13 14 15 16 17 18 17 17 17 17 17 17 17 17 16 16 16 16 15 14
19 18 19 20 21 21 20 20 18 18 17 17 17 17 16 15 13 12 11 10 10 10 10 11 11 11 12 12 12 13 13 14 15 17 17 16 17 17 17 17 17 17 17 17 17 16 16 15 14
18 20 20 20 21 19 20 18 20 18 17 18 18 17 16 16 14 13 11 10 10 10 11 11 11 11 12 12 12 13 13 14 14 15 16 17 17 17 17 17 17 17 16 17 17 16 16 16 15
19 21 20 20 19 20 21 18 19 18 18 18 18 18 17 16 16 14 12 12 10 10 11 11 11 12 12 12 12 12 12 13 14 15 15 15 16 17 17 17 17 17 16 16 16 16 15 15 15
21 21 21 20 18 18 20 19 18 19 20 21 20 19 18 17 16 16 14 13 11 11 11 11 10 11 11 11 12 12 12 13 13 14 14 15 16 17 17 17 17 17 17 16 16 16 15 15 14
20 20 17 18 17 17 20 18 18 20 20 20 20 20 19 18 16 16 14 13 12 11 11 11 11 11 11 11 12 12 12 13 13 14 14 15 16 16 17 17 17 17 17 15 15 15 14 14 14
19 19 16 18 16 18 19 18 20 20 21 21 20 21 19 18 17 16 15 15 14 12 12 12 12 12 12 12 12 12 12 13 13 14 14 15 15 16 17 17 17 17 16 14 14 13 12 13 13
19 18 19 18 16 16 17 19 20 21 21 20 20 19 18 18 17 16 16 15 15 14 13 12 13 13 13 13 13 13 13 13 13 14 14 14 15 15 16 16 15 15 15 14 13 13 13 12 13
21 20 19 16 18 17 18 18 19 22 22 23 20 19 19 19 18 17 17 16 15 15 14 14 14 14 14 14 13 13 13 14 14 14 14 14 15 15 15 15 14 14 14 13 13 12 12 11 11
20 19 19 19 16 19 18 17 17 21 20 21 20 20 19 18 19 18 18 18 17 16 15 14 14 14 14 14 14 14 14 14 14 14 14 14 14 15 15 14 14 14 13 12 12 11 11 10 10
20 20 19 18 18 15 14 20 21 19 19 19 19 20 19 18 18 19 19 18 18 17 16 15 14 14 15 14 14 14 14 14 14 15 14 14 14 15 13 13 13 14 11 12 11 11 10 10 10

GFSSGP_925_temp_048.txt.gz
Temp
21 21 21 19 17 14 17 18 18 19 20 19 19 20 19 19 21 21 17 18 18 18 18 18 19 19 20 20 20 21 20 19 18 17 17 17 17 17 17 17 17 17 17 17 16 16 16 15 15
21 20 20 14 15 15 17 17 19 19 19 19 20 19 19 19 18 17 16 17 18 18 18 19 19 19 19 19 18 20 19 17 17 17 17 17 17 17 16 16 17 17 17 17 16 16 15 15 14
21 20 17 13 12 16 17 18 20 21 20 20 20 18 18 18 18 17 17 17 17 17 19 18 19 18 18 18 18 18 19 19 18 17 17 17 16 16 16 16 16 17 16 16 16 16 15 15 15
20 17 14 16 18 17 19 20 19 20 21 19 18 19 17 17 17 16 17 16 17 17 18 18 18 18 18 18 17 18 18 18 17 17 17 16 16 16 16 16 16 16 16 16 16 15 15 16 16
19 14 15 17 17 18 18 19 19 20 20 20 18 19 17 17 16 16 16 16 16 17 17 17 18 18 18 18 17 17 17 17 18 17 17 16 16 16 16 16 16 16 16 16 15 16 16 16 16
16 14 16 17 18 19 19 20 19 20 20 19 19 18 17 15 16 16 15 16 16 16 16 17 17 17 18 18 18 18 17 17 20 17 16 16 16 16 16 16 16 17 18 17 17 16 16 16 16
16 15 17 18 18 19 21 18 20 20 19 19 17 18 16 15 15 15 15 15 16 16 15 17 16 16 16 16 16 17 17 17 17 17 16 16 16 16 16 16 17 17 17 16 16 16 16 16 16
14 15 18 17 18 20 21 20 19 19 19 17 16 17 17 15 14 15 15 15 16 16 16 16 16 15 15 15 17 17 17 17 18 17 16 16 16 16 17 17 17 17 16 16 16 16 16 16 16
16 16 16 19 19 21 19 20 18 18 17 17 16 16 16 16 15 15 15 15 15 15 15 15 15 15 15 15 16 15 16 17 17 16 16 16 17 17 17 17 17 17 17 17 17 16 16 16 15
17 15 17 18 19 21 22 20 19 18 17 17 15 15 15 15 15 15 15 15 14 15 15 15 15 14 13 13 15 16 16 17 16 16 16 17 17 17 17 17 17 17 17 17 17 16 16 16 15
17 18 19 20 19 19 20 19 18 18 18 17 16 15 15 15 14 14 14 14 14 14 15 15 14 14 13 13 13 14 15 16 17 17 17 17 17 17 17 17 16 16 17 17 17 16 16 16 16
20 19 20 21 22 20 19 18 18 17 19 17 16 14 15 15 15 14 14 14 13 13 13 13 13 13 13 13 13 15 15 15 16 17 17 17 17 17 17 17 16 17 16 16 16 16 16 16 15
20 21 21 20 19 19 18 19 19 16 16 15 14 14 14 15 14 13 13 14 14 13 13 13 12 12 12 12 13 13 14 14 16 17 17 17 17 17 17 17 17 17 17 17 17 16 16 16 15
21 21 20 20 22 20 19 18 17 17 15 14 14 16 14 14 14 13 12 12 13 13 13 13 12 12 11 11 12 12 13 15 16 16 17 17 17 17 17 17 17 17 17 17 17 17 16 15 15
22 21 20 21 22 21 19 19 16 16 14 14 14 16 16 15 14 14 13 12 12 13 13 13 13 12 12 12 12 12 13 13 14 16 17 17 17 17 17 17 17 17 17 17 16 16 16 15 15
21 19 19 21 20 20 20 19 19 14 15 14 14 16 15 15 15 13 12 12 12 12 12 13 12 12 12 12 13 12 13 13 14 16 16 17 17 17 17 17 17 17 16 16 16 16 15 15 15
17 18 19 20 21 20 19 19 18 14 15 15 14 14 14 15 14 13 12 12 12 12 12 12 12 12 13 12 13 13 13 14 15 17 16 16 17 17 17 17 17 17 16 16 16 15 15 15 15
17 17 17 19 21 20 18 18 17 15 15 15 14 13 13 13 14 13 12 11 11 11 12 12 12 12 12 12 12 14 14 15 17 16 16 16 16 17 17 17 17 17 16 16 16 16 15 15 15
18 19 19 18 19 21 19 18 20 15 15 15 14 13 13 12 12 13 13 11 11 11 11 11 12 11 12 12 12 14 14 15 16 16 15 16 16 16 17 16 16 17 16 16 16 15 15 15 14
19 18 17 18 19 19 18 18 17 15 15 16 15 14 13 12 12 12 13 11 11 11 11 11 12 12 11 12 12 13 14 14 16 15 15 16 16 16 16 17 16 16 15 16 16 16 15 14 14
17 17 17 18 18 20 19 19 19 18 16 16 15 15 14 13 12 12 12 11 11 10 11 11 11 12 12 12 12 13 14 15 15 14 15 15 16 17 16 16 16 16 16 16 16 16 15 15 14
17 17 19 18 18 18 20 17 19 19 17 16 16 15 15 14 13 12 12 12 11 10 11 11 11 11 12 12 13 13 14 14 15 15 15 15 16 17 17 16 16 17 16 16 16 16 15 15 15
18 18 18 19 17 18 19 17 18 18 19 18 17 17 16 15 14 12 11 11 10 10 10 11 11 11 11 12 12 13 13 14 15 14 15 16 16 16 17 16 16 16 16 16 16 16 15 15 15
20 20 19 18 16 16 18 17 17 18 20 21 19 17 17 16 15 14 13 11 10 10 10 10 11 11 11 12 13 13 13 13 13 14 15 16 16 16 17 16 16 17 16 16 16 16 15 15 14
19 18 17 17 15 16 18 16 19 20 19 20 21 19 17 16 15 14 12 11 10 9 10 10 10 10 11 11 11 12 12 13 12 13 13 14 15 16 16 16 16 17 16 16 16 15 14 13 13
17 17 15 17 15 18 17 17 19 19 20 20 19 19 18 15 16 15 13 12 11 10 10 10 10 10 11 11 11 11 12 12 12 13 13 13 14 15 15 15 16 17 16 16 15 14 13 12 12
18 17 19 17 16 15 16 18 19 21 20 19 19 19 17 15 15 15 15 13 12 11 11 11 10 10 11 11 11 11 11 11 11 12 12 13 13 14 14 15 16 17 16 15 14 13 13 11 12
19 19 17 15 17 17 16 17 18 21 21 20 19 19 18 16 15 15 15 15 13 12 12 12 12 12 11 11 11 11 11 11 11 12 12 13 13 14 15 16 16 15 15 14 13 13 14 12 12
18 18 18 17 15 16 16 16 17 20 20 21 20 19 17 16 16 16 15 15 15 14 13 12 12 12 12 12 12 12 12 12 12 13 13 14 15 15 15 15 15 15 14 13 13 12 12 11 10
19 19 17 15 17 14 13 18 21 18 19 18 19 19 19 17 16 16 16 16 15 15 14 13 12 12 13 12 12 12 13 12 12 12 13 17 13 13 14 14 15 15 12 12 12 12 12 11 10

GFSSGP_925_temp_054.txt.gz
Temp
20 21 22 25 27 29 28 28 28 28 28 28 27 27 28 28 27 27 21 18 19 21 20 19 19 20 20 20 20 20 19 18 18 18 18 18 18 18 18 18 18 17 17 17 17 16 16 15 15
21 21 24 27 28 29 29 28 28 29 28 27 26 26 26 27 25 25 22 19 18 20 20 20 19 20 19 19 18 19 18 18 18 18 18 18 18 18 18 18 17 17 17 17 17 16 16 15 15
21 22 28 28 28 29 29 28 28 28 27 27 27 26 25 26 24 23 19 18 18 20 21 20 19 19 19 18 18 18 18 18 18 18 18 17 17 18 17 17 17 17 17 16 16 16 15 15 15
24 26 27 27 28 29 29 29 29 28 28 27 27 26 25 23 22 20 19 18 17 18 20 20 18 19 20 18 18 18 18 18 18 18 17 17 17 17 17 17 17 17 17 17 16 15 14 15 15
25 27 27 27 28 28 28 29 28 28 27 27 26 27 25 23 20 19 19 18 17 18 19 19 18 19 20 19 18 18 18 18 18 17 17 17 17 17 17 17 17 17 16 15 15 14 15 15 15
27 27 27 28 28 28 29 29 28 27 27 27 26 26 26 21 20 19 17 18 18 17 18 18 18 19 20 19 19 18 18 18 17 17 17 17 17 17 17 17 17 16 16 15 14 14 15 15 15
27 27 28 28 28 28 28 27 27 28 27 27 25 25 25 23 20 19 17 17 17 16 17 17 17 18 19 19 18 18 18 18 18 17 17 17 17 17 17 16 16 16 16 16 16 15 15 15 15
27 27 27 27 28 28 28 27 27 27 28 23 24 26 26 22 19 17 17 18 17 16 16 16 17 17 17 17 17 18 18 18 18 17 18 17 17 16 17 17 17 16 16 16 16 15 15 15 14
26 26 27 28 27 28 28 27 28 26 26 24 24 24 23 20 19 18 19 18 17 16 15 15 15 16 17 17 16 17 17 17 17 17 17 17 16 16 17 17 16 16 16 16 16 16 15 14 14
26 27 28 28 28 28 28 28 28 26 27 25 24 22 20 20 20 19 20 19 17 15 16 15 15 15 15 16 16 16 16 15 16 16 16 16 16 16 17 16 16 16 16 16 16 15 15 15 14
26 26 28 27 27 28 28 28 27 27 27 27 25 24 21 21 20 19 19 18 18 16 15 15 15 14 15 15 14 14 14 15 15 15 16 16 16 17 16 15 15 15 15 15 15 14 16 16 16
25 26 27 27 27 27 27 28 27 27 27 24 24 23 22 21 21 19 18 17 16 15 15 15 15 14 14 13 13 14 14 14 14 13 14 15 16 16 17 17 17 16 16 16 16 16 17 16 16
25 27 27 27 27 27 27 27 27 27 26 23 22 22 21 21 20 18 16 16 15 14 14 14 14 14 14 13 13 13 14 14 14 14 15 15 16 17 17 17 17 18 18 17 17 17 16 16 16
27 27 27 27 27 27 25 28 24 27 25 23 22 21 20 19 18 18 16 14 16 14 13 14 13 13 13 13 13 13 13 14 13 14 15 16 16 16 17 17 17 17 17 17 17 17 16 17 16
26 25 26 27 27 27 27 27 26 28 24 24 23 22 20 20 19 18 17 16 14 15 13 13 13 13 13 12 13 13 12 13 13 15 15 16 15 16 16 17 18 17 17 17 17 16 17 17 17
25 25 26 28 27 27 26 26 29 26 24 25 24 22 21 21 20 20 17 15 13 13 13 13 12 12 12 12 12 12 13 13 13 13 14 14 15 15 16 17 17 17 17 17 17 16 17 17 17
25 25 25 27 27 27 25 26 28 25 24 26 24 24 23 22 20 19 17 16 13 13 13 12 12 12 12 12 12 12 12 13 13 14 14 16 16 16 16 17 16 16 17 17 17 16 17 17 17
25 25 26 26 27 26 26 26 28 27 25 24 26 25 24 22 22 20 16 16 14 13 13 13 12 12 12 12 12 12 12 12 13 14 14 14 15 15 16 17 16 16 17 16 16 16 16 17 17
26 25 26 27 26 25 26 27 28 28 26 25 26 25 24 23 22 20 17 14 14 14 13 13 12 12 12 12 12 12 11 12 14 14 13 14 15 15 16 17 16 16 17 17 16 16 16 16 16
24 24 25 26 25 25 27 27 28 28 27 27 26 26 25 24 22 20 18 16 14 15 13 12 12 12 12 12 12 12 12 12 12 13 13 14 14 15 16 17 16 16 17 16 15 15 16 17 15
24 23 24 25 24 25 25 26 28 29 27 26 26 26 26 25 23 21 19 18 16 15 14 12 12 12 12 12 12 12 11 12 12 13 14 14 15 16 16 16 16 16 16 16 15 15 16 17 15
23 24 24 24 23 25 26 25 28 28 29 27 27 26 26 25 24 23 21 19 17 17 15 13 12 12 12 12 12 11 12 12 12 13 14 15 15 15 16 15 15 15 16 16 16 15 15 16 17
23 24 23 24 24 24 25 24 27 28 27 29 29 28 27 26 25 23 22 20 18 17 16 15 13 12 12 12 12 12 12 12 12 13 13 14 15 15 15 15 15 15 16 15 15 15 15 16 16
24 23 23 23 24 22 24 25 26 28 28 29 30 30 28 26 25 24 22 20 19 18 16 15 14 13 12 12 12 12 13 13 14 13 13 13 14 14 14 15 15 16 15 15 16 15 15 15 15
23 22 22 22 22 22 25 24 26 28 28 29 29 30 28 27 25 24 23 22 20 18 17 16 14 13 12 12 12 13 13 14 15 14 14 14 14 14 15 14 14 14 14 15 15 16 15 15 15
22 23 23 21 22 24 23 23 26 28 28 28 29 29 28 26 25 25 24 22 20 19 17 15 15 15 14 12 12 14 14 14 15 15 15 15 15 15 15 15 14 15 15 15 15 15 15 15 15
22 21 24 23 21 22 25 25 26 28 28 28 28 29 29 28 26 25 25 23 21 19 17 15 15 16 16 14 14 14 14 15 15 16 16 16 17 17 16 15 15 15 15 15 15 15 15 15 15
22 24 21 22 20 21 24 24 25 26 27 28 29 28 29 30 28 27 25 23 21 20 18 15 15 17 17 16 16 15 15 15 15 15 15 16 16 16 15 15 14 15 15 15 15 15 15 15 15
21 22 22 24 23 22 22 24 26 26 25 25 27 28 29 28 28 27 25 24 22 21 19 17 16 17 17 16 16 16 15 15 15 15 15 15 15 15 15 15 15 15 15 15 15 15 15 15 15
23 23 23 21 22 22 21 24 26 24 24 25 26 26 27 28 28 27 25 24 22 21 20 19 17 17 17 17 16 15 15 15 15 15 15 14 15 15 15 15 15 15 16 16 15 15 15 15 15

GFSSGP_925_temp_057.txt.gz
Temp
22 22 24 28 28 30 32 32 32 31 31 31 31 30 30 30 30 28 25 22 22 23 23 20 19 19 19 19 19 19 21 20 18 19 19 19 18 18 18 18 18 18 17 17 17 17 16 16 16
23 25 26 29 29 31 33 32 31 32 31 30 30 30 30 29 30 29 27 23 22 24 22 21 19 19 19 19 19 19 18 19 19 18 18 19 18 18 18 18 18 18 17 17 17 16 16 15 16
23 26 28 30 30 31 32 32 31 31 31 30 30 30 29 29 29 27 23 21 21 22 22 22 20 19 20 19 19 19 19 18 18 18 18 18 18 18 18 17 17 17 17 17 17 16 15 15 16
26 28 29 29 30 32 31 32 32 31 31 31 30 29 30 27 26 25 22 21 21 21 23 21 20 20 20 19 19 19 19 19 18 18 18 18 17 17 17 18 17 17 17 17 16 15 15 16 16
27 30 29 30 31 33 32 32 31 31 30 30 30 29 29 28 24 23 22 21 21 20 22 21 21 20 19 19 19 19 19 18 18 18 18 18 17 17 17 17 17 17 16 16 15 15 15 16 16
28 30 29 30 32 32 32 32 31 30 30 30 29 29 29 25 25 23 20 20 21 19 19 20 19 20 20 19 18 18 19 18 18 18 18 18 17 17 17 17 17 16 16 16 15 15 15 15 16
28 30 29 31 31 32 31 31 30 30 30 30 29 28 29 27 24 23 21 19 20 19 18 18 18 18 19 19 18 16 18 18 18 18 18 18 17 17 16 17 16 16 16 15 15 15 15 15 15
29 30 29 31 30 31 32 30 31 30 30 29 29 28 29 26 23 21 21 21 21 19 17 17 17 17 18 18 18 16 17 18 18 17 17 17 17 17 16 16 16 17 16 16 15 15 15 15 15
30 28 29 31 31 31 31 29 32 31 30 30 29 28 27 24 23 22 22 21 21 19 16 16 16 16 17 17 17 16 16 17 17 17 18 17 17 17 17 16 16 16 16 16 15 15 15 15 15
28 28 29 32 32 31 31 30 31 31 30 30 29 29 25 23 23 23 23 21 19 19 16 16 16 17 16 15 16 15 16 15 17 17 17 16 17 17 17 16 16 16 16 16 15 15 15 15 15
28 28 31 31 31 31 30 30 31 30 29 30 29 29 27 25 24 23 23 21 20 18 17 15 16 16 15 15 15 15 15 15 16 16 17 16 16 17 16 16 16 15 15 14 14 14 16 17 17
28 29 30 31 30 30 29 30 30 30 30 29 28 28 27 26 24 23 23 21 19 19 16 15 15 15 15 16 15 15 15 15 15 15 15 14 16 16 15 15 16 15 15 15 15 16 18 18 17
28 29 30 30 30 29 29 29 29 30 31 29 28 26 26 26 25 23 21 19 18 17 16 15 15 15 14 14 15 15 14 14 14 14 14 14 16 16 16 16 16 16 17 17 17 18 18 18 18
29 29 29 30 30 30 28 29 30 30 31 29 27 26 26 25 24 24 21 20 18 15 14 14 15 14 14 14 13 13 14 14 14 14 13 13 16 17 17 17 18 18 19 18 18 19 18 18 18
28 28 28 29 30 29 29 28 29 31 31 29 28 27 26 25 24 24 23 20 17 17 14 13 14 14 14 14 13 13 14 13 13 13 14 14 16 17 18 18 19 19 19 19 19 18 18 18 18
27 27 27 29 30 30 29 27 30 31 29 29 29 28 26 25 25 24 22 21 17 15 15 13 13 13 13 13 13 13 13 13 12 13 13 15 16 17 18 19 19 19 19 19 19 18 19 19 19
26 26 27 28 31 30 29 28 30 30 29 29 29 29 27 26 25 24 23 21 18 15 14 14 13 13 13 12 13 13 13 13 13 13 15 16 16 16 17 18 18 19 19 19 19 18 19 19 19
26 27 27 28 30 29 29 28 29 31 29 29 29 29 28 27 26 24 22 21 19 15 13 13 13 12 12 12 12 12 12 12 12 13 14 15 15 16 17 17 17 18 18 18 18 18 18 19 19
27 28 28 29 30 29 28 29 30 31 31 30 29 29 29 28 27 25 21 20 19 17 14 14 13 12 12 12 12 12 12 12 13 14 14 15 15 15 16 16 17 17 18 18 18 18 18 18 19
26 26 27 29 29 27 28 29 30 31 31 31 30 30 29 28 27 25 22 19 19 17 14 13 13 12 12 12 12 12 12 12 12 13 14 15 15 15 16 16 16 16 18 18 17 17 18 18 18
26 26 26 27 29 27 27 28 29 31 31 31 30 31 30 29 28 26 23 20 18 18 15 13 12 12 12 12 13 12 12 12 12 12 14 14 14 15 16 16 16 16 18 18 17 17 17 18 18
25 27 26 26 26 26 29 26 29 30 31 30 30 30 30 30 29 27 24 22 19 18 17 14 13 12 13 12 12 12 12 12 12 12 13 15 15 15 16 16 17 17 17 18 17 17 17 18 18
25 27 27 26 26 26 26 26 28 31 30 31 31 31 30 30 29 28 26 23 21 20 17 15 12 12 12 12 12 12 13 13 13 13 13 15 15 15 15 16 17 17 17 17 17 17 16 17 18
26 25 25 25 25 24 25 26 28 30 31 30 31 32 31 30 30 29 27 24 22 21 19 15 14 12 12 12 12 12 12 12 13 12 12 14 15 15 15 17 17 16 16 16 16 16 16 16 17
25 24 23 23 23 23 27 26 27 30 30 30 31 31 31 31 30 29 27 26 24 21 20 17 15 14 12 12 12 13 13 12 13 13 13 13 14 14 15 15 16 16 15 15 16 16 15 16 16
24 24 23 22 23 25 27 25 28 30 30 30 31 31 31 30 29 29 28 26 24 22 20 19 17 16 13 12 12 13 14 13 14 14 14 14 13 14 15 16 16 16 16 15 15 16 16 16 16
23 23 25 24 24 24 27 27 29 29 29 30 30 30 30 30 30 29 28 27 25 23 21 20 19 18 16 13 12 13 13 14 14 15 15 15 15 15 14 15 15 15 15 15 16 16 16 16 16
23 25 23 23 21 21 25 26 26 28 28 29 30 30 30 31 31 30 29 28 26 24 22 20 20 19 18 17 14 13 13 14 15 15 16 16 16 16 16 15 15 15 15 15 16 16 16 16 16
22 22 23 25 24 22 23 25 29 27 26 26 28 30 29 29 29 30 30 29 27 25 23 21 20 20 20 19 17 15 15 15 15 15 16 16 16 16 17 17 16 16 16 16 16 16 16 16 16
24 23 23 22 22 24 23 24 27 26 26 26 27 28 29 29 30 29 29 28 27 25 24 22 20 20 20 20 19 17 17 16 16 16 16 16 17 17 17 17 17 17 17 16 16 16 16 16 16

GFSSGP_925_temp_060.txt.gz
Temp
23 23 23 26 26 28 29 32 34 32 32 32 32 31 30 31 30 27 26 23 23 24 22 21 21 20 19 19 19 19 20 20 20 20 19 19 19 18 18 18 18 18 18 17 17 17 16 16 18
22 25 26 28 26 28 31 33 32 32 32 31 31 30 30 29 30 29 26 24 24 25 22 20 20 19 19 19 19 19 19 19 18 19 19 19 19 18 18 18 18 17 17 17 17 16 16 16 17
23 24 27 27 28 28 31 33 33 32 32 31 31 32 30 29 29 28 24 22 22 23 23 22 21 19 19 19 19 19 19 19 18 18 18 19 18 18 18 18 17 17 17 17 17 16 16 17 17
24 27 28 26 28 31 32 34 33 32 32 32 31 29 30 29 28 26 23 23 22 22 23 23 22 20 19 19 19 19 19 19 18 18 18 19 18 18 17 17 17 17 17 17 16 15 17 17 18
25 28 27 28 29 31 33 33 33 32 32 31 31 29 30 27 25 24 23 22 22 21 21 22 22 21 20 19 19 19 18 18 19 19 18 18 18 17 17 17 17 17 16 16 15 15 16 17 18
26 28 26 28 30 33 34 33 32 31 31 31 30 29 29 27 26 24 21 21 22 21 20 20 21 21 21 20 19 19 19 18 19 18 18 18 18 18 17 17 17 16 16 16 15 16 16 17 18
26 27 27 29 30 32 33 33 31 31 31 31 30 28 30 27 25 24 22 20 20 20 20 19 19 19 19 20 19 18 16 16 17 18 18 18 18 17 17 17 17 16 16 15 16 16 16 17 17
28 28 27 29 30 31 34 32 32 31 30 30 30 28 28 25 24 22 22 22 22 20 19 18 18 18 18 18 18 16 16 16 14 18 18 18 18 17 17 16 16 16 15 15 15 15 16 16 17
29 27 27 28 30 32 32 31 32 32 31 31 30 29 28 25 24 23 23 22 21 21 18 17 17 17 17 17 17 16 16 16 15 18 17 17 17 17 16 16 16 16 15 15 15 15 16 16 17
27 27 27 30 32 32 33 31 31 31 30 30 30 31 27 25 25 25 24 21 21 20 18 16 17 17 17 16 16 16 16 16 15 18 17 16 17 16 17 16 16 15 15 15 15 15 15 16 17
27 27 28 30 32 32 32 32 32 30 30 31 29 29 27 26 25 24 24 22 21 20 18 16 16 16 16 16 16 16 15 15 15 16 16 17 16 16 16 15 15 15 15 15 15 15 16 16 16
27 28 29 30 31 31 30 31 30 31 30 32 30 29 29 27 25 24 23 22 21 19 18 16 16 16 15 15 15 15 15 15 15 15 16 17 16 16 16 15 15 14 14 15 16 16 16 16 16
27 28 29 30 31 31 31 30 30 30 31 32 30 28 28 27 27 24 23 20 19 19 17 15 15 15 16 15 15 14 15 16 15 16 16 16 16 16 17 15 15 15 15 15 16 16 17 17 17
28 29 29 30 30 31 30 29 30 30 31 31 29 28 27 26 26 25 23 21 18 16 15 14 15 15 15 15 15 14 14 14 15 15 15 15 15 15 16 15 15 16 16 16 17 17 18 17 18
28 27 29 29 29 29 30 28 29 30 31 31 30 29 28 26 26 25 24 22 17 16 14 14 15 15 15 14 14 14 14 14 14 14 15 15 15 15 16 16 16 17 17 17 18 18 18 18 18
25 27 26 28 29 30 30 27 30 31 31 30 30 29 28 27 26 25 24 22 18 15 14 14 14 14 14 14 13 14 14 14 13 14 14 15 15 16 17 16 17 18 18 18 18 18 18 18 18
24 24 26 27 30 30 29 28 30 31 31 30 30 30 28 27 26 26 24 22 18 16 14 13 14 14 14 14 14 13 14 13 12 13 14 15 16 16 17 18 18 18 18 19 18 18 18 19 18
23 25 26 27 30 30 30 29 30 30 30 29 30 30 29 28 27 26 24 22 18 15 15 14 13 13 13 13 13 13 13 13 12 12 13 14 15 16 15 17 17 18 18 19 18 18 19 19 19
24 26 27 29 30 30 29 29 30 31 31 30 29 29 30 28 28 26 24 22 17 15 15 14 13 13 13 12 12 13 12 12 12 12 14 15 16 16 17 17 18 18 18 18 18 18 18 19 19
23 24 26 28 30 29 29 28 30 31 31 31 31 30 29 29 28 26 23 22 20 15 15 14 13 13 12 12 12 12 12 12 12 13 14 15 15 16 16 17 17 18 18 18 18 18 18 18 18
24 24 25 26 28 29 28 27 28 30 31 31 31 31 31 30 28 25 23 21 20 17 15 14 13 13 12 12 13 12 12 12 12 13 14 15 15 15 15 16 17 17 17 18 18 18 18 18 18
23 26 26 26 26 25 28 25 29 30 30 31 31 30 30 30 29 26 24 21 20 18 15 13 13 13 13 12 12 12 12 12 13 13 14 15 15 15 16 16 16 17 17 17 17 17 17 17 18
23 26 26 26 26 25 26 26 27 30 30 31 31 30 30 30 29 27 25 23 20 19 16 14 13 13 13 13 13 13 12 13 13 12 13 14 15 15 15 16 16 17 17 17 17 17 17 17 17
24 25 25 25 25 23 25 25 26 28 30 31 32 32 31 30 30 28 26 24 22 20 17 14 13 13 13 13 13 13 13 13 13 13 13 13 14 15 15 16 16 16 17 17 17 17 17 16 17
22 22 22 21 21 22 25 25 26 29 31 31 31 31 31 30 29 28 26 25 23 21 18 16 13 13 13 12 13 13 13 13 13 13 13 13 14 15 15 15 16 16 17 16 17 17 17 16 16
21 22 22 19 21 23 26 25 27 30 31 31 31 31 31 30 29 29 28 25 24 22 19 17 15 14 13 13 13 13 13 13 13 13 13 13 14 15 15 15 16 17 16 16 16 16 16 16 16
20 19 24 23 23 21 23 27 29 30 30 30 30 31 31 30 29 29 28 26 25 22 21 18 17 15 13 13 13 13 13 13 13 13 13 13 13 14 14 14 15 16 16 15 15 15 15 16 16
21 22 20 22 19 19 24 26 26 28 28 29 30 29 30 30 29 28 28 26 25 24 22 20 18 17 15 13 13 13 13 13 13 13 13 14 14 14 14 14 15 16 15 16 15 15 16 15 15
21 21 20 21 22 21 21 22 24 25 26 27 28 28 28 28 29 29 29 28 26 25 23 21 20 19 18 14 13 13 13 14 14 14 14 14 14 14 14 14 14 15 15 15 15 15 15 16 15
22 22 21 19 19 22 21 23 26 25 26 25 26 28 28 29 29 29 29 28 28 26 24 22 21 20 20 18 14 13 13 13 14 14 15 15 15 15 15 15 15 15 15 15 15 15 15 15 15

GFSSGP_925_temp_066.txt.gz
Temp
22 22 22 21 18 16 17 20 23 25 27 27 27 26 25 25 26 23 23 23 23 23 21 20 20 20 21 21 21 20 20 20 20 20 20 20 20 20 19 19 18 18 18 18 18 18 18 17 17
21 22 21 17 17 17 18 21 23 24 26 26 27 26 26 24 23 22 22 23 23 23 22 21 20 19 19 20 21 21 19 20 20 20 20 20 19 19 19 18 18 18 18 18 18 18 17 16 17
21 22 17 17 15 16 19 23 26 27 26 28 28 27 25 24 24 22 24 23 22 22 22 21 21 20 19 19 20 20 20 20 20 20 19 19 19 19 19 18 18 18 18 17 17 17 16 17 17
21 19 16 18 17 19 21 24 24 26 26 27 26 25 25 25 23 24 23 22 22 21 21 22 21 20 19 19 19 19 19 20 20 19 19 19 19 19 18 18 18 18 18 17 17 16 17 17 16
21 15 17 17 18 21 22 23 24 26 26 27 27 25 23 22 24 23 22 22 22 20 21 21 21 20 19 19 19 19 19 19 19 19 19 19 18 18 18 18 17 17 17 17 16 16 16 16 16
17 15 16 16 19 22 23 24 24 26 26 27 26 23 23 22 22 22 22 22 21 21 20 20 20 21 20 20 19 19 19 18 19 19 19 18 18 18 18 18 17 17 17 16 16 16 16 16 16
17 15 16 18 19 21 24 25 26 26 26 26 25 23 21 21 22 22 22 22 21 20 20 20 20 20 20 20 19 19 18 18 18 16 17 17 17 18 17 18 17 17 17 16 16 16 17 17 16
17 16 18 18 20 20 23 25 25 27 27 27 25 22 21 21 22 22 21 21 21 20 20 20 19 18 19 19 19 19 19 16 17 16 15 16 17 17 17 17 17 17 17 16 17 17 17 17 16
19 16 15 18 20 22 24 24 26 28 26 27 26 22 23 22 21 21 20 20 19 19 19 19 19 18 18 18 18 17 18 17 17 17 17 16 15 17 16 17 17 17 16 16 17 17 17 17 16
17 16 18 19 21 22 23 23 24 26 26 26 22 21 21 21 21 20 18 19 18 18 18 18 18 17 17 17 17 17 17 16 17 18 17 16 15 16 16 16 16 16 16 16 17 17 16 16 15
17 19 20 21 22 22 23 24 24 25 26 25 22 21 21 20 19 19 19 20 19 19 18 17 17 17 17 16 16 16 17 16 16 16 15 16 15 15 15 15 15 16 16 16 16 17 17 16 16
18 20 21 22 23 23 23 24 24 24 26 26 22 22 21 20 19 18 18 19 18 18 17 16 16 17 16 16 16 16 16 16 16 15 16 15 15 15 15 14 15 16 16 16 16 17 17 16 16
19 20 22 22 23 23 24 23 24 24 24 23 22 22 21 20 20 20 20 19 18 17 17 17 17 16 16 16 15 15 15 15 15 14 15 14 15 14 14 14 15 16 16 16 16 17 17 17 15
21 21 22 23 24 23 23 24 23 24 24 23 22 21 21 20 19 17 17 17 17 17 17 16 16 16 16 16 15 14 14 14 14 14 14 15 15 15 14 15 15 15 16 16 16 17 17 17 16
21 20 21 22 22 22 23 23 23 25 24 24 22 22 20 20 19 18 18 16 17 17 17 16 16 15 16 15 14 14 14 14 14 14 15 15 14 15 14 15 15 16 16 16 16 17 17 17 16
21 20 19 22 23 24 22 22 25 24 23 23 21 22 21 20 20 19 18 17 16 16 16 16 15 15 15 14 14 14 14 14 14 14 15 15 16 16 15 15 15 15 16 17 16 16 17 17 16
18 17 19 21 23 23 23 23 25 24 23 23 22 21 21 20 19 19 17 17 16 16 15 15 15 15 15 14 14 14 14 14 14 13 13 14 14 15 15 15 16 16 17 16 16 17 17 17 16
16 18 19 20 22 22 22 23 25 25 23 23 22 21 21 21 21 19 16 16 16 15 15 15 15 14 14 14 14 14 14 14 14 14 13 14 14 15 15 15 16 16 16 16 16 16 16 17 17
19 19 18 20 21 21 21 22 23 24 23 21 21 20 21 21 20 18 15 15 14 14 14 15 14 14 14 14 14 14 13 13 13 13 13 14 15 15 15 15 16 16 15 16 16 16 16 17 17
18 19 18 20 22 22 22 21 23 24 24 23 22 20 21 20 19 16 15 14 13 13 14 14 14 13 14 13 13 13 13 13 13 13 13 14 15 15 15 15 15 15 16 16 17 16 15 16 17
18 18 18 19 21 22 21 21 23 24 24 23 23 23 21 21 20 17 15 14 13 13 13 14 14 13 13 13 13 13 13 12 13 12 12 13 13 14 15 15 15 16 16 16 16 17 17 16 16
16 20 20 20 20 17 22 18 22 23 23 24 23 21 20 21 21 18 15 14 13 13 13 14 14 13 13 13 13 12 12 12 12 12 12 12 13 14 15 16 15 16 16 16 16 17 17 17 15
18 19 18 18 17 17 20 19 22 22 22 23 23 21 21 22 21 18 16 14 14 13 13 13 13 13 12 12 13 12 12 12 12 12 12 12 13 13 15 16 16 15 15 16 16 16 18 18 16
17 17 18 18 17 15 19 19 19 20 23 25 25 23 21 22 21 20 17 15 13 13 13 13 13 13 13 12 12 12 12 12 12 12 11 12 12 14 14 15 16 15 14 15 14 15 18 18 18
16 15 16 17 16 16 21 20 21 22 23 24 24 24 22 22 21 19 16 14 13 13 12 12 13 12 13 12 12 12 12 12 12 12 12 12 13 13 15 15 14 14 15 15 16 17 18 18 18
16 15 15 15 15 17 21 19 20 23 25 24 24 23 21 22 20 18 17 15 14 13 12 12 12 12 12 12 12 12 12 12 12 12 13 13 14 14 15 15 15 15 15 16 16 16 17 17 17
14 13 16 14 16 14 18 20 23 22 23 24 24 21 21 21 20 19 18 17 14 13 12 13 12 12 12 12 12 13 12 12 12 12 13 13 14 13 14 15 16 16 16 16 17 17 16 16 17
17 16 13 14 15 15 19 19 20 20 20 22 21 20 20 21 20 19 18 17 16 14 13 13 13 13 12 13 12 12 12 12 13 13 13 13 13 13 13 14 15 15 16 16 16 16 16 16 16
16 13 13 14 15 15 17 18 18 19 20 20 19 19 19 18 19 19 19 18 18 15 13 13 13 13 13 12 12 12 12 12 12 12 13 13 13 13 13 14 15 15 15 16 15 15 15 15 16
16 15 15 14 15 15 15 15 16 18 19 20 19 18 18 18 18 18 17 17 18 16 14 13 13 13 13 13 12 12 13 13 12 12 12 13 12 13 13 13 14 14 15 15 15 14 14 14 14

GFSSGP_925_temp_072.txt.gz
Temp
20 20 20 19 18 14 16 18 19 21 23 24 24 23 23 24 24 23 23 24 24 24 23 21 18 18 20 20 21 21 22 22 21 21 21 20 20 20 19 19 19 19 19 18 18 18 18 17 18
20 20 19 14 15 16 17 17 20 21 23 23 24 24 25 25 22 21 22 23 23 23 23 22 20 18 19 20 20 20 21 21 21 21 21 21 20 20 19 19 18 19 18 18 18 18 17 17 17
20 20 16 15 12 16 17 18 21 23 22 24 25 24 24 25 22 21 23 24 23 23 23 22 21 19 19 20 20 20 19 19 20 20 20 20 20 20 18 18 18 18 18 18 18 17 17 17 17
19 16 14 15 14 16 18 22 21 21 23 23 24 25 23 23 22 23 24 24 23 23 22 22 21 21 19 19 19 20 20 20 18 20 20 20 19 19 18 18 18 18 18 18 17 17 17 16 16
18 13 14 14 15 16 17 19 21 21 23 23 24 24 23 22 23 23 23 22 22 22 22 21 21 19 18 18 19 18 19 20 20 20 20 19 19 19 19 18 18 18 18 17 17 17 16 16 16
15 13 13 14 15 18 18 19 21 22 22 22 22 23 22 20 22 21 22 22 22 21 20 21 21 19 18 18 18 19 18 19 19 19 19 18 19 18 18 18 18 18 18 17 17 16 16 16 16
15 13 13 14 16 18 20 20 21 22 22 22 23 22 22 19 21 21 22 22 21 20 20 21 20 19 18 18 19 19 19 19 18 18 17 18 18 18 17 17 17 17 17 17 17 16 16 16 16
13 13 14 14 17 18 21 23 23 23 22 24 22 22 23 19 20 21 21 21 20 20 20 20 19 19 18 19 19 19 19 18 18 17 17 16 17 17 17 17 17 17 17 17 16 15 16 16 16
14 14 12 15 17 19 21 21 20 22 23 22 24 22 20 21 20 19 18 18 19 19 19 19 18 18 18 19 19 19 18 18 18 17 17 15 15 16 16 16 16 16 17 16 15 16 16 16 16
15 12 15 15 18 19 20 19 20 22 20 21 22 22 19 19 17 16 15 16 17 18 19 19 18 18 18 18 19 19 17 17 16 16 16 17 16 16 15 16 16 17 16 15 15 16 16 16 15
15 16 17 18 18 19 19 19 22 21 20 21 23 23 19 18 17 16 16 17 18 18 18 18 18 17 17 18 18 18 17 17 17 16 16 16 16 15 15 16 15 16 16 15 15 15 16 16 15
15 15 17 18 19 19 18 20 19 19 21 22 21 20 18 17 17 16 16 17 18 17 17 18 17 17 16 17 17 18 17 15 14 14 14 15 14 14 15 15 15 16 15 15 15 16 16 15 15
15 16 17 18 18 18 18 18 19 19 20 20 20 19 17 18 18 18 18 18 19 17 17 18 17 16 16 16 16 17 16 14 15 15 15 14 15 14 15 15 14 16 16 15 15 16 16 15 15
17 17 17 17 18 18 19 19 19 20 20 21 20 20 18 18 18 16 17 17 17 18 17 17 16 16 16 16 16 16 15 14 14 14 14 14 14 14 14 14 15 16 16 15 15 15 15 15 15
17 16 17 17 17 17 18 17 17 20 20 19 19 19 18 19 17 17 18 17 18 18 17 16 16 16 16 16 17 16 15 15 14 14 14 14 14 14 14 14 14 15 16 15 15 15 15 15 14
17 17 16 18 17 18 19 19 19 20 19 19 18 18 19 19 18 18 18 18 18 17 17 15 15 15 15 16 17 15 14 14 14 14 14 14 14 14 14 14 14 15 15 15 15 15 15 15 14
15 15 15 17 19 19 18 18 20 21 21 20 19 18 18 19 18 18 18 17 18 18 17 15 15 15 15 15 15 15 14 14 14 13 14 13 14 14 14 14 13 15 15 14 15 15 15 15 14
14 15 14 15 19 18 18 17 18 19 19 19 18 17 17 20 19 18 16 17 18 17 17 15 14 15 15 14 14 14 14 14 14 14 14 13 14 14 14 14 13 14 14 14 14 15 15 15 14
15 15 14 16 17 18 17 16 18 18 18 17 18 17 19 20 21 17 15 16 16 16 15 14 14 14 15 14 13 14 13 13 14 13 14 14 13 14 14 13 14 14 14 13 13 14 14 13 13
14 14 14 15 17 17 16 16 17 18 18 19 19 19 18 20 16 14 14 14 15 14 15 14 13 14 15 15 13 14 13 13 13 13 14 14 14 14 14 14 14 14 14 14 14 14 14 13 13
14 13 14 15 16 17 17 17 19 19 18 19 19 19 19 18 16 14 14 14 14 14 13 14 13 13 14 15 13 14 14 13 13 13 13 14 14 14 14 14 14 14 14 14 14 14 14 13 13
13 15 15 16 15 14 17 15 17 18 19 20 20 19 18 18 17 14 14 14 14 13 13 13 13 13 14 14 13 13 13 13 13 13 13 13 13 14 14 14 14 14 14 15 14 15 15 15 13
14 15 15 16 15 15 16 15 17 17 18 19 20 20 19 17 16 14 14 14 14 14 13 13 13 13 14 13 13 13 13 14 13 13 13 13 13 13 13 14 14 13 14 14 15 15 15 15 14
15 15 15 15 14 13 15 15 16 17 19 21 22 21 21 19 16 15 14 14 14 14 12 13 13 12 12 13 13 13 13 13 13 12 12 13 13 13 13 13 12 13 14 15 15 15 16 16 15
14 14 13 13 13 14 16 15 17 19 20 19 18 19 20 21 15 14 14 14 15 13 12 12 12 12 12 13 13 13 13 13 13 13 12 12 12 12 12 13 13 13 13 14 15 14 15 16 15
12 14 12 14 14 14 16 15 18 18 17 17 16 16 18 19 16 15 14 14 15 13 13 12 12 12 12 12 12 14 13 12 13 13 12 12 12 12 12 12 13 13 13 13 13 14 15 15 15
13 13 13 13 13 13 15 17 18 17 16 16 15 15 14 18 16 16 14 14 14 13 13 12 12 12 12 12 13 12 12 12 12 13 12 12 12 12 12 12 13 12 13 12 13 13 14 14 14
14 13 13 12 14 14 16 17 15 14 14 15 14 14 14 16 16 15 13 14 14 14 13 13 12 12 12 12 13 13 12 12 12 12 12 12 12 12 11 11 12 12 12 12 12 12 13 13 13
13 13 12 12 14 15 15 15 16 15 15 14 14 13 13 15 15 14 13 14 14 13 12 12 12 12 12 12 11 12 12 12 12 12 12 12 13 12 12 12 12 12 12 12 12 12 12 12 13
13 12 12 13 14 14 14 14 16 16 15 15 14 13 13 12 12 13 13 13 13 12 12 12 12 12 12 12 12 12 12 12 12 12 12 12 12 12 12 13 13 13 13 13 12 12 12 12 12

GFSSGP_925_temp_075.txt.gz
Temp
20 20 20 20 23 21 23 23 21 23 25 25 25 26 27 27 26 28 22 23 25 25 24 22 21 18 20 21 21 22 21 21 21 21 21 21 21 20 20 20 19 19 19 19 18 18 18 18 18
19 19 19 20 23 23 26 21 23 25 26 25 25 25 26 28 25 25 24 23 24 25 24 23 22 18 20 20 21 21 19 19 21 21 21 21 21 20 20 20 19 19 19 19 18 18 18 18 18
19 19 22 22 21 24 25 23 25 24 24 24 27 26 26 27 24 24 23 24 24 24 23 22 22 18 19 20 21 21 20 19 20 20 21 21 20 20 20 19 19 19 19 19 18 18 17 17 17
19 20 19 21 21 22 24 25 23 23 25 25 26 27 26 23 24 23 24 23 23 23 22 21 20 18 18 20 20 21 21 20 19 20 20 20 20 20 19 19 19 19 19 18 18 18 17 17 17
18 18 20 19 19 20 20 22 22 24 24 25 26 26 26 24 23 23 23 23 22 22 22 21 19 18 18 18 19 20 20 21 19 19 19 19 18 18 19 19 19 19 19 18 18 17 17 17 17
19 18 19 20 18 21 23 22 23 24 24 25 24 25 26 21 21 22 23 23 22 23 22 21 19 18 18 18 19 19 20 20 20 18 18 18 19 19 19 19 19 18 18 17 17 17 17 17 17
20 19 20 19 19 21 23 21 23 24 25 25 24 24 25 22 21 22 22 22 22 22 22 21 19 18 18 18 18 19 19 20 20 20 19 19 18 18 18 18 18 18 17 17 17 17 17 17 17
19 19 18 18 20 22 23 23 23 24 25 24 24 25 25 23 19 20 21 21 20 20 20 20 19 18 18 18 18 18 19 19 19 18 18 18 16 16 17 18 18 17 17 17 16 16 16 16 16
16 19 19 19 19 21 22 22 23 23 24 23 25 24 23 20 19 18 18 18 18 19 19 19 18 18 17 18 18 18 19 18 18 18 18 17 17 17 16 17 17 17 17 16 16 16 16 16 16
19 18 20 19 20 21 22 21 22 23 23 24 24 24 20 19 19 20 20 20 18 18 19 19 19 17 17 18 18 18 19 18 18 18 17 17 18 17 16 16 15 17 16 17 16 16 16 16 15
17 18 18 19 20 20 21 22 22 23 22 23 23 24 22 20 19 20 19 19 19 18 17 19 18 18 17 18 18 18 18 18 17 17 17 17 17 16 16 15 15 15 15 15 15 15 15 15 15
17 17 18 19 20 20 20 21 21 21 22 24 23 24 23 23 21 20 20 19 18 18 17 18 18 17 17 17 17 17 17 17 17 15 16 16 15 15 14 16 15 15 14 15 15 15 14 14 14
16 17 18 19 19 19 20 20 21 22 22 23 22 22 23 22 23 21 21 19 18 18 17 18 16 16 16 16 16 16 15 17 17 16 16 16 15 14 15 14 15 15 14 14 15 14 14 14 15
17 17 18 19 19 20 19 20 19 21 22 22 22 23 24 22 23 22 19 19 18 17 16 17 16 16 15 15 16 16 15 16 17 16 15 15 15 14 14 14 14 14 15 14 14 14 14 14 14
18 17 19 18 19 19 20 19 19 21 22 22 23 23 24 23 21 21 20 20 19 17 16 15 15 15 15 15 15 15 15 16 15 14 14 14 14 14 14 14 14 14 14 14 14 13 14 14 14
18 17 18 19 19 20 20 20 22 22 22 23 23 23 22 23 22 21 20 19 17 17 15 15 15 15 15 15 15 15 16 15 14 14 14 14 14 14 14 14 14 14 15 14 14 14 14 14 14
16 17 17 18 21 20 19 20 22 21 21 22 23 23 23 23 22 21 19 18 17 17 15 15 15 15 14 14 15 14 15 14 14 14 14 14 14 14 14 13 14 14 13 14 14 14 14 14 14
16 16 16 17 19 19 19 19 21 21 22 22 22 23 23 22 23 23 19 18 17 16 15 14 14 14 14 14 14 14 14 14 14 14 14 14 14 14 14 14 14 13 12 13 14 13 13 14 14
16 16 16 17 18 18 19 19 20 21 21 21 22 22 23 22 23 23 18 17 17 15 14 14 14 14 14 14 13 14 14 14 14 14 14 14 13 14 14 13 14 13 13 13 14 13 13 13 13
15 15 15 16 17 18 18 19 20 20 21 21 23 23 23 23 23 21 17 17 16 15 14 14 14 14 14 14 14 14 14 13 14 14 14 14 14 13 13 13 13 13 13 13 13 14 13 13 13
15 14 15 15 16 17 17 18 19 21 21 22 22 22 23 22 23 20 17 17 16 15 14 14 14 14 14 15 13 13 13 13 13 13 13 13 13 13 14 13 13 13 12 12 13 14 14 14 13
14 15 15 15 15 15 18 17 19 20 21 22 22 23 22 23 22 21 18 17 16 16 14 14 14 14 15 15 14 13 13 13 13 13 13 13 13 13 13 13 13 13 13 13 13 13 14 14 13
15 16 15 16 16 16 17 16 19 20 20 22 22 22 23 22 21 20 18 18 17 15 14 13 13 13 14 14 14 13 13 14 13 13 13 13 13 13 13 13 13 13 13 13 13 13 13 14 14
16 15 16 16 16 15 17 17 18 19 21 21 21 21 21 22 21 20 18 17 16 15 14 12 13 13 13 14 14 13 13 13 13 13 13 13 13 13 13 13 14 13 13 14 15 14 14 14 14
15 15 15 14 14 16 18 17 18 20 20 18 18 18 18 19 20 18 17 17 16 15 13 12 13 13 13 13 13 13 13 13 13 13 13 13 13 13 13 13 13 13 13 13 14 14 14 14 14
14 15 15 15 15 16 17 17 19 17 17 17 17 16 17 18 20 18 18 17 16 15 13 13 13 12 12 13 13 13 13 13 13 13 13 12 12 12 12 12 13 13 12 13 12 14 14 14 14
14 14 15 13 14 14 18 19 17 17 17 16 16 16 16 17 19 19 17 17 16 15 13 13 13 12 11 12 12 13 13 13 13 13 13 12 12 12 12 13 12 12 13 12 12 13 13 14 14
15 14 13 13 14 15 18 18 16 15 15 15 14 13 14 16 16 17 16 16 16 14 13 12 13 13 12 11 12 12 12 13 13 13 13 12 12 12 12 12 12 12 12 12 12 12 13 13 14
13 14 12 12 14 15 15 15 15 14 15 14 13 12 11 12 14 15 16 15 14 13 13 12 13 13 13 12 12 12 12 12 12 12 12 12 12 12 12 12 12 12 12 12 12 12 12 12 13
15 15 13 12 14 14 14 15 14 14 14 13 12 11 11 10 10 13 14 13 13 12 12 12 12 13 13 12 12 12 11 11 11 11 12 12 12 12 12 12 11 11 11 12 11 11 12 12 12

GFSSGP_925_temp_078.txt.gz
Temp
20 20 22 25 27 28 30 31 31 30 29 30 30 30 31 32 31 31 27 26 25 24 22 22 23 22 22 21 21 22 22 22 22 22 21 21 21 20 20 20 20 20 20 19 19 19 18 18 18
21 21 23 27 27 29 30 32 29 31 31 29 29 29 30 30 31 30 28 25 26 25 23 21 22 23 21 21 21 22 22 21 21 21 21 21 20 20 20 20 20 19 19 19 19 18 18 18 18
21 22 27 27 28 28 30 31 31 30 29 29 30 30 30 31 30 30 28 25 25 24 23 22 21 19 19 20 21 21 21 21 20 20 20 20 20 20 20 20 19 19 19 19 19 18 18 18 18
22 24 26 26 28 28 30 32 30 29 29 29 30 30 31 29 29 29 26 24 24 23 23 21 21 18 19 20 20 21 20 19 19 19 20 19 19 19 19 19 19 19 19 19 19 18 18 18 18
23 26 26 26 27 29 29 29 29 29 28 29 30 29 30 30 27 26 25 25 24 23 22 20 22 18 18 20 20 20 20 19 19 19 19 19 19 19 19 19 19 19 19 19 18 18 18 18 18
25 26 26 27 27 27 28 30 28 28 29 29 29 29 30 28 28 27 25 24 23 22 21 20 20 19 18 19 19 19 20 20 19 19 20 19 19 19 19 19 19 19 19 18 18 18 17 17 17
24 25 26 27 28 27 27 29 27 28 29 29 28 27 30 29 27 25 24 24 22 21 20 19 19 18 18 18 19 19 19 20 20 20 20 19 18 18 19 19 19 19 18 17 17 17 17 17 17
25 26 25 27 26 26 28 27 28 28 29 28 28 28 28 29 25 23 24 24 23 21 20 18 18 18 18 18 18 18 19 19 20 19 19 18 18 17 16 17 17 18 18 17 17 17 17 17 17
24 24 25 26 25 26 27 27 29 28 28 28 29 29 28 26 25 24 24 24 23 22 21 19 19 18 18 19 19 18 18 19 19 19 19 19 18 17 16 17 17 17 17 18 17 16 16 16 16
23 24 25 27 26 25 27 27 27 26 26 27 28 28 26 25 25 25 25 25 23 22 21 19 18 18 18 18 18 18 19 18 18 17 18 17 17 16 17 17 17 17 17 16 18 17 17 16 16
23 23 26 25 24 25 25 25 27 26 25 27 27 28 28 27 26 25 26 26 24 23 22 21 18 19 18 17 18 19 20 19 18 17 17 17 16 16 16 17 17 17 16 16 15 16 16 17 17
21 22 23 25 24 24 24 25 25 26 26 27 27 27 27 27 27 26 26 26 25 23 22 20 18 17 17 17 17 17 19 19 18 17 16 16 16 15 16 16 16 16 15 15 16 16 16 16 18
21 22 23 23 23 23 24 24 24 25 26 27 27 27 26 27 28 27 27 26 25 24 22 21 17 17 17 17 17 17 18 17 17 17 17 16 16 16 15 15 15 16 15 16 16 16 16 17 17
22 21 22 23 23 23 22 23 24 25 26 26 26 26 27 28 29 29 28 27 26 24 23 21 17 17 17 16 16 16 17 16 16 16 16 16 16 15 15 15 15 14 15 15 16 16 16 17 17
20 20 22 23 23 23 23 23 23 25 26 26 26 27 28 28 29 29 28 27 25 24 22 19 17 16 16 17 15 15 16 16 15 16 15 15 15 15 15 14 14 14 15 15 16 16 17 17 17
19 20 20 24 22 23 22 22 25 26 26 26 26 27 28 29 29 29 28 26 25 23 22 18 16 16 16 15 15 15 15 16 15 15 15 15 15 15 14 14 14 14 14 15 15 16 17 17 18
19 20 21 21 23 23 22 23 25 26 25 25 26 27 28 28 29 29 27 26 25 23 21 19 17 16 16 15 14 15 15 15 15 15 15 14 14 14 14 14 14 14 14 14 15 16 17 17 18
21 20 21 20 21 21 21 23 24 25 25 25 26 27 27 28 29 29 27 25 24 23 21 19 16 16 16 15 14 14 15 14 15 14 14 14 14 14 14 14 14 13 14 14 15 16 16 18 18
19 17 18 20 21 20 20 22 24 24 25 25 25 26 27 27 29 29 27 24 23 22 21 19 16 15 15 14 14 14 14 14 14 14 14 14 14 14 14 14 13 13 13 14 14 16 17 17 17
18 18 18 19 20 20 21 22 24 24 24 25 25 26 26 27 28 29 27 23 22 22 21 19 16 15 15 15 14 14 14 14 14 14 14 14 14 14 14 14 13 13 12 13 14 16 16 17 17
18 18 19 18 19 20 21 22 24 24 24 24 25 26 26 27 28 29 27 24 22 22 20 19 18 17 16 16 15 15 14 14 13 14 14 14 14 14 14 13 13 13 13 13 14 15 16 17 16
18 18 18 18 18 20 21 21 24 24 24 24 25 25 26 27 28 28 28 25 23 22 20 19 18 17 17 17 16 15 15 14 14 14 13 13 14 13 13 13 13 13 13 13 14 15 16 17 16
18 18 18 18 18 19 20 20 24 23 23 24 25 26 27 28 28 29 28 26 23 22 20 19 18 17 17 17 16 16 14 14 15 14 13 13 13 12 12 13 13 13 13 13 14 15 15 16 17
18 17 18 19 19 17 21 21 23 23 23 24 25 25 25 26 26 27 27 24 23 21 19 18 18 16 17 17 16 15 15 14 15 13 13 13 13 13 13 13 13 13 13 13 13 14 14 15 16
17 17 18 19 17 19 21 20 22 24 22 21 22 23 23 24 25 26 25 24 22 21 17 16 17 16 16 16 16 16 16 15 15 15 14 13 13 13 13 13 13 12 12 12 13 13 14 14 15
17 17 18 17 19 21 21 20 23 21 21 21 21 21 22 23 24 25 24 23 22 20 15 15 17 15 15 16 17 15 15 13 14 14 15 14 13 13 13 13 13 12 12 13 13 12 13 14 14
17 16 18 16 18 17 20 22 22 22 21 21 20 19 18 20 22 24 23 23 21 20 14 14 15 15 15 15 16 15 14 14 14 13 13 13 13 13 13 12 12 12 13 13 13 13 13 13 13
17 18 14 15 16 18 22 22 21 19 19 19 18 16 14 15 18 21 21 21 20 17 14 14 15 14 14 14 14 15 15 14 13 13 13 14 13 12 13 12 12 12 12 12 12 12 12 12 13
16 16 15 13 16 18 19 17 14 14 15 14 15 13 11 11 12 18 19 19 17 15 14 14 15 14 13 13 13 15 15 14 13 13 13 13 12 12 12 12 12 12 12 12 11 12 12 11 11
19 18 17 16 16 15 14 17 15 14 13 12 12 11 10 10 10 10 14 15 14 14 13 13 16 16 15 13 13 14 14 14 14 13 13 12 12 12 12 12 12 12 12 12 12 12 12 11 11

GFSSGP_925_temp_081.txt.gz
Temp
20 21 25 28 28 30 31 33 36 34 33 34 33 33 34 35 34 32 31 29 29 27 24 24 25 24 24 22 22 22 22 22 22 22 22 21 21 20 20 20 20 20 20 19 19 19 19 18 19
21 24 26 29 28 30 32 35 35 34 35 33 32 32 32 32 35 33 32 29 28 27 25 23 24 24 23 22 22 22 22 21 21 22 21 21 20 20 21 20 20 20 19 19 19 19 19 19 19
21 25 28 28 29 29 32 35 35 35 33 32 33 33 33 33 34 33 30 29 29 28 26 25 23 23 22 22 22 21 21 21 21 21 21 21 20 20 21 20 20 19 19 19 19 19 18 19 18
24 27 28 28 29 32 32 34 36 34 32 32 33 32 33 33 32 32 29 28 28 28 27 24 23 23 22 21 21 21 21 20 20 20 20 20 19 20 20 20 19 19 20 19 19 18 19 18 18
26 28 27 28 29 31 33 33 33 32 32 32 32 31 32 33 31 30 29 28 28 27 26 23 23 23 22 21 21 21 20 19 19 19 19 19 20 20 20 20 19 19 19 19 19 18 19 18 18
26 28 27 28 30 32 33 33 33 32 32 32 31 31 32 32 32 30 29 28 27 26 25 22 21 20 20 20 20 20 20 19 19 19 19 19 20 20 20 20 20 20 20 19 18 18 18 18 18
26 28 27 29 30 32 33 32 31 32 31 32 33 30 32 33 30 30 29 27 26 25 23 22 19 19 19 19 19 20 19 19 19 20 20 20 19 18 18 19 19 19 19 18 18 18 18 18 18
27 27 27 29 29 30 33 31 31 31 31 33 32 30 30 30 29 27 28 27 26 24 23 22 20 20 19 19 18 19 19 19 20 20 20 20 19 19 17 17 16 17 17 18 18 19 18 17 18
27 26 26 28 29 30 31 30 32 32 31 31 31 30 31 29 28 27 28 27 27 25 23 20 19 20 21 20 20 19 19 19 19 19 19 19 18 18 18 19 17 16 17 18 18 19 18 18 17
26 25 26 29 30 30 30 30 30 30 29 29 30 31 30 28 29 28 28 28 27 26 24 21 19 20 20 22 20 19 19 19 19 19 18 19 17 16 17 18 18 16 17 17 18 18 19 17 16
26 24 27 29 30 29 28 28 29 29 29 29 29 29 30 30 29 28 28 28 28 27 25 24 19 20 19 21 20 21 21 20 19 19 18 18 17 16 17 17 16 16 16 16 16 17 18 17 17
25 26 27 27 28 28 26 27 28 28 28 30 30 30 30 30 29 29 29 28 28 27 26 24 21 21 21 22 19 21 22 21 20 19 18 17 17 16 17 17 16 16 16 16 16 16 16 17 17
25 26 26 26 27 26 26 26 26 27 29 29 29 29 29 29 29 29 30 29 28 28 26 25 23 22 20 19 18 18 21 21 19 19 18 17 17 16 17 16 16 16 16 16 16 16 16 17 17
25 25 25 26 26 26 25 25 26 27 28 28 28 29 29 29 29 30 30 30 29 28 27 25 22 20 18 17 17 17 18 19 18 18 18 17 17 17 17 16 16 16 15 16 15 15 16 17 17
24 23 24 25 25 25 25 24 25 27 28 28 28 29 29 29 30 30 30 30 30 29 27 25 21 19 19 19 17 17 17 17 17 17 17 17 17 17 17 16 16 15 16 15 15 15 16 18 18
22 22 22 25 26 26 25 23 27 29 28 28 28 28 29 29 30 30 31 30 30 29 27 25 22 19 20 20 18 16 16 16 16 16 17 17 17 16 15 15 15 14 16 15 14 15 16 18 19
21 20 23 24 26 25 25 24 27 28 28 28 28 29 29 29 30 31 31 31 30 29 26 24 21 19 19 19 16 15 15 16 16 16 15 16 15 15 15 15 15 14 15 14 14 15 17 18 18
22 23 23 23 24 24 23 24 25 26 27 27 27 28 29 29 30 31 31 30 29 28 26 24 20 20 19 18 16 16 15 15 15 15 15 15 15 15 15 14 14 14 14 14 14 15 17 18 18
21 21 21 22 23 22 22 23 24 25 26 26 27 27 28 29 30 31 31 30 29 28 25 23 21 20 19 18 17 16 16 16 15 14 14 15 15 15 15 14 14 14 14 14 14 15 16 18 18
20 20 19 22 23 22 22 23 25 26 26 26 27 27 28 29 29 30 31 29 27 27 25 23 21 20 19 19 18 17 16 17 16 15 14 14 14 14 14 14 14 13 13 13 14 14 15 18 17
20 20 20 21 22 23 23 23 25 26 26 26 27 28 29 29 29 30 30 29 26 26 25 23 21 19 19 19 18 16 15 16 15 15 15 14 15 15 14 14 14 13 13 13 14 14 16 17 17
19 22 21 20 20 21 25 22 25 26 27 27 28 27 28 28 29 30 30 30 27 26 25 24 21 20 19 19 17 16 16 16 17 16 15 15 15 15 14 14 13 13 13 13 13 14 15 16 17
20 21 19 20 19 20 22 23 24 27 26 27 27 27 27 28 29 29 30 31 28 26 24 23 22 21 20 19 20 19 19 18 17 17 15 14 14 14 14 13 13 13 13 13 13 14 15 16 17
20 19 19 20 20 19 21 23 24 26 25 26 27 27 28 28 29 30 31 30 29 26 24 22 22 21 20 20 20 19 19 18 17 16 15 14 13 13 13 13 13 13 13 13 13 14 15 16 17
19 18 18 20 20 20 24 22 24 26 24 24 24 25 25 26 27 28 29 30 29 26 23 22 22 20 21 20 19 19 18 17 16 16 15 13 13 13 12 12 13 13 13 13 13 14 15 15 16
19 19 18 18 19 19 21 22 23 24 24 24 24 23 23 23 24 27 29 29 27 25 23 22 22 20 20 20 19 18 18 18 18 17 16 14 13 13 13 12 13 12 13 13 13 14 14 15 15
19 18 20 18 20 19 21 24 25 23 23 23 22 21 20 19 20 24 27 27 26 24 20 20 21 17 19 20 19 19 18 17 17 16 15 15 14 13 13 13 13 12 13 13 13 13 13 14 14
19 19 16 17 16 18 22 23 18 19 19 18 17 16 15 14 14 17 25 25 25 21 17 16 18 16 17 19 19 17 17 16 16 15 15 15 14 14 13 13 13 13 12 12 12 12 12 13 13
19 18 18 17 17 18 19 17 16 15 15 15 15 14 12 10 10 12 15 22 20 17 15 15 16 16 16 16 17 16 16 16 16 15 15 15 15 14 13 13 12 12 12 12 11 11 12 12 13
21 19 18 16 18 18 18 17 15 15 14 13 14 12 10 9 8 8 9 10 16 15 15 15 16 15 15 15 15 15 15 15 15 15 15 15 14 13 13 13 12 12 12 12 12 11 11 11 11

GFSSGP_925_temp_084.txt.gz
Temp
21 22 22 26 26 27 28 31 34 35 36 36 35 33 33 35 33 31 31 30 28 25 26 26 25 24 24 23 22 22 22 22 22 22 22 22 21 21 21 21 21 20 20 20 19 19 19 20 20
20 23 25 27 25 26 29 33 34 35 36 34 33 33 33 33 35 32 30 30 28 25 26 25 25 25 24 23 22 22 21 21 21 22 22 21 21 21 21 20 20 20 20 19 19 19 19 19 19
21 24 26 26 26 26 28 32 34 36 34 33 33 34 33 33 35 33 30 29 29 26 24 25 25 25 24 24 22 21 21 21 21 21 21 21 21 21 21 21 20 20 20 19 19 19 19 19 19
22 25 26 25 27 30 30 32 34 35 35 33 33 32 34 34 33 32 30 30 29 27 25 25 25 25 24 23 22 22 21 21 20 20 21 20 21 21 21 20 20 20 19 19 19 19 19 19 19
23 27 25 25 27 29 31 33 34 34 33 33 33 32 33 34 33 31 29 30 29 28 26 24 23 24 23 22 21 21 21 20 19 20 20 20 20 21 21 21 20 20 19 19 19 19 19 19 19
24 26 25 26 27 30 32 33 33 34 33 33 33 32 32 34 33 31 29 29 28 27 25 23 21 22 22 21 20 20 20 20 19 20 20 20 20 20 20 20 20 20 20 20 20 19 19 19 19
25 26 25 26 28 30 32 34 34 33 33 33 33 31 33 33 32 31 29 28 27 26 24 22 21 20 20 20 20 20 20 19 19 20 20 19 19 19 19 19 18 17 18 19 19 19 19 19 19
26 26 25 27 28 29 32 33 33 32 32 33 34 31 31 31 29 28 29 28 27 25 24 22 20 20 20 20 19 19 19 19 19 19 19 19 19 19 19 19 19 18 17 17 17 19 18 19 19
26 24 24 25 27 28 31 31 33 33 32 32 32 32 32 30 29 28 28 28 27 24 23 22 21 20 20 20 20 19 19 19 19 19 19 19 19 19 19 19 18 17 17 16 17 18 19 19 19
25 24 24 27 28 29 30 31 31 31 31 31 31 32 32 30 29 29 28 28 27 25 23 21 20 21 21 21 20 20 19 19 19 19 19 19 19 18 17 17 18 19 16 16 17 18 19 19 19
25 24 26 27 28 29 29 29 30 29 29 30 30 30 30 30 28 27 28 28 28 26 25 21 20 20 21 22 20 20 20 19 19 19 19 18 17 17 16 17 17 18 17 16 17 17 18 18 18
25 26 27 27 28 28 27 28 28 28 28 30 30 30 30 30 28 27 27 28 28 28 26 23 21 20 20 21 21 21 21 20 20 19 19 18 17 16 17 16 17 17 16 16 16 17 18 18 17
25 26 27 27 27 27 27 27 27 27 29 29 30 30 29 29 29 29 29 29 29 28 27 25 22 21 20 21 20 21 22 21 21 20 18 17 17 16 16 16 17 16 16 16 16 16 18 17 17
25 26 26 27 26 27 26 26 27 27 28 28 28 28 29 29 29 29 29 29 29 29 28 26 23 22 21 20 19 19 21 21 20 19 18 17 17 17 16 16 16 16 16 16 16 16 17 17 17
24 23 24 25 25 25 26 25 25 27 27 27 28 28 28 29 29 29 29 29 30 29 29 26 24 22 20 19 18 18 19 19 19 18 18 17 18 17 16 16 16 16 16 16 16 17 16 16 16
22 22 21 24 25 26 26 23 26 28 28 28 28 28 28 29 29 29 29 29 30 29 29 25 22 21 19 18 17 18 18 17 18 19 18 17 17 17 17 16 16 16 16 16 16 16 15 15 15
21 20 22 23 25 26 26 24 26 28 28 28 28 28 28 28 29 29 29 29 30 30 29 25 22 20 20 19 18 17 17 17 18 18 17 18 17 16 17 16 16 16 15 15 16 15 14 14 15
21 22 23 23 25 25 24 24 25 26 26 26 26 27 28 28 29 29 29 30 30 31 28 24 21 20 20 20 17 16 16 16 16 16 17 17 16 16 16 16 15 15 14 15 14 14 14 15 15
22 21 20 22 24 23 23 23 24 25 26 25 25 26 27 27 28 29 30 30 31 30 27 23 21 20 19 17 16 16 15 15 16 17 16 16 16 15 15 15 14 14 14 15 14 14 14 14 17
22 21 21 22 23 22 23 24 25 25 25 26 26 26 26 26 27 28 29 30 30 28 26 23 21 20 20 18 17 18 17 16 16 16 15 15 15 15 15 15 14 14 14 14 14 14 14 14 17
21 20 20 21 22 23 22 22 24 25 25 25 26 26 26 27 27 28 28 28 28 28 25 24 21 21 20 19 19 18 18 17 17 16 15 15 15 15 15 15 14 14 14 14 14 14 14 14 16
20 22 22 21 21 19 22 19 23 25 26 27 26 25 25 27 27 28 28 28 27 27 25 24 22 21 20 20 19 17 16 17 17 16 16 15 15 15 15 15 14 14 14 14 14 14 14 15 16
20 22 21 21 19 19 20 20 22 25 26 27 27 27 26 26 27 28 28 29 27 26 25 24 22 21 20 20 19 18 17 17 17 17 16 16 15 14 14 14 15 13 13 13 13 13 13 14 15
21 20 20 20 19 17 20 21 21 23 23 24 26 26 26 26 27 27 28 29 28 26 25 24 22 21 20 20 18 18 18 18 17 17 16 15 14 14 14 14 14 13 13 13 13 13 13 14 15
20 19 17 18 19 18 18 18 22 22 22 24 24 23 23 22 21 22 25 29 28 26 24 24 22 21 20 20 20 19 20 19 18 16 15 14 13 13 13 13 13 13 13 13 13 13 14 14 14
20 19 17 16 17 18 20 16 21 23 22 20 19 19 19 18 17 17 18 16 27 25 24 23 22 22 21 20 20 19 18 18 17 17 15 14 13 13 12 12 13 13 13 13 12 12 13 13 14
20 19 20 18 19 18 20 19 18 17 19 19 18 17 16 15 14 15 15 15 27 25 23 22 23 22 21 20 20 19 18 18 17 16 15 15 14 13 13 13 13 13 13 13 13 12 13 13 14
20 21 17 14 15 17 20 20 16 15 15 17 16 15 14 13 11 11 11 12 21 23 20 21 21 21 20 20 19 19 18 18 17 16 15 15 14 13 13 12 13 12 13 13 13 13 13 13 14
20 19 19 18 17 16 15 15 12 14 15 15 16 14 11 10 9 9 9 9 11 17 16 17 17 18 19 19 19 18 17 17 16 16 15 15 14 14 13 13 12 13 12 13 13 13 13 13 13
21 20 19 16 16 17 17 17 15 17 17 16 14 13 10 8 7 7 7 7 7 8 12 15 15 15 16 17 16 17 16 16 15 15 15 15 14 13 13 13 13 12 12 12 12 12 12 12 12

GFSSGP_925_temp_087.txt.gz
Temp
22 22 22 21 19 18 19 22 25 27 29 31 31 29 29 29 30 26 26 29 27 25 24 25 25 25 25 24 24 23 23 23 23 22 22 22 22 22 22 21 21 20 20 20 20 20 20 20 20
22 21 21 19 18 18 19 24 26 28 30 30 31 31 30 30 30 27 25 26 27 26 24 24 25 25 24 23 23 22 22 22 22 22 22 22 22 22 21 21 21 21 20 20 20 19 19 20 20
21 21 19 18 17 19 19 24 27 29 30 32 31 32 31 31 29 28 28 27 27 26 25 25 25 25 24 22 22 22 22 21 21 21 21 21 22 21 21 21 21 20 20 20 19 19 20 20 19
20 19 19 19 18 21 23 25 26 28 30 32 32 31 31 32 30 29 28 28 27 26 25 25 25 25 24 23 22 21 21 21 21 21 21 21 21 21 21 21 20 20 20 20 19 19 20 19 19
20 17 17 18 20 22 24 26 27 28 29 30 30 30 30 30 30 29 29 27 26 25 25 25 25 25 24 23 22 21 21 21 20 20 20 20 21 20 20 21 20 20 20 20 19 19 19 19 19
17 18 17 19 21 23 25 26 27 29 30 31 29 29 30 31 29 29 29 27 27 26 25 24 24 24 23 22 22 21 21 20 20 20 20 19 20 20 20 20 20 20 19 19 19 20 19 19 19
18 17 18 19 21 24 26 27 27 28 30 29 30 28 28 27 29 29 28 28 27 25 24 23 23 23 23 21 21 21 21 20 19 20 20 20 19 19 19 19 19 18 18 17 17 19 19 19 19
19 18 19 20 22 23 26 27 28 28 29 31 31 28 28 27 28 28 28 27 26 25 24 23 22 22 22 20 20 20 20 20 19 19 19 19 19 19 19 19 19 19 20 20 16 17 19 18 19
21 18 19 20 22 23 26 26 28 28 28 30 30 30 27 28 28 28 26 25 25 24 24 22 21 21 21 21 20 19 20 19 19 19 19 19 19 19 19 19 18 19 21 19 17 16 18 19 19
18 19 20 22 23 23 25 25 25 26 26 27 29 29 28 28 28 26 26 24 23 23 23 22 21 21 20 20 20 19 19 19 19 19 19 19 19 19 19 18 18 19 19 17 17 16 17 19 19
19 19 21 22 24 24 24 25 25 24 25 25 25 26 27 25 25 24 25 27 24 24 22 22 22 20 20 20 20 20 20 19 19 19 19 19 18 18 18 17 17 18 17 17 17 16 17 19 19
19 21 22 23 24 24 24 24 24 24 24 24 24 26 27 25 23 22 24 27 27 23 23 23 22 22 21 21 20 20 19 19 19 19 19 18 18 18 17 17 17 17 16 16 16 16 17 18 19
20 21 23 23 23 23 24 24 24 23 24 24 25 26 24 24 24 25 27 28 28 24 22 23 22 22 21 20 20 20 20 19 20 19 19 18 17 17 16 16 17 17 16 16 15 17 17 17 18
21 21 21 22 21 22 23 22 22 23 23 24 24 25 25 24 23 25 26 27 28 28 23 23 22 22 22 21 20 21 20 20 20 19 19 18 18 17 16 16 16 16 16 16 16 18 17 17 18
21 19 20 21 21 21 22 22 22 23 23 24 24 25 25 25 25 23 27 27 28 28 27 22 23 22 22 21 20 20 19 20 19 19 19 18 17 17 16 16 16 16 16 15 16 17 17 17 17
18 18 18 20 21 22 21 20 23 24 24 24 25 25 25 25 24 26 27 28 28 29 27 22 22 21 21 21 21 20 19 19 19 19 18 18 17 18 17 16 16 16 16 16 16 16 16 16 16
17 15 17 19 21 22 21 21 22 23 24 23 22 22 23 25 24 25 27 28 28 29 27 21 22 21 21 20 20 19 18 18 18 18 18 18 17 17 18 16 16 16 16 16 16 16 16 15 15
16 16 17 17 19 20 19 19 21 22 22 23 22 23 23 23 23 26 27 28 28 29 26 22 21 20 20 20 18 18 17 17 17 18 18 18 18 17 16 16 16 16 15 16 15 15 15 15 14
18 18 18 18 19 20 19 19 20 22 22 23 22 23 23 24 24 26 27 28 28 28 23 21 19 19 20 18 17 17 17 16 16 17 18 18 18 17 16 16 16 15 15 16 15 15 15 14 14
18 18 17 18 20 20 19 19 19 21 22 22 23 23 23 24 24 25 25 26 27 26 23 20 19 19 18 17 17 16 16 16 16 16 17 17 17 16 16 16 15 14 15 14 14 15 14 14 14
19 18 18 18 19 19 19 19 19 21 22 23 24 24 24 24 23 25 24 24 25 24 21 19 19 19 18 18 18 17 16 16 15 15 16 16 16 16 16 15 15 14 14 14 14 14 14 14 13
18 19 20 19 18 16 19 16 19 20 21 23 23 24 23 24 24 23 24 23 22 22 20 19 19 19 18 19 18 16 15 15 15 16 16 15 15 15 15 15 15 14 14 14 14 14 14 14 14
18 19 19 18 17 16 17 16 18 20 20 22 18 20 22 22 21 22 23 23 24 22 20 19 19 19 19 19 18 17 16 16 16 16 16 15 15 15 14 14 14 14 14 14 14 13 13 14 14
19 19 17 17 16 15 17 16 17 19 20 20 18 17 16 16 15 16 16 16 19 22 21 20 19 19 19 19 18 17 17 16 16 16 15 15 15 15 15 14 14 14 14 14 14 13 13 13 14
18 17 13 14 14 14 19 17 17 16 16 17 17 16 14 14 13 13 12 12 13 15 21 19 19 19 19 19 18 17 17 17 17 16 15 15 14 14 15 14 14 14 13 13 13 13 13 13 13
16 15 13 14 14 15 18 17 16 12 16 17 16 15 13 12 11 11 11 10 11 14 20 20 19 18 18 19 18 18 17 17 17 16 16 15 15 13 13 14 13 13 13 13 13 13 13 13 13
17 16 17 16 16 15 17 18 16 15 15 15 16 14 12 10 9 9 10 9 10 18 21 19 19 19 18 19 18 17 18 17 17 17 16 15 14 13 13 13 13 13 13 13 13 13 13 13 13
18 18 13 12 13 14 18 16 14 14 15 14 14 12 10 9 8 8 8 8 8 10 14 16 19 18 18 19 19 18 18 18 17 16 15 15 14 13 13 12 13 13 13 13 13 12 13 12 13
16 16 16 15 14 13 14 14 12 13 14 14 13 11 9 8 7 7 6 6 6 7 8 11 15 17 18 19 18 18 17 18 17 16 15 15 14 13 13 12 12 13 13 13 12 12 12 12 12
15 16 15 14 14 14 14 14 14 14 14 14 12 10 8 7 6 6 5 5 5 5 6 7 10 15 17 17 17 17 17 17 16 16 15 15 14 14 13 13 12 12 12 13 12 12 12 12 13

GFSSGP_925_temp_090.txt.gz
Temp
21 21 21 20 18 15 17 19 23 24 25 28 27 29 28 29 30 26 25 27 27 26 24 23 24 24 24 25 24 24 24 24 23 23 22 22 22 22 22 21 21 21 21 20 19 20 20 20 20
21 21 20 16 16 16 17 20 23 25 26 26 28 29 29 30 27 23 24 24 27 27 25 24 24 24 24 24 23 23 23 23 23 23 22 22 22 21 21 21 21 20 20 19 19 19 20 20 20
20 20 17 16 14 17 17 21 24 25 26 26 28 30 30 29 26 25 27 25 26 25 25 24 24 23 23 23 23 23 23 23 23 22 22 21 21 21 21 21 21 20 20 19 19 18 19 20 20
20 18 16 16 16 17 20 22 24 24 25 26 29 30 30 28 27 28 26 26 26 25 25 24 24 23 22 23 23 22 22 22 22 22 22 21 21 21 21 21 20 20 20 20 19 19 20 19 19
19 14 16 15 16 18 21 22 23 24 25 26 28 29 29 28 29 28 26 27 27 25 25 24 23 22 22 22 22 22 22 21 21 21 21 21 21 20 20 20 20 20 20 20 20 20 19 19 19
16 14 15 16 18 21 21 22 23 25 26 26 26 28 28 28 26 25 26 27 27 26 25 24 23 23 23 22 22 22 21 21 21 21 21 21 20 20 20 20 20 19 19 19 19 18 18 19 18
16 14 15 17 18 20 23 23 24 25 25 26 27 26 27 25 26 26 27 27 26 26 25 23 23 23 23 22 22 21 21 21 20 20 20 20 20 20 20 20 19 19 19 19 19 19 17 18 19
15 15 17 17 19 18 22 23 25 24 24 26 29 27 28 26 25 25 25 24 24 24 25 24 23 23 21 21 21 21 21 21 20 20 20 20 19 19 19 19 19 19 19 19 19 19 18 17 19
18 15 15 17 19 20 23 23 24 25 25 25 25 25 26 26 25 23 21 20 21 22 22 23 23 22 21 20 20 20 20 20 20 19 19 19 19 18 19 19 19 19 19 18 19 19 19 16 18
16 15 17 19 20 20 22 22 22 23 23 24 24 24 27 25 25 22 21 20 19 21 22 23 23 22 21 20 19 19 20 19 19 19 19 19 19 18 18 18 19 18 18 18 18 19 17 16 17
17 17 19 20 20 20 21 22 23 22 23 24 23 23 25 25 23 22 22 22 23 23 21 22 23 23 22 20 19 19 19 19 19 19 19 19 19 18 18 18 17 17 17 17 18 17 17 16 16
17 19 20 20 21 21 21 22 22 21 22 24 22 23 23 24 23 20 21 23 22 22 24 23 23 23 22 21 20 20 19 19 19 19 19 19 18 18 18 18 17 17 17 18 16 18 16 16 16
18 19 20 20 20 21 21 21 21 21 21 21 22 22 22 21 21 26 25 24 24 21 22 22 22 22 22 21 20 20 20 19 19 19 18 19 19 18 18 18 17 17 16 16 17 17 16 16 16
19 19 19 19 19 19 20 19 20 22 21 21 21 22 22 21 21 21 25 25 23 22 21 22 21 22 22 21 20 20 20 20 19 19 18 19 19 18 18 17 16 16 16 16 16 17 17 16 16
19 18 17 19 20 19 20 20 20 20 20 20 22 23 23 23 22 21 24 26 27 25 23 22 22 22 21 21 20 20 20 19 19 19 18 18 18 18 17 16 16 16 15 15 15 16 16 16 17
17 17 16 19 20 20 19 18 20 21 21 21 22 22 23 23 23 25 25 25 27 27 23 24 22 21 21 21 20 20 19 20 19 19 18 18 18 17 17 16 16 16 16 15 15 15 16 17 17
15 14 15 17 19 18 19 18 19 19 20 20 20 19 20 20 21 23 25 24 26 27 25 22 21 21 21 20 20 20 19 20 19 19 18 18 18 17 17 17 17 16 15 16 15 15 16 16 16
14 15 14 14 17 18 17 17 19 19 18 19 19 18 19 20 21 23 25 25 25 26 25 23 22 21 19 19 19 19 19 18 19 18 18 18 17 17 17 17 17 16 15 15 15 15 16 16 16
15 15 15 16 17 18 17 17 18 19 18 18 19 20 21 22 23 23 24 26 25 25 24 22 20 18 18 17 17 17 17 17 17 18 17 17 17 17 17 17 16 16 15 15 15 14 15 14 15
16 15 15 17 17 18 18 18 19 18 18 20 20 20 21 22 23 23 23 24 25 23 23 20 20 19 18 18 17 17 17 17 17 17 17 17 17 18 17 16 16 15 15 14 14 14 14 14 14
16 16 16 17 18 17 17 17 18 18 18 19 20 19 16 16 22 23 24 21 24 22 20 19 19 19 17 17 16 17 16 16 16 16 16 16 17 16 16 16 16 15 14 14 14 14 14 14 13
16 18 18 17 16 15 17 15 17 18 19 20 20 15 14 14 14 18 17 16 17 21 21 19 18 18 17 17 16 17 16 15 15 15 15 16 16 16 16 16 15 15 14 14 14 14 14 14 13
17 18 17 17 15 15 17 14 17 17 15 15 16 15 14 13 13 12 12 12 13 19 20 19 18 17 16 17 17 16 15 15 15 15 15 16 16 15 15 15 15 15 14 14 13 13 14 14 13
19 18 16 16 14 14 16 14 15 14 13 14 15 14 13 12 11 11 11 11 11 15 19 18 18 16 16 16 16 16 15 15 15 15 15 15 15 15 14 15 14 15 14 14 14 14 14 13 13
18 15 13 12 12 13 17 16 16 13 14 14 14 13 11 10 10 10 11 10 10 10 14 18 17 16 16 16 16 16 17 16 16 15 15 14 14 14 15 15 14 14 14 14 14 14 13 13 13
15 14 12 13 13 15 17 14 15 14 14 14 13 12 10 9 9 9 9 9 9 10 15 17 17 16 16 16 15 16 17 16 16 16 15 14 14 16 16 15 15 14 14 13 13 13 13 13 13
16 14 16 14 15 13 14 14 15 15 15 14 13 12 9 8 8 8 8 7 8 8 10 16 17 16 15 15 16 17 17 17 16 16 16 15 15 16 15 14 13 13 13 13 13 13 13 13 13
16 16 13 10 13 13 15 16 15 14 15 15 13 10 8 7 7 7 6 6 6 7 8 12 15 16 15 15 16 17 17 17 17 16 15 15 15 14 14 13 13 12 13 13 13 13 13 13 13
12 12 12 13 12 13 12 12 13 13 14 14 11 9 6 6 6 6 5 5 5 5 6 8 11 15 15 15 16 17 16 16 17 16 16 16 15 13 13 12 12 13 13 13 13 13 13 13 13
14 12 12 11 12 12 12 14 14 13 14 11 9 8 6 5 5 5 4 4 4 4 5 6 8 10 15 14 16 16 17 16 16 16 16 16 14 13 13 12 12 12 13 13 12 12 12 13 12

GFSSGP_925_temp_096.txt.gz
Temp
20 21 20 19 18 14 16 18 18 21 23 24 22 25 24 25 26 25 23 23 24 26 25 25 24 24 24 23 24 24 24 24 24 24 24 24 24 23 23 23 22 21 21 19 19 20 20 20 20
20 20 20 14 16 16 17 17 19 21 23 21 23 24 24 25 25 25 24 24 23 25 25 24 24 24 23 23 23 24 24 23 23 23 23 23 23 22 22 22 22 21 20 20 19 20 20 20 20
19 19 16 16 13 16 17 18 21 22 21 22 23 24 24 26 25 24 26 25 24 25 25 24 24 24 23 23 23 23 23 23 23 23 23 23 22 22 22 21 21 20 20 20 19 19 20 20 20
19 16 13 15 15 15 17 21 19 20 22 23 24 22 24 28 26 27 25 26 25 24 24 24 24 23 23 23 23 23 23 22 22 22 22 22 22 21 21 21 21 20 20 20 19 19 20 20 20
17 13 14 14 14 16 17 18 21 20 21 22 23 23 23 25 25 26 25 26 26 25 24 24 24 23 23 23 23 23 22 22 22 22 22 21 21 21 21 20 20 20 20 20 19 19 19 20 20
14 12 14 14 15 17 18 19 20 22 22 22 22 22 22 26 24 22 20 20 23 24 24 23 23 23 23 23 23 22 22 22 21 21 21 21 21 21 21 20 20 20 19 19 19 19 19 19 19
14 13 14 14 16 18 19 20 21 22 21 22 22 22 22 22 23 23 20 19 21 22 22 22 22 22 22 22 23 22 22 22 21 21 21 21 20 20 20 20 20 19 19 19 19 19 19 19 19
12 13 14 14 16 17 19 22 22 21 21 22 24 22 21 22 21 21 21 20 19 21 21 20 19 20 21 22 22 22 22 21 21 21 20 20 20 20 20 20 19 19 19 19 19 19 19 19 18
13 13 11 15 16 18 20 20 20 22 21 21 22 22 22 23 20 20 20 20 19 19 19 18 19 18 20 20 21 21 21 21 21 20 20 20 19 19 19 19 19 19 19 19 19 19 19 19 18
14 11 13 15 17 18 19 18 19 21 20 20 20 20 23 24 21 20 19 18 18 18 19 19 18 18 18 20 20 20 20 20 20 20 20 19 19 19 19 19 19 18 19 18 19 19 18 18 17
14 13 15 17 18 18 18 18 19 19 18 19 20 20 19 22 21 20 20 20 21 19 19 18 18 20 20 19 19 19 19 20 20 20 19 19 18 18 18 18 18 18 18 18 18 18 17 18 17
15 14 16 17 17 17 17 18 18 18 19 19 19 19 19 19 19 20 21 23 22 22 22 20 19 17 20 20 20 19 19 19 20 20 19 19 18 18 18 18 18 18 18 18 17 17 17 17 17
15 16 16 17 16 16 16 16 17 18 18 18 17 18 17 17 18 21 23 24 26 22 23 22 21 19 18 19 19 19 19 20 19 19 19 19 18 18 18 17 17 17 17 17 16 16 16 16 17
17 16 17 16 16 17 17 17 16 18 18 17 18 17 17 17 17 19 20 22 23 25 25 24 22 22 19 18 18 19 18 19 19 19 18 18 18 18 18 16 16 16 16 16 16 17 15 15 14
17 16 16 16 17 16 18 17 16 17 18 17 17 17 17 17 18 17 21 21 23 24 25 25 23 22 21 20 19 19 20 18 19 19 18 18 18 18 17 17 16 16 15 15 16 16 15 15 15
16 15 15 17 17 18 18 17 18 18 18 17 17 17 17 16 17 19 20 20 22 22 23 24 23 21 20 20 20 19 20 20 20 19 18 17 17 18 16 16 16 15 15 14 15 15 15 15 15
13 13 15 16 17 17 17 16 18 17 16 16 16 15 15 16 16 17 17 17 18 20 22 23 22 20 19 20 19 19 19 19 19 19 18 17 17 17 16 16 16 15 14 14 14 14 14 14 14
13 13 13 14 16 15 14 14 15 16 16 15 15 14 14 13 14 14 14 14 15 16 18 22 22 20 19 18 17 17 17 18 19 18 18 17 16 17 17 16 15 14 14 14 14 14 14 14 14
15 14 13 13 14 15 14 15 15 16 15 14 14 12 12 12 13 13 13 12 12 14 14 18 21 20 17 18 17 17 17 16 16 17 18 18 17 17 17 16 15 14 14 14 14 14 14 14 14
13 13 12 13 14 14 13 15 15 15 16 15 13 13 12 12 12 13 12 11 11 10 11 13 17 20 18 18 17 17 17 17 16 16 16 19 17 18 17 16 15 15 14 14 14 14 14 14 14
13 13 13 14 15 15 14 13 16 17 15 14 14 14 13 11 11 11 11 11 11 10 9 10 13 17 18 17 17 17 16 16 16 16 16 16 17 18 17 16 15 15 14 14 14 14 14 14 14
13 14 14 14 14 13 16 13 17 15 15 14 14 12 11 10 10 10 10 10 10 10 9 9 10 13 17 17 17 16 17 17 16 16 16 16 16 17 17 16 16 16 14 14 14 14 14 14 14
14 15 14 14 13 12 14 13 13 14 14 14 13 13 10 9 9 8 9 9 9 8 8 8 10 12 17 17 17 16 17 17 16 17 22 20 15 17 17 16 16 15 14 14 15 14 14 14 13
17 16 15 12 12 12 14 13 12 14 14 13 14 13 12 10 9 9 9 8 7 7 7 7 9 13 16 17 16 16 16 16 15 15 15 14 15 17 16 16 16 15 15 14 14 14 14 13 13
16 14 13 13 12 13 13 13 13 14 14 13 13 12 10 9 8 8 7 7 6 6 6 6 8 11 16 17 16 15 16 15 15 15 15 15 14 15 15 16 15 15 15 14 14 14 14 14 13
14 14 13 13 13 13 15 13 14 14 14 13 11 9 8 7 7 7 6 6 5 5 5 5 7 9 16 16 16 15 15 15 16 15 14 14 14 14 14 15 14 15 14 14 14 14 14 14 13
14 13 14 13 13 13 13 13 14 13 13 11 9 8 7 6 6 6 5 4 4 4 4 5 6 8 15 15 15 14 15 15 15 14 14 14 14 14 14 13 13 14 14 14 14 14 14 13 13
13 13 11 10 12 13 13 13 12 13 12 10 8 7 6 5 5 4 4 4 3 3 3 4 5 7 15 15 14 14 14 14 15 15 13 13 13 13 13 13 13 14 14 14 14 14 13 13 13
11 11 10 10 11 11 11 10 11 10 9 8 8 7 5 4 4 4 3 3 3 3 3 3 4 6 9 14 14 14 14 14 14 14 13 14 14 13 14 14 14 14 14 13 13 13 13 13 13
11 10 10 9 10 9 10 10 10 9 8 8 7 6 5 4 3 3 3 2 2 2 2 2 3 5 7 11 14 14 14 15 17 13 14 14 15 14 14 14 13 13 12 13 12 12 13 12 12

GFSSGP_925_temp_102.txt.gz
Temp
20 21 22 26 28 29 31 31 30 30 30 30 29 29 30 32 31 32 32 26 25 25 24 23 24 24 24 24 24 24 24 24 24 23 24 23 23 22 22 22 21 21 20 20 20 20 21 20 21
21 22 24 28 28 31 33 32 30 31 29 29 29 29 30 30 30 31 31 26 25 25 24 22 23 24 24 24 24 24 24 24 23 23 23 23 23 22 22 22 21 21 20 20 20 20 21 21 21
21 22 28 28 29 30 32 30 30 29 28 28 29 30 29 29 29 29 27 26 25 25 24 23 24 24 24 24 24 24 24 24 24 23 23 23 23 22 22 22 21 21 20 20 20 20 21 20 21
23 25 26 27 29 30 29 29 28 28 29 28 29 29 30 28 28 27 26 24 24 24 24 24 23 24 24 24 24 24 24 23 23 23 23 23 23 22 22 22 21 21 20 20 20 20 20 20 20
23 26 27 27 29 30 28 28 28 28 28 28 29 29 29 29 28 26 25 23 23 24 24 22 21 23 24 24 24 24 23 23 23 23 23 23 22 22 22 22 21 21 20 20 20 20 20 20 20
25 26 26 29 30 30 27 28 28 27 28 28 27 28 29 28 28 26 24 23 22 23 22 22 19 22 23 23 23 23 23 23 23 23 23 23 22 22 22 21 21 21 20 20 20 19 20 20 20
25 26 27 28 29 28 27 27 27 27 27 28 27 26 29 29 27 26 24 23 21 21 21 21 20 20 22 23 23 23 22 22 22 22 22 22 22 22 21 21 21 21 20 20 20 20 19 19 20
25 25 26 26 27 27 28 26 27 27 28 26 27 27 27 28 26 26 25 24 22 21 20 20 20 19 20 20 22 22 22 22 22 22 22 22 21 21 21 21 20 20 20 20 20 20 19 19 19
23 24 25 27 26 27 26 26 28 26 26 27 26 27 27 26 26 26 27 26 23 21 21 19 19 19 19 20 20 21 21 21 21 21 21 21 20 20 20 20 20 20 20 20 20 20 19 19 19
23 24 26 27 26 26 26 25 26 25 26 26 26 27 26 26 26 26 27 27 25 24 21 21 19 19 18 18 19 19 20 20 19 20 20 20 21 21 21 20 19 20 19 19 19 20 19 19 19
23 23 26 24 24 25 25 25 26 25 25 26 25 26 26 26 26 26 26 27 26 25 23 22 20 20 19 18 19 18 19 20 20 20 21 20 21 21 20 21 19 19 19 19 19 18 19 19 19
21 22 23 24 24 24 24 25 24 25 25 26 26 26 26 26 26 26 26 26 26 26 25 23 21 20 19 19 19 18 18 18 18 18 19 19 19 21 21 21 21 20 20 20 20 20 20 19 19
21 23 23 23 23 23 24 23 24 24 26 26 26 25 25 25 26 26 26 25 25 25 25 24 22 21 20 19 20 19 18 19 19 18 18 18 19 19 21 21 20 20 21 20 20 19 18 19 18
23 22 23 23 23 23 22 23 24 24 25 25 25 25 25 25 25 25 25 24 23 23 23 22 23 22 21 20 20 20 20 20 19 18 18 18 18 19 18 18 18 21 20 19 19 18 18 18 18
21 21 22 23 23 23 23 22 23 24 25 24 24 25 25 25 24 24 22 22 22 21 21 20 20 21 21 20 20 20 20 20 21 18 17 17 18 18 18 18 18 18 19 18 17 17 17 17 17
20 21 22 24 23 23 22 23 24 25 24 24 25 25 24 24 23 21 20 20 20 20 19 19 19 19 20 21 20 21 21 20 21 20 17 17 17 18 17 17 17 17 17 16 16 16 16 16 17
21 22 22 23 23 23 22 23 24 24 23 23 24 25 24 23 23 20 19 19 18 18 18 18 18 18 18 20 20 20 20 20 20 20 19 18 17 17 17 17 17 16 17 16 16 16 16 15 16
21 21 22 22 23 21 22 22 23 24 24 23 24 24 23 22 22 20 19 18 17 17 16 17 17 16 16 17 20 20 20 18 19 19 19 18 17 17 17 17 16 16 16 16 15 15 15 15 16
20 21 22 22 22 20 21 22 23 24 24 23 24 22 22 21 21 20 19 18 17 16 16 15 15 15 15 17 19 21 20 19 19 20 19 18 17 17 16 16 16 16 15 16 15 15 15 15 15
19 19 20 21 21 20 21 22 23 24 24 23 23 22 20 20 20 19 18 17 16 15 15 14 14 14 14 15 16 20 21 21 19 20 20 18 17 16 16 16 15 15 15 15 15 15 14 15 15
18 19 20 20 21 20 21 21 23 22 22 22 21 20 19 19 18 18 17 16 15 14 13 12 12 12 12 13 14 16 19 21 19 18 18 17 17 16 16 15 15 15 15 15 16 15 14 14 14
18 19 19 19 19 20 21 22 22 22 21 21 20 20 19 18 18 17 16 15 13 12 11 9 9 10 10 11 13 16 18 21 20 19 17 17 16 16 15 15 16 16 15 15 15 15 15 15 15
18 19 18 19 19 20 21 20 23 22 21 21 20 19 18 17 16 16 15 13 12 10 8 7 7 7 8 8 10 12 16 20 21 20 18 16 16 16 15 15 16 15 15 15 15 15 16 15 14
18 17 18 19 19 18 20 21 23 21 22 21 19 18 16 15 15 15 14 12 12 10 8 6 5 6 6 7 8 10 14 18 21 20 18 16 16 15 15 15 15 15 15 15 15 15 16 15 15
16 17 16 15 16 18 21 21 22 21 20 20 18 16 15 15 14 14 13 12 10 8 7 5 4 4 5 6 7 10 14 17 20 20 19 16 15 15 15 15 14 16 17 16 15 15 15 15 14
16 17 16 15 18 20 19 19 20 18 17 16 15 15 14 14 13 13 12 10 9 7 6 4 3 3 4 5 7 9 16 18 19 19 18 17 16 16 16 15 15 15 19 18 15 15 15 15 14
18 17 20 18 18 18 20 20 17 15 15 15 15 14 14 13 12 12 11 9 8 6 5 3 2 3 3 5 6 9 17 19 17 17 17 17 18 19 17 15 14 14 14 14 14 15 15 14 14
18 19 16 17 16 17 20 20 20 15 15 15 15 14 13 12 11 11 10 8 7 5 4 2 2 2 3 4 5 9 16 16 16 16 17 16 18 17 16 15 14 14 15 14 15 15 14 14 14
17 17 16 17 17 17 17 19 15 15 14 14 14 13 12 11 10 9 9 7 6 5 4 1 1 1 2 3 5 7 14 15 15 15 15 15 15 15 15 15 14 14 14 14 14 14 14 14 14
15 15 16 15 16 16 15 17 15 15 13 13 13 12 10 10 9 9 8 7 6 5 3 1 0 0 1 2 3 5 8 11 14 14 14 14 14 14 14 15 14 14 14 14 14 14 14 14 13

GFSSGP_925_temp_105.txt.gz
Temp
22 22 26 29 30 32 33 35 36 34 33 33 33 32 33 33 34 33 33 30 28 28 25 25 25 24 25 25 25 25 25 25 24 24 24 24 23 23 22 22 21 21 20 20 20 20 20 20 21
24 26 27 31 30 32 35 37 34 34 33 32 32 32 32 33 33 32 32 29 29 28 27 23 24 24 24 24 25 25 25 25 24 24 24 24 23 23 22 22 21 21 20 20 20 20 20 20 20
23 26 29 31 31 32 34 34 34 33 31 32 32 33 32 32 32 31 30 28 28 28 28 24 23 23 24 24 24 24 25 24 24 24 24 23 23 23 22 22 21 21 21 20 20 20 20 20 20
26 28 29 29 31 34 34 34 32 32 32 32 32 31 33 31 30 30 29 28 27 28 27 26 24 23 23 23 23 24 24 24 23 23 23 23 23 23 22 22 21 21 21 21 21 20 20 20 20
26 29 29 30 31 33 35 33 32 32 32 32 32 31 32 32 30 30 28 27 26 27 27 25 24 23 23 23 23 23 24 23 23 23 23 23 23 23 22 22 22 21 21 21 21 20 20 20 20
28 29 29 30 32 34 35 33 31 31 31 31 31 31 31 32 31 29 28 26 25 25 26 24 22 22 22 23 23 23 23 23 23 23 22 22 22 22 22 22 21 21 21 21 20 20 20 20 20
26 29 29 30 31 33 33 33 30 31 31 31 32 29 31 32 30 28 28 27 26 24 24 24 21 20 22 22 22 22 22 23 23 23 22 22 22 22 22 22 21 21 21 21 20 20 20 20 20
28 28 28 30 30 31 33 32 30 30 30 30 30 29 30 32 29 28 29 29 27 24 23 24 23 21 20 20 22 22 22 22 22 22 22 22 22 21 21 21 21 21 21 21 20 20 20 20 20
27 26 27 29 30 31 32 29 31 31 29 30 30 29 30 29 28 28 29 29 28 25 23 22 22 21 21 22 20 21 21 21 21 21 21 21 20 20 20 20 20 21 20 20 20 20 20 20 19
26 26 28 31 31 30 31 30 29 29 29 28 29 30 29 28 28 28 29 29 29 27 25 22 21 20 20 22 22 20 20 20 20 20 20 20 21 22 22 21 20 20 20 20 20 20 20 19 19
26 25 29 30 30 28 28 29 30 29 28 29 28 29 29 28 28 28 28 29 29 28 26 25 22 21 20 20 20 21 22 22 21 21 21 21 22 22 22 23 20 20 19 19 19 19 19 19 20
25 26 27 28 29 27 27 28 28 28 28 29 29 28 28 28 28 28 28 29 28 28 27 26 24 23 21 23 21 21 22 21 23 23 22 22 22 23 23 23 23 21 21 20 21 20 20 20 20
26 26 27 28 27 27 27 27 27 28 29 29 29 28 27 28 28 27 28 28 28 27 27 26 25 24 23 22 23 23 22 22 21 21 21 22 23 23 23 23 24 22 22 21 21 20 20 20 20
26 26 26 26 27 26 25 26 27 27 28 28 28 28 27 27 28 27 27 27 26 25 25 24 23 24 24 23 22 23 22 23 22 22 19 19 20 20 22 23 23 23 22 21 21 21 21 20 20
24 23 25 26 26 26 26 25 26 27 28 27 28 27 28 28 27 27 26 25 25 24 24 23 22 22 22 23 23 22 22 22 23 23 21 19 18 19 22 21 21 22 23 21 21 20 20 19 19
23 24 23 26 27 27 26 24 28 29 28 27 27 28 27 27 26 25 24 24 23 23 22 21 21 20 20 20 21 23 23 22 22 23 22 19 19 20 20 21 19 19 21 20 19 20 19 19 19
22 21 24 26 28 26 26 25 27 28 26 27 27 27 27 27 26 24 23 23 22 22 21 20 20 20 19 19 19 21 22 22 23 23 23 21 19 20 19 21 19 20 20 19 18 19 18 18 19
21 22 25 24 27 25 26 25 26 27 26 26 27 27 27 26 26 23 22 21 21 20 19 19 19 18 18 18 19 19 21 22 22 23 23 22 20 19 19 19 18 18 18 18 17 17 17 17 18
22 22 23 26 28 25 24 25 26 27 26 26 26 26 26 25 24 23 21 20 20 19 18 18 17 17 17 18 19 20 21 23 23 22 22 22 21 19 19 18 18 18 17 18 17 16 16 16 16
20 21 21 22 24 24 24 24 26 26 26 27 27 26 25 24 24 22 21 20 18 18 17 16 16 16 15 16 17 17 19 21 23 23 22 22 21 19 18 18 18 17 17 18 17 16 16 16 16
15 17 19 18 20 23 23 23 25 26 27 27 26 26 24 23 22 21 20 19 18 17 15 14 13 13 13 14 14 15 17 18 19 21 22 21 21 19 18 18 18 17 17 16 16 16 16 16 15
13 17 18 18 19 20 24 21 25 26 25 24 24 23 23 22 21 20 20 18 17 16 14 13 12 11 12 12 12 12 15 18 21 22 23 21 20 19 18 17 17 17 16 16 16 16 16 17 16
14 16 16 17 18 20 21 22 25 25 24 23 23 23 21 20 19 19 19 17 16 15 13 12 10 10 10 10 9 9 11 14 18 20 23 22 20 19 18 17 16 16 16 16 16 16 16 16 16
13 13 16 18 19 17 18 21 23 23 24 24 23 21 20 19 19 18 17 16 15 14 12 11 10 9 8 7 6 7 8 10 14 19 22 22 20 18 17 17 16 16 15 16 17 18 16 17 17
13 11 12 13 15 17 21 21 21 23 25 24 21 20 18 18 18 17 16 15 14 12 11 9 8 7 7 5 5 6 7 8 11 15 19 22 18 16 16 16 16 16 16 17 19 20 16 17 17
14 13 14 14 14 16 19 18 18 21 21 20 19 18 18 17 17 16 15 14 12 11 9 7 6 6 5 4 4 5 6 8 10 14 18 20 19 17 16 16 15 15 15 16 16 16 16 16 16
14 15 17 16 17 18 17 18 18 18 17 18 18 18 17 17 16 15 14 12 11 9 8 6 6 5 4 3 3 4 6 8 12 16 19 19 18 17 16 16 15 16 15 15 15 15 15 16 16
18 18 16 16 15 17 20 19 18 16 17 18 17 16 16 16 15 14 13 12 10 9 8 6 5 4 3 2 2 4 5 7 13 18 19 19 18 18 17 16 15 15 15 15 15 15 15 16 16
18 15 16 15 16 16 17 17 16 16 17 17 16 15 15 14 13 13 13 11 10 8 7 5 4 3 2 1 2 3 4 5 9 16 18 18 18 18 18 17 15 15 15 15 15 15 15 16 16
17 18 16 13 15 15 17 16 16 17 16 16 16 15 14 13 12 12 12 10 9 7 6 5 3 2 1 0 1 2 2 4 5 10 13 17 17 18 17 16 16 16 15 14 15 16 15 15 15

GFSSGP_925_temp_108.txt.gz
Temp
23 23 24 28 27 29 30 34 37 35 34 34 34 33 33 33 33 31 31 30 30 27 26 27 26 25 25 25 25 25 25 25 25 24 24 24 24 24 23 22 22 22 21 21 21 21 21 21 21
21 24 27 29 28 29 32 36 35 33 33 33 33 33 33 33 34 33 31 29 29 29 26 26 25 25 25 24 25 25 25 25 25 24 24 24 24 23 23 22 22 21 21 21 21 20 20 20 21
22 25 28 29 29 29 32 35 34 33 33 33 32 33 33 33 32 32 30 29 28 29 27 24 25 25 24 24 24 24 25 24 24 24 23 24 24 23 23 22 22 21 21 21 20 20 20 20 20
25 28 28 28 29 32 33 35 34 33 33 33 33 32 34 32 31 31 30 28 28 28 29 26 24 24 24 23 24 24 24 24 24 24 23 24 23 23 23 22 22 21 21 21 21 20 20 20 20
26 28 28 28 30 31 33 35 34 32 33 33 33 31 32 32 31 30 29 28 26 27 27 26 25 24 23 23 23 23 24 24 24 24 23 23 23 23 23 22 22 21 21 21 21 21 20 20 20
27 28 27 28 30 33 35 35 33 32 32 32 32 32 32 33 32 30 29 28 26 25 25 25 24 24 23 23 23 23 23 23 23 23 22 23 23 23 22 22 22 22 21 21 20 20 20 20 20
25 27 27 29 30 31 33 35 33 32 32 32 33 31 32 33 30 29 29 29 28 25 25 24 24 23 22 23 22 22 23 23 22 22 22 22 22 22 22 22 22 22 21 21 21 21 20 20 20
26 27 26 28 29 30 33 34 33 31 31 32 31 29 29 31 29 29 29 29 29 25 24 24 23 22 21 22 22 21 22 22 22 22 22 22 21 22 22 22 21 21 21 21 21 21 20 20 20
28 25 25 27 29 31 33 33 32 32 31 31 31 30 30 30 29 29 29 29 29 26 24 24 23 22 20 20 21 21 21 21 21 22 21 21 21 21 20 21 21 21 20 20 20 20 20 20 20
26 25 26 29 30 31 32 31 32 30 30 29 29 31 31 30 29 28 29 29 29 29 25 24 23 22 21 22 21 21 21 21 21 21 21 21 20 20 20 20 20 20 20 20 20 20 20 19 19
26 25 26 28 29 29 29 30 30 29 29 30 29 30 30 30 29 28 28 28 29 29 26 22 23 22 21 22 22 21 20 20 20 20 20 21 20 21 21 21 21 20 20 19 19 19 19 19 19
25 27 27 27 28 28 28 29 28 28 29 30 30 30 29 29 28 27 27 28 29 28 28 25 23 22 22 21 21 21 22 21 21 21 21 21 21 21 22 22 21 21 20 20 19 19 19 19 19
25 26 27 28 28 28 28 27 27 28 29 30 30 30 29 28 28 28 28 28 28 28 26 25 24 23 22 21 21 21 22 22 22 22 21 21 21 22 22 22 22 21 21 20 20 20 20 20 20
24 25 25 26 27 27 27 27 27 28 29 29 29 29 29 28 28 28 28 28 27 26 25 24 23 22 22 22 22 21 21 22 22 22 22 21 22 22 23 23 23 22 22 22 21 21 21 20 20
24 23 24 25 25 26 27 26 26 28 28 28 28 28 29 28 28 28 27 26 26 25 24 23 22 22 21 21 21 22 22 21 22 22 22 22 22 21 22 23 23 23 22 22 22 21 21 20 20
22 22 22 24 26 27 26 24 26 28 28 28 28 28 28 28 28 27 25 24 24 24 22 21 21 20 20 20 20 21 21 23 22 22 22 21 21 21 20 21 22 22 23 22 21 21 21 20 19
21 20 21 23 26 27 27 26 27 28 28 28 28 28 28 27 27 26 24 24 23 22 21 20 20 19 19 19 19 19 20 21 22 22 22 22 20 20 19 20 21 22 22 21 20 20 20 19 19
20 22 23 23 25 26 26 27 28 28 28 27 27 28 28 27 27 24 23 22 21 20 19 19 18 17 17 18 18 19 19 20 21 22 22 22 21 20 19 19 20 20 20 20 20 19 19 19 19
22 21 21 23 24 24 24 23 27 27 27 27 26 27 27 27 25 23 22 21 20 19 18 16 16 16 15 16 17 17 18 20 21 21 22 23 22 20 19 19 19 19 19 19 18 18 19 18 18
20 19 19 20 22 22 21 19 19 27 27 27 27 27 27 26 24 23 21 20 19 18 16 15 15 14 13 14 14 14 14 15 16 18 20 21 22 22 20 19 19 19 18 18 18 17 17 17 18
19 19 18 18 19 20 19 17 19 24 26 27 28 28 27 24 23 22 21 19 18 17 15 14 13 12 12 12 12 13 13 14 16 17 19 20 22 22 21 19 19 19 18 16 17 17 16 17 16
17 19 18 17 16 14 18 15 18 22 24 26 27 26 24 22 22 21 20 18 18 16 14 13 12 12 11 11 10 10 10 11 12 13 16 20 21 21 21 20 18 18 19 18 17 17 16 17 16
17 15 15 14 14 14 15 15 18 22 22 24 24 23 21 20 20 19 18 17 16 14 13 12 10 10 9 9 8 7 7 8 10 11 13 16 18 21 21 19 18 18 17 17 17 17 16 16 16
14 13 14 13 13 12 15 16 16 19 23 24 23 21 20 19 19 18 17 16 14 13 12 10 8 8 8 7 6 5 5 6 7 8 10 12 16 19 20 20 18 17 17 17 17 18 16 16 17
14 11 12 12 13 15 18 16 16 20 19 23 18 19 19 18 17 17 16 14 13 12 10 8 7 7 7 6 4 4 4 4 5 7 8 10 13 17 18 19 18 17 16 17 17 16 15 16 16
15 12 13 13 14 16 18 13 15 16 18 17 15 16 18 17 16 15 15 13 12 11 9 7 6 6 5 4 4 3 3 4 5 6 8 9 12 15 18 16 19 18 17 16 16 17 16 16 16
13 12 14 14 13 13 15 16 16 16 17 15 14 15 16 16 15 14 14 12 11 10 9 7 5 4 4 3 3 2 3 4 5 6 7 9 11 14 18 17 17 16 17 17 16 14 14 15 16
16 16 12 11 13 14 18 17 15 16 16 16 15 15 15 15 14 14 13 12 10 9 8 6 4 3 2 2 2 2 2 3 4 5 7 11 13 16 18 17 16 16 16 16 15 16 16 16 16
17 17 13 12 15 14 16 14 12 11 12 14 16 15 14 14 13 12 12 11 9 8 6 5 4 2 1 1 1 1 1 2 3 4 5 7 12 17 18 17 16 15 15 15 15 15 15 16 16
18 17 13 12 13 13 13 14 12 10 13 16 16 15 14 13 11 11 11 9 8 7 5 4 3 2 -0 -0 0 1 0 1 2 2 3 5 7 14 17 17 17 15 15 15 15 15 15 15 15

GFSSGP_925_temp_111.txt.gz
Temp
23 23 22 22 21 20 22 25 28 29 29 30 31 29 30 30 30 25 28 29 27 28 27 26 26 27 26 26 25 26 26 25 25 25 25 25 25 24 24 24 23 22 22 22 21 21 21 21 21
23 23 22 20 21 21 22 28 28 29 29 31 31 31 31 30 30 27 27 28 27 27 27 26 25 26 25 25 25 25 25 25 25 25 25 25 25 24 24 23 23 22 22 22 22 21 21 21 21
23 22 20 20 20 21 23 29 29 29 31 31 31 31 31 28 29 28 28 28 28 26 27 27 26 25 25 25 24 24 24 24 24 24 24 24 24 24 24 23 23 22 21 21 21 21 20 20 21
22 21 20 21 21 23 26 28 31 30 31 31 31 31 30 31 30 29 28 27 27 26 25 26 26 25 24 24 24 24 24 24 24 24 24 24 24 24 23 23 23 22 21 21 20 20 20 20 20
23 19 20 21 22 24 27 29 30 31 30 30 30 30 30 30 29 29 28 28 27 26 25 25 25 25 24 24 24 23 24 23 24 23 23 23 23 23 23 23 23 22 21 21 21 21 21 20 20
19 19 20 20 22 26 27 29 31 30 31 31 30 30 30 30 29 29 28 28 27 26 25 25 24 24 24 24 23 23 23 23 23 23 23 23 23 23 23 22 22 22 21 21 20 21 21 21 21
20 18 19 20 23 25 28 29 30 30 30 30 30 29 28 26 28 29 29 28 26 26 25 24 24 23 23 23 23 23 22 22 23 23 23 23 23 23 22 22 22 22 21 21 21 20 21 20 20
20 19 20 21 23 23 28 29 30 29 29 29 30 28 28 26 29 28 29 29 25 25 25 24 24 23 23 22 22 22 22 22 22 22 22 22 22 22 22 22 22 21 21 21 20 20 20 20 20
22 18 20 21 23 25 28 26 27 30 30 30 29 29 29 29 29 28 28 29 26 25 24 23 23 23 22 22 21 22 22 22 22 21 21 21 21 21 21 21 21 21 21 21 20 20 20 20 20
19 18 20 23 24 24 25 25 26 26 27 28 29 28 30 30 28 27 27 26 27 24 24 24 23 23 23 21 21 21 22 21 21 21 21 21 21 21 21 21 21 21 21 21 20 20 20 19 19
21 21 22 24 25 25 24 25 26 25 25 26 26 26 26 27 26 26 27 27 28 26 24 24 23 23 23 21 21 21 21 21 21 21 21 21 21 21 21 21 20 20 20 20 20 19 19 19 19
21 23 24 24 25 25 25 26 25 25 25 25 25 26 28 27 26 24 26 27 28 26 24 23 23 22 22 22 21 21 21 21 21 21 21 21 21 20 20 20 21 21 20 20 20 20 20 19 19
21 22 23 23 23 23 24 24 25 25 25 25 26 26 25 25 25 27 27 28 26 24 23 23 22 21 21 21 21 21 20 20 21 21 21 21 21 21 21 21 21 21 21 20 20 20 20 19 20
21 22 22 23 23 23 23 24 24 25 24 24 25 25 24 24 24 26 26 26 25 24 22 22 22 21 21 20 20 21 21 21 21 21 21 21 21 21 21 21 21 21 21 21 21 20 20 20 20
21 19 20 21 21 22 23 22 23 24 25 24 25 26 24 24 24 24 24 24 23 22 22 21 21 20 20 20 20 20 20 21 21 21 21 21 21 21 21 22 22 22 22 21 21 21 20 20 20
18 18 17 20 21 22 21 21 23 24 23 24 25 25 24 23 24 23 24 22 21 20 20 20 19 19 19 19 19 19 20 20 20 21 21 21 21 21 21 21 22 22 22 21 21 21 20 20 20
16 16 17 19 21 21 21 21 24 22 24 25 25 24 23 22 20 22 22 20 19 19 18 18 17 17 17 17 18 18 18 19 20 20 20 22 21 22 22 21 21 22 21 22 22 21 21 20 20
15 16 17 18 20 19 19 20 22 23 22 22 24 21 22 21 20 20 19 18 18 17 17 16 15 15 15 15 16 17 17 18 19 19 20 21 21 21 21 22 22 22 21 21 20 21 21 20 20
17 18 18 19 20 19 19 19 17 19 19 20 22 23 23 21 19 18 18 18 17 16 16 14 14 13 12 12 12 13 13 15 16 17 18 19 18 20 20 20 21 21 20 20 20 20 19 19 19
18 17 17 18 20 18 17 16 17 19 19 20 21 22 22 20 19 17 17 17 15 15 14 13 12 12 11 10 10 10 11 12 13 14 16 17 18 19 18 20 18 18 19 19 19 20 18 17 18
18 17 17 17 18 17 16 16 17 19 20 21 22 24 23 20 18 17 16 14 14 13 12 11 10 10 9 9 9 8 9 9 10 11 13 15 15 16 17 18 19 18 19 19 19 17 18 16 17
17 18 15 14 14 13 14 13 16 17 18 20 21 22 19 17 17 16 14 13 12 11 11 10 9 8 8 7 7 6 6 6 7 7 8 10 13 12 14 15 19 19 18 19 19 18 17 16 15
15 14 13 13 12 13 14 13 15 17 18 19 19 19 17 16 15 14 13 12 11 10 9 8 7 7 7 6 6 5 4 5 5 6 6 7 8 10 11 14 16 19 18 19 18 17 17 15 16
14 13 13 13 12 12 14 14 14 16 17 16 17 18 16 15 14 13 12 11 10 9 8 7 6 6 5 5 4 4 3 4 4 4 5 6 7 8 10 12 15 18 18 18 17 18 15 15 16
12 11 11 10 12 12 17 15 14 16 17 16 15 13 15 14 12 12 11 10 9 8 7 6 5 4 4 4 3 3 2 3 3 4 5 6 7 7 8 11 14 16 18 18 17 17 18 17 15
12 11 11 12 12 13 14 13 14 15 13 12 12 11 12 13 13 11 10 9 8 7 6 5 4 2 2 2 2 2 2 2 3 4 4 5 6 7 8 9 12 15 18 18 16 16 18 17 16
13 11 14 11 12 11 12 15 15 11 12 11 11 11 11 12 12 11 9 8 7 6 5 4 3 2 1 1 1 1 1 2 2 2 3 5 6 7 9 10 11 14 17 18 15 17 16 16 17
14 14 11 11 12 12 15 15 11 10 9 9 10 12 11 10 10 10 9 7 6 5 5 3 2 2 1 -0 -0 0 0 0 1 1 3 3 4 5 8 11 12 14 16 18 16 17 17 14 13
14 13 13 12 12 12 13 13 8 7 8 9 9 10 10 10 9 8 7 6 5 4 3 2 2 1 0 -1 -1 -0 -0 -0 0 1 1 2 3 4 6 11 14 15 16 17 16 16 14 15 14
16 14 14 11 12 11 11 12 10 10 9 10 12 10 9 8 7 6 5 5 4 3 2 2 1 0 -0 -1 -1 -1 -1 -1 -1 -0 0 1 1 3 4 8 12 16 18 18 18 15 14 14 14

GFSSGP_925_temp_114.txt.gz
Temp
23 23 23 22 20 17 20 22 26 25 29 29 30 29 29 28 29 26 28 27 27 28 27 25 25 25 25 25 25 25 26 26 26 26 26 25 25 25 25 24 23 23 22 22 22 21 21 21 21
23 23 22 17 19 19 19 23 28 27 29 29 30 30 29 28 27 25 27 27 27 27 27 26 25 25 25 25 24 24 25 25 25 25 25 25 25 25 25 24 23 23 22 22 22 22 21 21 21
22 22 19 18 17 19 21 26 27 28 28 30 30 30 28 27 26 26 27 27 26 26 26 26 26 25 25 25 25 24 24 24 24 24 24 24 24 24 24 24 23 23 22 22 22 21 21 21 21
22 19 17 19 20 20 24 24 27 28 28 30 29 29 29 28 27 28 27 27 26 26 26 26 26 26 25 24 24 24 24 24 24 24 24 24 24 24 24 23 23 23 22 21 21 21 20 20 20
21 16 18 19 19 21 23 25 25 27 28 30 29 30 28 27 28 27 28 28 28 27 25 26 25 25 25 24 24 24 24 24 24 24 23 24 24 23 23 23 23 22 22 22 21 20 20 20 20
18 16 18 18 20 22 23 24 26 27 29 29 29 29 25 26 27 27 28 27 28 27 25 25 24 24 24 24 24 24 24 23 23 23 23 23 23 23 23 23 23 22 22 21 21 20 21 20 20
18 17 17 19 20 21 25 25 25 25 27 28 29 27 25 26 28 28 27 27 26 26 26 25 24 24 23 23 23 23 23 23 23 23 23 23 23 23 23 22 22 22 22 21 20 20 20 20 20
17 17 19 19 20 20 24 25 25 24 25 28 29 27 24 25 28 29 28 26 25 25 25 25 24 23 23 23 22 23 23 23 23 23 22 22 23 23 23 22 22 22 22 21 20 20 20 20 20
20 17 15 18 21 21 24 24 25 25 24 25 26 28 27 28 28 28 28 25 24 24 24 24 24 23 23 22 22 22 22 22 22 22 21 21 21 22 22 22 22 21 21 21 21 20 20 20 20
18 15 18 19 21 22 23 23 23 24 24 25 24 25 27 26 26 26 25 26 24 23 23 23 23 23 22 22 21 21 21 21 22 21 21 20 21 21 21 21 21 21 21 21 21 20 20 20 19
19 19 21 22 22 22 23 23 24 23 23 24 24 24 24 25 25 24 26 27 27 26 23 23 24 22 22 22 21 20 20 21 21 21 21 21 21 21 20 21 21 20 20 20 20 20 19 19 20
19 20 21 21 22 21 21 21 22 23 23 24 23 23 24 25 24 23 25 27 27 26 25 23 23 22 21 21 20 21 20 20 21 21 21 21 21 20 20 20 20 21 20 20 20 20 20 19 19
19 20 20 20 20 20 21 21 22 22 22 22 23 24 23 22 22 24 26 26 24 23 21 21 21 20 20 20 20 21 21 21 21 21 21 21 21 21 20 20 21 21 21 20 20 20 19 19 19
19 18 18 19 18 19 21 21 21 22 22 23 24 23 23 22 22 23 24 21 21 20 20 20 20 20 20 20 20 19 19 19 20 20 20 20 21 21 21 20 20 20 20 21 20 20 20 19 19
18 17 18 18 19 19 20 20 20 22 21 22 24 24 23 22 23 22 23 20 20 19 18 18 18 18 18 18 18 19 19 18 18 18 19 19 20 20 21 20 20 21 20 21 20 20 19 19 19
17 16 15 18 20 19 19 18 22 21 20 20 20 21 23 22 22 21 19 19 17 17 17 17 18 18 17 17 17 18 18 18 18 19 18 18 19 20 20 20 20 21 20 20 20 20 19 18 19
15 13 15 17 19 19 19 18 19 21 20 20 19 19 21 22 17 17 16 15 16 16 16 15 16 16 16 16 16 17 17 17 17 17 18 18 18 18 20 21 21 21 20 20 20 19 19 18 18
13 13 14 15 16 18 17 18 20 19 18 18 18 19 20 20 17 16 14 14 14 14 14 14 14 14 14 15 15 15 15 16 16 16 17 17 17 18 17 19 21 21 21 20 19 18 19 19 19
15 15 15 16 17 17 17 17 17 18 17 18 18 19 20 17 16 14 13 13 12 12 12 12 12 11 12 11 11 11 11 12 14 14 14 15 15 16 17 17 17 19 20 20 20 20 17 17 18
15 15 15 17 17 17 16 16 17 17 18 18 18 19 18 17 15 13 12 11 10 10 10 10 10 10 9 8 8 8 8 10 11 11 13 14 13 14 14 14 15 16 17 18 18 19 19 19 18
15 15 16 16 15 15 14 14 16 18 17 18 19 19 19 16 14 12 11 9 8 8 8 8 8 8 7 7 7 6 7 7 8 10 11 12 12 12 12 13 13 14 15 17 18 18 19 19 17
15 14 14 14 13 13 13 13 16 16 16 17 17 15 14 13 13 11 10 8 7 7 7 7 6 6 6 6 5 4 4 4 4 5 5 7 9 10 10 10 12 13 14 15 17 17 17 18 16
14 14 13 13 12 10 13 11 15 17 16 16 15 13 11 11 10 10 9 8 7 6 6 5 5 5 4 4 4 3 3 3 3 4 4 5 5 6 9 9 9 11 13 15 16 16 16 17 15
13 13 13 12 11 9 13 12 12 14 15 15 14 12 11 11 10 10 8 7 6 5 5 4 3 3 3 2 2 3 2 2 3 3 4 5 5 6 6 7 8 9 11 13 15 16 16 16 16
12 12 12 9 11 11 14 13 13 12 11 13 11 9 9 10 9 8 7 6 5 4 4 4 2 2 1 1 1 2 2 2 2 2 3 3 4 5 6 6 7 8 9 11 13 15 15 14 14
11 12 11 11 11 11 14 11 11 9 7 8 9 9 8 8 8 7 7 6 5 4 3 2 2 2 1 0 0 1 1 1 1 1 2 2 4 4 5 5 7 7 9 10 12 14 15 15 14
11 10 13 11 10 9 11 12 12 8 6 6 5 6 6 6 6 6 5 4 4 3 2 2 1 1 0 -0 -1 -0 0 0 0 1 1 2 2 3 3 4 5 7 9 10 11 14 15 15 15
13 12 11 10 10 11 13 11 10 9 7 6 5 4 3 4 5 5 4 4 3 2 2 1 1 0 -0 -1 -1 -1 -1 -0 -0 -0 0 0 1 2 3 3 4 6 9 11 11 12 14 14 15
12 13 12 11 10 11 11 11 9 8 8 7 5 5 6 6 5 4 3 3 2 2 2 1 -0 -1 -1 -1 -1 -1 -1 -1 -1 -1 -1 -1 -0 0 1 2 3 6 8 12 12 12 14 15 15
15 14 13 10 10 10 10 11 9 9 10 9 8 7 5 4 4 3 2 2 1 1 1 0 -1 -1 -1 -1 -1 -2 -1 -1 -1 -2 -2 -2 -2 -1 -0 1 2 3 6 11 13 13 14 15 14

GFSSGP_925_temp_117.txt.gz
Temp
22 22 22 21 20 17 20 22 23 25 25 28 27 29 28 27 27 25 26 27 27 27 26 25 25 25 25 25 25 25 25 26 25 25 25 25 24 24 23 23 22 22 21 21 21 21 20 20 20
22 22 22 16 18 18 20 21 25 25 26 25 27 29 28 26 26 25 26 26 27 27 26 25 25 25 25 25 24 25 25 25 25 25 25 25 25 24 24 23 22 22 21 21 21 20 20 20 20
22 22 18 17 15 19 20 24 23 25 25 27 28 28 27 26 25 25 27 27 26 26 26 25 25 25 25 25 24 25 24 24 25 25 25 24 25 25 24 23 23 22 22 22 21 21 21 20 20
22 19 17 19 19 19 22 23 23 23 25 26 28 29 27 27 26 28 27 26 26 26 26 26 25 25 25 25 24 24 24 24 24 24 24 24 24 24 24 24 23 22 22 22 22 21 21 21 20
20 16 18 19 19 20 22 24 23 24 24 27 29 29 26 25 27 26 27 26 26 26 26 26 25 24 24 25 24 24 24 24 24 24 24 24 24 24 24 23 23 22 22 22 21 21 21 20 20
17 15 17 18 19 21 22 24 24 24 23 24 26 27 25 25 25 26 26 26 26 26 25 25 25 25 24 24 24 24 23 23 23 24 24 24 24 24 23 23 23 22 22 21 21 21 21 20 20
17 16 17 18 19 20 24 24 23 23 23 24 24 25 24 25 26 26 27 26 26 26 25 25 25 24 23 23 23 23 23 23 23 23 23 23 23 23 23 23 23 22 21 21 21 20 20 20 20
15 15 18 18 19 20 23 23 24 23 23 24 25 24 24 24 27 27 27 26 25 25 25 25 24 24 23 23 22 22 22 23 23 23 23 22 22 23 23 22 22 22 21 21 20 20 20 20 20
17 15 15 18 20 21 22 21 23 24 23 23 25 26 25 26 26 25 25 24 24 24 24 24 23 23 23 22 22 22 22 22 22 22 22 22 22 22 22 22 22 22 21 21 20 20 20 20 20
17 14 16 18 20 20 21 20 21 23 22 23 23 23 26 27 27 24 23 23 23 23 24 24 23 22 22 22 21 21 21 21 20 21 21 20 21 21 21 21 21 21 21 21 20 20 20 19 19
17 17 17 20 20 20 19 20 21 22 22 23 22 22 22 24 23 22 23 23 24 25 24 23 23 22 22 21 21 20 20 20 20 20 20 20 19 20 20 20 21 20 20 20 19 19 19 19 19
18 18 19 19 19 19 19 19 20 20 21 22 21 21 21 21 21 21 22 25 24 24 24 22 21 21 21 21 20 20 19 20 20 20 19 19 19 19 19 20 20 20 20 20 20 19 19 19 19
18 18 18 17 17 18 19 18 19 19 20 20 20 21 20 20 20 24 25 24 23 22 20 20 20 19 19 19 19 19 18 19 19 20 20 19 19 19 19 19 19 21 20 20 19 19 19 19 18
17 17 16 17 17 17 18 19 19 20 20 20 20 20 20 20 20 22 22 21 19 18 19 19 19 20 19 19 18 18 18 18 18 18 18 18 19 19 19 19 18 19 20 20 20 20 19 19 19
17 16 16 17 17 18 17 17 18 19 18 18 19 19 19 19 20 20 22 19 17 16 17 18 18 19 19 18 18 18 17 17 17 17 16 17 17 18 18 19 19 20 20 20 20 19 18 18 18
16 15 15 17 19 18 19 17 18 18 19 19 17 17 18 19 19 20 19 17 16 15 16 16 17 18 18 18 17 17 17 17 16 16 16 16 16 15 17 18 18 19 20 21 20 20 18 17 17
13 13 14 16 18 17 17 17 19 19 19 18 16 17 16 18 17 13 14 14 14 13 13 14 15 16 16 16 17 17 16 16 15 15 15 15 15 15 16 15 17 18 18 20 19 18 18 17 17
12 12 13 15 16 15 15 16 18 17 17 16 16 16 15 15 13 12 12 11 11 11 11 12 13 13 14 15 15 16 16 15 14 14 14 14 14 14 15 15 15 15 17 18 17 19 18 18 18
14 14 13 14 15 15 15 16 17 17 15 16 17 17 15 13 12 11 10 10 9 8 9 9 10 10 13 14 13 12 11 13 13 13 12 12 13 14 14 14 15 15 15 17 17 18 18 18 17
13 13 13 14 15 15 14 15 16 16 15 16 16 15 14 13 11 10 9 8 7 6 6 6 6 6 7 8 8 9 9 9 10 11 12 10 10 11 11 12 13 13 14 15 16 17 16 17 18
13 13 13 14 14 14 13 13 15 17 16 16 16 16 15 12 11 9 8 7 6 5 5 5 5 5 5 6 7 9 10 10 9 9 9 9 9 8 8 9 10 11 12 13 15 15 16 16 17
13 14 14 14 13 11 14 12 15 14 14 14 12 11 11 10 9 8 7 6 5 4 4 4 4 4 4 5 5 4 3 3 3 4 5 6 6 7 7 7 7 8 9 10 12 14 15 16 15
14 13 14 13 12 11 11 11 11 12 12 11 11 10 8 8 8 7 6 5 4 4 3 3 3 3 3 3 3 3 3 3 3 3 3 4 4 6 7 6 7 7 8 9 10 12 14 15 16
12 13 12 10 10 8 12 12 10 10 9 10 11 10 9 8 7 7 5 4 3 3 2 2 2 1 2 2 2 2 2 2 2 2 2 3 3 4 5 5 6 6 7 8 9 10 12 14 15
12 13 12 11 10 10 13 11 10 8 7 8 8 6 6 5 4 4 5 4 3 2 2 2 1 1 0 0 0 1 1 1 1 1 1 2 2 3 3 4 4 5 6 7 8 9 10 13 14
11 12 12 11 10 10 12 10 10 8 7 7 6 5 4 3 3 3 2 3 3 2 1 1 1 0 -0 -1 -0 -0 0 0 1 1 1 1 1 2 2 3 3 4 5 6 7 9 9 11 13
11 10 12 11 10 9 10 10 9 8 7 6 6 5 4 3 2 1 0 1 2 2 1 0 -0 -1 -1 -1 -1 -1 -0 -0 -0 -0 -0 -0 0 1 1 1 2 3 4 5 7 9 10 11 13
12 12 10 10 11 11 11 11 8 8 7 7 6 5 3 3 2 2 1 0 0 1 0 -1 -1 -1 -1 -1 -1 -1 -1 -1 -1 -1 -1 -1 -1 -1 -0 0 1 2 3 4 5 7 10 10 13
12 11 11 10 9 10 11 9 7 8 8 7 6 4 3 2 2 1 0 0 0 0 -0 -1 -2 -2 -2 -1 -1 -1 -1 -2 -2 -2 -2 -3 -2 -2 -1 -1 -0 1 1 2 3 6 10 11 12
13 13 11 8 9 10 7 8 10 9 9 7 7 5 3 2 1 1 0 0 1 0 -1 -2 -2 -2 -2 -2 -2 -2 -2 -2 -2 -2 -3 -3 -3 -3 -2 -2 -1 -1 -0 1 1 3 6 11 12

GFSSGP_925_temp_120.txt.gz
Temp
22 22 22 21 21 17 20 22 22 23 24 26 25 26 27 26 26 25 27 27 26 27 26 26 26 25 25 25 25 25 25 25 25 25 25 25 24 24 24 23 22 22 21 20 20 19 20 20 20
22 22 22 16 19 20 20 20 24 24 24 23 25 25 26 27 25 25 25 27 27 27 26 25 25 25 25 25 25 25 24 24 25 25 24 24 24 24 24 23 22 22 21 20 19 19 20 20 20
22 22 18 16 16 20 21 23 22 22 23 25 27 26 26 27 25 25 27 27 27 26 26 26 25 25 24 24 24 24 24 24 24 25 24 24 24 24 24 23 22 22 21 21 20 19 20 20 20
22 19 15 18 20 20 21 21 22 22 23 23 24 28 26 25 25 26 26 26 26 25 25 25 25 25 24 24 24 24 24 24 24 24 24 24 23 23 23 23 23 22 22 21 21 20 20 20 20
20 15 17 18 19 20 21 22 23 22 23 23 22 23 24 24 25 26 26 25 25 25 25 24 24 24 24 24 24 24 24 24 24 24 24 23 23 23 23 23 22 22 22 21 21 21 21 21 20
16 15 17 18 19 20 20 22 23 22 22 22 23 22 24 25 24 25 25 25 25 25 25 24 24 24 24 24 24 24 24 24 24 23 23 23 23 23 23 22 22 22 22 22 21 21 21 20 20
17 16 17 18 18 20 22 22 22 22 21 23 23 23 22 25 26 25 25 25 26 26 25 25 25 24 24 24 24 23 23 23 23 23 23 23 23 23 23 22 22 22 22 21 21 21 20 20 20
14 15 17 17 18 20 22 22 22 22 22 23 24 23 23 24 26 26 25 24 23 24 25 25 24 24 24 23 22 23 22 22 22 22 22 22 22 22 22 22 22 22 22 21 21 20 20 20 20
16 15 15 18 19 20 21 20 21 22 22 22 23 25 24 26 26 27 26 25 24 23 24 23 23 23 23 22 22 21 21 22 22 21 21 21 21 21 21 21 21 21 21 21 21 20 20 20 20
16 14 16 17 19 20 19 20 20 21 20 21 22 22 24 24 25 23 23 23 24 23 24 23 23 23 23 22 22 21 21 20 21 21 21 20 20 20 20 20 20 20 20 20 20 20 20 19 19
16 15 16 19 19 18 18 18 20 21 20 22 20 21 20 22 21 21 23 23 24 25 24 23 22 22 22 22 21 21 21 20 19 19 19 19 19 19 19 19 19 19 19 19 19 19 19 19 19
17 17 18 18 18 17 17 18 19 19 20 21 19 19 18 19 18 19 20 22 23 24 24 22 21 21 21 20 20 20 20 19 19 19 19 18 18 18 18 18 18 19 19 19 19 19 19 19 19
17 17 16 16 16 16 17 17 18 18 18 18 18 19 18 18 18 21 21 22 22 22 23 22 21 20 19 19 19 19 19 19 18 18 18 18 18 18 18 18 18 18 19 18 19 19 19 19 19
17 16 15 15 16 16 16 16 19 19 18 18 18 18 18 18 18 19 19 20 20 21 21 21 20 20 19 18 19 18 18 18 18 18 18 17 17 17 17 17 18 18 17 19 19 19 18 18 18
16 15 15 16 17 17 17 17 17 18 17 17 17 17 16 16 17 17 17 17 16 14 14 16 17 17 18 18 18 18 17 17 17 17 16 17 17 17 17 17 17 18 17 18 19 19 19 17 18
15 14 14 16 16 17 17 15 18 16 18 18 17 16 17 16 14 12 12 12 13 13 13 13 13 14 15 16 16 16 16 17 16 16 16 16 16 16 17 16 16 17 17 18 19 18 17 17 17
12 13 13 14 16 16 15 15 17 17 18 16 17 14 14 14 11 10 9 9 10 11 11 11 11 12 12 14 15 15 15 15 15 15 15 14 14 15 15 16 16 16 16 17 17 19 18 17 17
12 12 12 13 15 14 14 14 16 15 15 15 16 14 13 10 9 8 8 8 8 8 9 9 10 10 11 12 13 15 15 14 13 13 13 13 13 13 14 14 14 14 15 16 16 17 18 18 17
13 13 13 12 13 13 13 14 14 15 14 13 14 13 13 9 8 7 6 6 6 6 6 6 7 8 8 10 11 12 12 12 12 12 12 12 12 12 12 12 13 12 12 14 15 16 16 15 16
13 12 12 12 14 14 13 13 14 14 14 12 10 11 10 9 8 7 6 5 4 4 4 4 4 4 5 5 6 7 8 9 9 9 9 10 9 9 10 10 10 10 11 12 14 15 16 16 16
12 12 12 12 13 13 12 12 13 13 12 11 9 9 9 7 7 7 6 4 4 3 3 2 3 3 3 4 5 8 7 7 6 7 8 7 7 7 7 7 8 8 8 9 11 12 13 15 16
12 13 13 13 12 11 13 11 12 11 10 12 9 8 8 7 7 6 5 4 3 3 2 2 1 3 1 2 2 3 3 3 3 3 4 5 5 6 6 6 6 7 7 8 8 9 10 12 15
12 14 13 12 11 10 11 10 11 10 10 11 8 7 6 5 5 4 4 3 2 2 1 2 2 1 1 1 1 1 2 2 2 2 2 3 3 3 4 5 5 6 7 7 8 8 9 10 12
12 13 12 9 9 10 11 11 9 9 8 8 6 6 5 4 4 3 3 2 2 1 1 1 1 1 1 0 0 0 1 1 2 2 2 2 2 3 3 3 4 4 5 6 7 8 9 9 10
13 13 11 10 10 11 12 10 10 8 8 7 6 5 4 4 3 3 2 2 2 1 1 0 -0 -0 -0 -0 -0 -0 -0 0 1 1 1 1 1 1 1 2 2 3 4 5 5 6 7 8 9
10 12 13 12 10 10 11 9 11 8 7 7 6 5 4 3 3 2 1 1 0 1 0 0 -0 -1 -1 -1 -1 -1 -1 -0 -0 -0 -0 -0 -0 -0 0 1 1 2 3 3 5 6 7 8 9
11 12 12 11 10 10 10 10 8 8 7 7 6 5 4 3 2 2 1 0 0 -0 -0 -1 -1 -1 -1 -1 -1 -1 -1 -1 -1 -2 -2 -2 -2 -1 -1 -1 0 1 2 2 3 4 6 7 9
12 11 10 10 11 11 11 10 9 8 7 6 5 5 4 3 2 2 1 0 -0 -0 -1 -2 -2 -2 -2 -1 -1 -1 -1 -2 -2 -2 -2 -2 -2 -2 -2 -2 -1 -0 0 1 1 2 3 4 7
11 11 11 11 10 10 10 9 6 8 7 6 5 5 4 3 2 1 1 0 -0 -1 -2 -2 -2 -2 -2 -2 -2 -2 -2 -2 -2 -2 -3 -3 -3 -2 -2 -2 -2 -1 -1 -1 -0 0 2 2 5
12 12 11 11 10 9 6 8 9 9 8 7 6 5 4 3 1 1 1 0 -0 -1 -2 -2 -2 -2 -2 -2 -2 -2 -3 -2 -3 -3 -4 -4 -4 -3 -3 -2 -2 -2 -2 -2 -1 -1 0 2 3

GFSSGP_925_temp_123.txt.gz
Temp
22 22 22 22 27 25 25 25 24 26 26 27 27 27 29 28 29 30 26 26 26 26 26 26 25 25 25 25 25 25 25 25 25 25 25 25 24 24 24 23 22 21 20 20 21 21 21 21 21
22 22 22 22 26 27 26 24 25 25 26 25 25 27 29 29 27 27 27 26 25 26 26 26 25 25 25 25 25 25 24 24 25 25 25 24 24 24 23 23 22 22 20 20 21 21 21 21 21
22 22 25 24 22 26 26 24 25 25 25 26 27 28 27 27 27 26 25 25 25 25 25 25 25 25 25 24 24 24 24 24 24 24 24 24 24 23 23 23 23 22 21 21 21 21 21 21 21
21 23 21 25 24 23 24 25 24 25 26 27 24 27 27 23 24 23 24 25 25 25 25 25 25 25 25 24 24 24 24 24 24 24 24 24 24 23 23 23 23 22 22 21 21 20 20 21 21
20 22 24 23 22 22 23 23 24 25 24 26 25 26 26 25 23 23 24 25 25 25 25 25 25 24 24 24 24 24 24 24 24 23 23 23 23 23 23 23 23 22 22 21 20 19 20 21 21
23 21 24 25 22 22 23 23 24 24 24 25 26 25 26 25 25 24 24 24 24 24 25 25 25 25 24 24 24 24 24 23 23 23 23 23 23 22 22 22 22 22 22 21 20 20 20 21 21
23 23 23 21 21 22 23 24 23 23 24 25 24 25 26 26 25 25 25 25 24 24 24 24 24 24 24 23 24 24 23 23 23 23 23 23 22 22 22 22 22 21 21 21 21 20 21 21 21
20 21 21 21 22 23 22 23 22 23 24 24 24 25 25 25 24 25 25 25 25 25 24 23 23 23 23 23 22 22 22 22 23 22 22 22 22 22 22 21 21 21 21 21 21 20 20 20 20
18 22 22 22 21 22 22 22 22 23 23 23 24 25 25 24 24 24 24 24 24 24 24 23 23 23 22 22 22 22 22 21 21 21 21 21 20 19 19 20 20 20 20 20 20 20 20 19 20
21 21 21 20 20 21 20 21 21 22 23 22 23 24 23 22 22 22 22 22 22 23 23 23 23 22 22 22 21 21 21 20 21 21 20 20 20 20 18 19 20 20 20 20 19 19 19 19 19
17 21 19 20 20 19 20 21 21 22 22 23 22 22 22 21 21 21 21 21 21 22 24 22 23 22 22 21 21 21 20 20 20 19 19 19 18 18 18 18 18 18 18 18 18 18 18 18 18
19 19 19 19 19 19 20 20 20 21 22 21 21 21 21 22 21 21 21 21 21 21 24 24 23 22 21 21 20 20 20 20 19 18 19 18 18 18 18 18 18 18 18 18 18 18 18 18 18
18 18 18 18 18 18 18 19 19 20 21 20 21 21 21 21 21 20 19 19 19 19 20 20 19 20 21 20 20 19 19 19 19 18 18 18 18 18 18 17 18 18 18 17 18 18 18 18 18
17 17 18 18 19 18 18 19 19 19 19 20 20 20 20 20 19 17 16 15 15 15 14 15 16 17 18 18 19 18 19 18 18 18 18 18 18 17 17 17 18 18 18 18 17 18 18 18 18
17 17 18 18 18 18 18 19 19 19 19 20 20 20 20 18 14 12 11 11 10 11 11 11 13 15 16 16 17 17 18 17 17 17 17 17 17 17 17 17 17 17 17 17 17 17 17 18 18
17 16 18 18 18 17 19 18 19 19 20 20 20 20 19 13 11 10 9 9 9 9 9 9 10 12 13 13 14 14 15 15 16 16 16 16 16 15 15 15 16 16 17 17 17 17 16 16 17
15 18 16 17 17 18 18 17 19 19 19 18 19 18 16 12 10 8 7 7 7 7 6 7 8 9 10 11 12 12 13 13 13 13 14 14 14 15 15 15 15 15 15 16 17 17 17 17 17
17 16 15 16 18 17 16 17 17 18 17 15 14 15 12 10 8 7 6 6 6 5 5 5 5 6 8 9 9 10 10 10 10 10 10 12 13 13 14 14 14 14 14 15 15 16 16 17 17
15 15 15 15 16 15 16 16 17 16 13 12 13 12 10 9 8 7 6 6 5 5 5 4 4 4 5 5 6 8 8 8 7 7 7 9 10 11 11 11 12 13 13 13 14 14 15 16 17
15 15 15 15 16 16 16 16 15 13 11 9 9 9 9 8 8 7 5 4 5 4 4 4 3 3 3 4 4 4 5 6 6 5 5 5 6 6 7 7 8 8 8 10 11 12 13 15 16
14 14 14 15 15 15 15 15 14 13 12 10 9 9 8 7 6 6 5 4 3 3 3 2 2 2 1 2 4 5 5 5 6 5 5 5 4 5 5 6 7 7 7 8 9 9 11 14 15
14 14 15 14 15 15 15 15 14 12 12 10 8 6 5 5 5 5 4 4 3 2 2 2 1 1 1 1 2 3 3 3 3 3 4 4 4 4 4 5 5 6 6 7 7 8 9 10 13
15 14 14 14 14 13 14 14 13 12 12 8 7 6 5 5 5 4 5 4 3 3 2 1 2 1 1 1 1 1 1 2 2 2 3 3 3 3 3 3 3 4 4 5 6 7 8 9 10
14 14 13 12 13 13 15 15 14 12 11 8 7 6 6 5 5 4 3 3 2 1 1 2 1 1 0 1 0 0 0 1 1 1 1 1 2 2 2 2 2 2 3 4 4 5 6 8 9
15 15 14 13 12 14 13 13 16 10 10 10 8 6 5 5 4 3 3 2 2 1 1 0 -0 -0 -0 0 0 -0 -0 0 0 -0 -0 0 0 0 1 1 1 1 2 2 3 4 5 6 7
13 15 14 13 13 14 12 14 14 10 9 9 8 7 6 4 3 2 2 2 1 1 0 -0 -0 0 -0 -0 -0 -1 -0 -1 -1 -1 -1 -1 -1 -1 -0 -0 -0 0 1 2 2 3 4 6 7
13 13 15 14 11 12 15 13 10 9 8 8 7 7 5 4 3 3 2 1 1 0 -0 -1 -1 -1 -1 -1 -1 -1 -1 -1 -1 -1 -1 -1 -1 -1 -1 -1 -1 -0 0 0 1 2 3 3 4
14 14 12 12 13 13 14 14 14 8 7 7 7 6 4 4 3 2 2 1 1 -0 -1 -1 -1 -1 -1 -1 -1 -1 -1 -2 -2 -2 -3 -2 -2 -2 -2 -2 -1 -1 -1 -1 -0 0 1 2 3
13 13 13 13 12 14 14 15 11 10 10 8 7 6 4 4 3 3 2 1 1 -0 -1 -1 -2 -2 -2 -2 -2 -2 -3 -2 -3 -3 -3 -3 -3 -3 -3 -2 -2 -2 -1 -1 -1 -0 1 1 2
14 14 14 12 12 10 10 14 11 12 11 9 7 6 5 4 3 2 2 1 0 -1 -1 -1 -2 -2 -2 -2 -3 -3 -3 -3 -3 -3 -4 -4 -4 -4 -4 -3 -3 -2 -2 -2 -2 -1 -0 0 1

GFSSGP_925_temp_126.txt.gz
Temp
22 22 24 27 31 32 31 30 30 31 31 31 31 30 32 33 32 31 29 27 26 26 23 24 25 25 25 25 25 25 25 24 24 24 25 25 24 24 23 23 22 22 21 21 22 22 22 22 22
23 24 26 30 31 32 31 30 30 30 29 31 31 31 31 31 31 31 31 26 26 25 24 23 24 25 25 25 25 25 25 25 25 24 24 25 24 24 23 23 22 22 21 21 22 22 22 22 21
22 24 30 31 31 32 31 30 30 30 30 31 32 32 31 29 29 29 26 25 25 25 25 23 24 24 24 25 25 25 25 25 25 24 24 24 24 23 23 23 22 21 21 21 21 21 21 21 21
26 29 29 30 31 29 30 30 29 30 30 31 30 31 30 28 27 27 26 26 26 25 24 23 24 24 24 24 25 25 25 25 24 24 24 23 23 23 23 22 22 21 20 20 21 21 21 21 21
26 29 30 30 29 29 29 28 29 29 29 30 30 29 29 28 27 26 26 26 26 25 24 23 24 24 24 24 24 25 25 24 24 24 24 23 23 23 22 22 22 21 21 20 20 21 21 21 20
29 29 30 31 29 28 29 28 28 28 29 30 30 29 29 28 27 26 26 26 25 24 23 23 23 24 23 23 24 24 24 24 24 24 24 23 23 23 22 22 22 21 21 21 21 21 21 20 20
28 29 30 29 28 28 28 28 27 28 28 28 28 29 29 29 26 26 26 26 25 24 23 22 22 22 23 23 22 22 23 23 23 23 23 23 23 22 22 22 21 21 21 21 21 20 20 21 20
27 28 28 29 28 28 27 27 27 27 28 27 28 28 28 27 26 27 27 27 26 25 23 22 22 21 22 21 22 22 22 22 22 22 22 22 22 21 22 21 21 21 21 20 20 20 20 21 21
26 28 29 28 27 27 26 26 27 27 27 27 28 27 26 25 26 26 27 27 26 25 24 24 22 22 22 22 22 22 22 21 21 21 21 21 20 21 20 20 20 20 20 20 20 20 20 20 20
27 27 28 25 26 26 25 25 26 26 27 26 27 27 25 25 25 25 26 26 25 25 24 24 23 22 22 22 22 21 21 21 20 21 21 19 21 21 21 21 20 19 20 19 19 20 20 19 20
25 27 25 25 24 24 25 25 25 25 26 26 24 25 25 25 25 24 24 24 24 24 24 24 23 22 22 23 22 22 22 22 21 21 20 19 19 19 19 21 20 19 19 19 19 19 18 19 21
24 24 24 24 23 23 24 24 24 25 25 25 24 24 25 25 25 23 23 22 22 22 22 21 21 22 22 22 22 23 22 21 21 20 19 19 19 19 19 19 19 20 21 21 21 20 20 20 21
23 24 23 23 23 23 24 23 24 24 24 24 24 25 25 24 22 21 20 19 18 18 17 17 17 16 19 21 22 21 21 20 20 19 19 19 19 19 19 18 18 18 19 19 20 19 20 20 20
21 22 22 23 23 23 22 24 22 23 23 24 24 24 24 21 19 18 17 16 15 15 15 13 13 13 15 18 18 19 19 19 18 18 18 18 18 18 18 18 18 18 18 18 18 18 19 19 18
21 21 23 23 23 22 22 23 23 23 23 24 24 23 22 18 16 14 14 14 14 13 12 11 10 10 11 13 14 15 16 16 16 16 16 16 17 17 18 18 18 18 18 18 18 18 18 18 18
21 21 24 22 22 21 23 25 24 23 23 23 23 22 19 15 13 12 12 12 12 11 10 9 8 8 9 10 11 11 12 13 13 13 13 13 13 15 15 16 17 17 17 17 17 18 18 18 17
21 24 22 23 22 22 22 23 24 23 23 21 21 20 17 15 13 11 11 11 11 9 8 8 7 7 8 10 10 11 11 12 12 12 12 11 12 12 13 15 15 14 15 16 17 17 17 17 17
25 22 22 23 22 21 22 22 22 23 21 19 19 17 16 14 12 10 10 10 10 9 8 6 6 6 7 8 10 11 12 11 11 11 10 10 10 10 12 14 14 13 15 16 16 15 16 16 17
21 21 22 23 22 19 21 21 22 21 19 18 17 15 14 12 11 10 9 9 9 9 8 7 6 4 5 7 8 9 10 11 11 10 9 9 9 9 10 12 12 13 14 15 15 16 17 17 17
20 20 21 22 20 19 21 21 20 18 15 14 14 13 12 11 11 10 10 9 8 8 7 6 5 4 4 5 5 7 8 10 10 9 9 8 8 8 8 7 8 8 9 10 12 14 15 17 17
20 19 20 19 20 20 19 21 18 17 14 13 12 12 11 10 10 10 9 9 9 8 8 7 6 4 3 4 5 6 8 9 9 8 8 7 7 6 5 5 6 6 7 8 8 9 10 14 17
20 20 19 18 18 20 19 20 20 19 16 15 13 12 11 10 10 9 9 8 7 6 6 6 5 5 4 4 4 5 8 9 7 7 6 6 5 4 4 4 4 5 5 6 7 8 8 9 11
19 18 18 18 18 18 20 18 22 19 18 16 14 11 10 9 8 8 6 5 4 4 3 3 4 4 3 4 2 4 4 5 6 6 5 4 4 4 3 3 3 4 4 4 5 5 6 7 9
18 17 18 17 18 17 20 19 23 19 19 17 14 12 11 8 8 6 5 5 5 5 5 4 4 3 3 2 2 2 2 2 3 3 3 3 3 3 3 2 2 3 3 3 4 4 5 6 7
18 18 18 18 18 19 18 18 21 19 17 16 14 13 10 8 6 6 6 6 5 5 4 4 4 4 3 2 1 1 1 2 2 1 1 1 1 1 1 1 1 2 2 2 3 3 4 5 6
18 19 19 17 19 20 17 17 19 17 15 14 14 12 9 7 5 6 5 5 4 4 3 2 3 3 2 2 1 1 1 1 1 -0 -0 -0 0 0 -0 0 0 1 1 1 2 2 4 5 5
17 16 19 18 18 16 19 21 14 13 11 12 12 10 8 6 7 5 5 4 3 3 1 1 1 2 1 1 0 0 -0 -0 -0 -0 -1 -1 -1 -1 -1 -1 -0 -0 -0 0 1 1 2 3 3
17 19 15 16 15 16 20 20 19 12 10 11 11 9 7 6 6 6 6 5 3 2 1 1 0 0 0 -0 -0 -0 -1 -1 -1 -1 -1 -1 -1 -2 -2 -2 -1 -1 -1 -1 -0 0 1 1 2
16 16 16 17 17 17 18 19 16 14 14 12 12 10 7 7 7 7 6 5 3 2 1 0 -0 -0 -1 -1 -1 -1 -1 -1 -1 -2 -2 -2 -2 -2 -2 -2 -2 -2 -1 -1 -1 -1 -0 -0 0
20 18 18 15 15 15 15 17 18 17 17 15 14 10 7 8 7 7 6 5 3 2 1 1 -0 -0 -1 -1 -1 -1 -2 -1 -1 -2 -2 -2 -2 -2 -2 -2 -2 -2 -2 -2 -1 -1 -1 -1 -1

GFSSGP_925_temp_129.txt.gz
Temp
25 26 28 30 32 34 36 34 34 34 34 34 34 33 33 34 33 31 31 29 29 29 25 24 25 25 26 26 26 26 25 25 25 24 24 24 24 23 23 22 22 21 21 21 22 22 21 21 21
25 28 29 33 33 35 36 34 34 33 33 34 34 34 34 31 32 32 32 29 29 28 25 24 24 24 25 25 25 25 25 25 24 24 24 24 24 23 23 22 22 21 21 21 21 21 21 21 21
25 28 32 34 34 35 34 34 33 33 33 34 34 34 33 30 31 31 29 29 29 28 27 25 24 24 25 25 25 25 25 25 25 24 24 24 23 23 23 22 22 22 21 21 21 21 21 21 21
29 32 33 32 34 33 34 33 32 33 33 34 34 33 32 30 30 30 29 29 29 28 27 25 24 24 24 24 24 25 25 25 25 24 24 24 24 23 23 22 22 22 22 21 21 21 21 21 21
29 32 32 33 34 33 33 32 32 32 32 33 33 32 31 30 30 29 29 28 28 27 27 23 24 24 24 24 24 24 24 24 24 24 24 24 23 23 23 22 21 21 21 20 21 21 21 20 20
31 32 32 33 33 32 32 32 32 31 32 32 32 32 31 30 29 29 28 28 27 26 26 25 23 23 23 23 23 23 23 23 23 23 23 23 23 23 23 22 21 21 21 21 20 21 21 20 20
30 32 32 33 33 31 31 31 31 31 31 31 31 31 32 31 28 29 29 29 28 26 25 24 24 23 23 23 23 23 23 23 23 23 23 22 22 22 22 22 21 21 21 21 20 20 20 20 20
30 31 32 33 32 31 30 31 30 30 30 30 30 31 30 29 28 29 29 29 28 26 26 25 24 24 24 23 23 23 23 23 23 23 23 22 22 22 21 21 21 21 21 21 21 20 20 20 20
30 30 32 32 31 30 29 30 31 30 30 30 30 30 28 27 28 28 29 29 28 27 26 25 25 25 24 24 24 22 22 22 22 21 22 22 21 21 20 20 20 20 21 21 21 21 20 20 20
29 31 32 30 30 30 29 29 29 29 30 29 30 30 27 27 28 27 28 28 27 26 26 26 24 23 24 25 25 23 23 21 21 21 21 20 21 22 23 23 22 21 20 20 20 21 20 20 20
30 30 29 29 28 29 29 29 29 29 28 29 27 27 27 27 27 26 26 26 24 24 24 22 21 22 24 25 25 25 25 25 24 23 22 22 21 21 21 22 21 20 20 20 20 19 19 20 21
27 29 28 29 27 27 28 29 28 28 28 28 27 27 28 27 26 24 23 23 22 21 20 19 18 17 18 20 24 25 26 26 25 25 22 21 21 20 20 21 21 21 22 21 21 20 21 21 21
27 29 27 27 26 26 27 26 27 28 28 27 27 27 27 25 23 23 21 20 19 19 18 15 15 14 15 15 16 20 21 24 23 23 21 20 20 20 20 20 19 20 20 20 20 20 20 20 20
27 26 26 27 27 27 26 27 26 27 27 26 27 27 25 22 21 20 19 18 17 16 15 13 13 12 13 13 14 15 17 18 18 18 18 18 18 18 18 19 19 19 19 19 19 19 20 19 19
25 24 27 27 27 26 25 26 26 27 26 26 27 26 23 20 18 17 16 16 16 15 13 12 12 11 11 13 12 12 14 14 15 15 15 15 16 16 17 17 17 17 18 18 18 19 19 19 19
24 26 26 29 26 25 25 27 28 26 26 26 26 25 22 19 17 16 15 15 15 13 12 11 11 11 11 11 12 12 12 12 12 12 13 13 13 14 14 15 16 16 16 16 17 17 19 19 18
25 27 27 26 26 27 25 27 28 27 26 25 25 24 21 19 17 15 15 14 14 13 12 11 10 9 11 11 11 12 12 12 12 12 11 12 12 12 13 15 16 15 15 16 16 16 16 17 18
27 26 27 27 26 25 25 25 27 27 26 24 24 22 20 18 16 14 14 13 13 12 12 10 9 8 9 11 12 11 12 12 12 12 11 11 11 11 12 15 15 15 16 17 17 17 17 16 16
26 25 26 28 28 24 24 25 26 27 25 23 23 20 19 17 15 14 13 12 12 12 11 11 10 9 8 9 10 12 11 10 11 11 11 11 10 10 10 10 11 11 12 12 13 15 16 17 18
24 24 25 26 26 23 24 24 26 25 23 21 21 19 18 17 17 15 13 13 12 11 11 11 10 9 9 9 9 9 10 11 10 9 10 10 9 8 7 7 7 8 8 9 9 10 11 14 17
24 24 24 24 25 24 24 24 25 23 20 19 18 18 16 16 16 15 13 12 11 10 10 10 9 9 8 8 10 10 11 12 11 11 9 9 8 7 6 6 6 6 7 7 8 8 9 10 12
23 25 23 22 22 22 23 22 25 23 20 19 19 18 17 16 15 14 12 10 9 9 8 8 8 8 7 7 8 8 9 10 10 10 9 8 7 7 5 5 5 5 5 6 6 7 7 7 9
23 22 21 22 22 22 23 23 25 26 22 21 20 18 16 14 13 12 9 9 9 9 8 8 8 7 6 5 5 6 6 6 7 7 7 8 7 6 5 4 4 4 4 4 5 5 5 6 7
22 20 21 21 22 20 22 23 24 26 23 23 21 18 16 12 11 10 9 9 9 8 7 8 8 8 6 5 5 4 4 3 4 3 3 4 5 5 3 3 3 3 3 3 3 4 4 5 6
20 21 20 20 20 20 23 22 24 24 23 23 20 18 16 13 11 10 10 9 8 8 7 6 7 7 5 4 4 3 3 4 4 2 2 1 2 1 1 1 2 2 2 2 2 3 3 4 5
20 21 21 20 21 23 22 20 22 23 21 20 19 18 15 11 10 10 9 9 8 8 5 5 6 5 4 3 3 2 2 2 2 1 1 1 0 0 0 -0 0 0 1 1 1 2 3 3 3
21 19 22 20 21 19 21 24 21 20 18 17 17 16 13 10 10 9 9 8 8 7 4 3 4 4 3 2 2 2 1 1 1 1 0 0 -0 -0 -0 -0 -0 -0 0 1 1 1 2 1 2
21 21 18 18 17 18 21 22 23 17 16 16 16 15 11 10 9 10 10 9 7 5 4 2 2 2 2 2 1 1 1 1 0 0 -0 -0 -0 -1 -1 -1 -0 -0 0 -0 0 0 0 0 -0
20 19 19 20 19 18 19 21 21 18 18 16 16 15 11 9 10 10 10 9 7 5 4 2 2 2 1 1 1 1 1 1 0 -0 -1 -1 -1 -1 -1 -1 -1 -0 -0 -0 -0 -0 -1 -1 -1
22 20 19 17 17 18 19 19 22 21 20 19 18 16 12 10 11 12 10 9 7 5 4 3 2 2 1 1 1 1 1 1 1 -0 -1 -1 -2 -2 -2 -1 -1 -1 -1 -1 -1 -1 -1 -1 -2

GFSSGP_925_temp_132.txt.gz
Temp
25 27 27 30 30 32 33 35 36 35 34 34 35 34 32 32 31 27 30 30 30 27 25 25 25 25 25 26 26 26 25 25 25 25 24 24 23 23 23 23 23 22 22 22 22 21 21 21 21
25 27 30 31 30 32 34 35 35 34 34 34 34 35 33 30 32 31 30 30 29 27 24 24 25 25 25 25 25 25 25 25 25 25 24 24 23 23 23 23 22 22 22 22 21 21 21 21 21
25 27 30 31 32 32 34 34 33 34 34 35 35 33 31 30 31 30 30 30 29 28 26 25 25 25 25 25 25 24 25 25 25 24 24 24 24 23 23 22 22 22 22 21 21 21 21 21 21
29 31 31 30 32 34 34 34 34 34 34 35 34 30 31 31 31 30 30 29 28 27 26 25 24 24 24 24 24 24 24 24 24 24 24 24 23 23 23 22 22 22 21 21 21 21 21 21 21
30 31 30 31 33 33 34 33 33 33 33 33 34 30 29 31 30 29 29 28 27 27 25 25 24 24 23 24 24 24 24 24 23 23 23 23 23 23 23 22 22 21 21 21 21 20 20 20 20
30 32 30 32 33 33 33 33 33 32 32 33 33 32 29 29 29 29 29 28 26 26 25 24 24 24 24 23 23 24 24 24 24 23 23 23 23 22 22 22 22 21 21 20 20 20 20 20 20
29 31 31 33 33 33 33 33 32 32 32 31 32 31 30 29 29 29 29 28 27 26 25 25 24 24 23 23 23 23 23 23 23 23 23 23 23 23 22 22 22 21 21 21 20 20 20 20 20
31 31 30 32 33 32 32 32 32 31 30 31 31 31 27 28 29 29 29 29 27 26 26 25 25 25 24 24 24 23 23 22 22 22 22 22 22 22 22 21 21 21 21 21 21 20 20 20 20
31 28 30 33 33 31 31 31 31 31 31 31 31 29 28 28 29 28 29 28 27 26 25 22 22 22 23 24 24 23 23 22 22 22 22 22 22 21 21 21 21 21 21 21 21 21 21 20 20
29 29 31 31 31 31 30 30 31 30 30 30 30 29 28 28 28 27 27 26 24 24 22 20 19 20 21 23 23 25 24 23 23 23 21 21 21 21 21 22 22 22 22 21 21 21 21 20 20
30 28 30 30 27 30 30 30 30 29 29 30 29 28 28 28 26 25 25 23 22 22 19 17 17 17 17 20 19 21 22 24 24 23 23 22 21 21 21 22 22 21 21 20 20 20 20 20 20
28 30 30 30 28 28 29 30 29 29 29 29 28 28 28 27 24 24 22 21 20 19 16 15 15 15 15 16 17 18 19 21 22 23 22 22 22 20 20 20 21 20 20 20 20 20 20 20 20
28 29 30 29 28 27 28 27 27 28 29 28 28 27 26 24 23 22 21 19 18 16 15 13 13 12 13 14 15 15 16 17 17 17 18 19 19 19 19 19 19 20 20 20 20 20 20 20 20
29 28 29 28 28 28 27 27 27 28 28 28 27 27 23 22 20 19 18 18 17 15 14 13 12 12 12 13 13 14 14 15 15 15 16 16 16 17 18 17 18 18 18 18 19 20 20 20 20
27 26 27 27 28 27 27 25 26 28 27 27 27 26 22 21 19 18 17 17 16 14 13 12 12 11 12 12 13 13 13 13 13 13 14 14 15 15 15 16 16 17 17 18 18 17 18 19 20
25 26 25 29 28 27 26 26 29 28 27 27 27 26 21 19 18 17 16 16 16 14 13 12 10 10 11 12 12 12 12 13 12 12 12 12 12 13 14 15 16 16 16 17 17 18 18 18 17
25 25 27 28 28 27 26 27 27 28 27 26 27 26 22 19 18 16 16 15 14 13 12 11 10 9 10 12 12 12 12 12 12 12 12 11 11 12 13 14 14 14 15 16 16 16 16 16 16
26 26 27 28 28 27 26 26 28 28 28 27 26 24 21 19 17 15 15 14 13 13 12 12 11 10 10 10 11 13 12 11 11 11 11 10 10 10 10 11 11 11 12 12 13 13 14 15 16
27 27 27 29 29 26 25 26 26 27 28 25 24 23 21 19 17 16 14 13 13 12 12 11 11 10 10 11 10 11 11 12 10 10 10 9 9 8 8 7 8 8 9 9 9 10 10 12 13
26 25 25 27 28 28 26 25 26 27 28 25 24 21 20 18 18 16 14 13 12 11 11 11 10 10 9 9 10 11 11 12 11 10 9 9 8 7 7 6 6 6 7 7 7 8 8 9 10
25 25 25 26 27 26 24 24 25 26 27 23 22 22 19 18 17 16 14 11 11 10 9 9 9 9 7 7 8 9 11 11 10 10 9 9 8 7 6 5 5 5 5 6 6 6 6 7 8
23 26 26 25 24 23 26 22 26 24 23 21 20 19 18 17 16 15 13 11 11 10 9 9 9 8 7 6 6 7 7 8 7 7 7 8 7 6 5 4 4 4 4 5 5 5 5 6 7
24 25 24 24 23 23 23 23 24 26 22 21 20 19 18 17 15 13 11 11 10 9 9 9 9 8 7 6 5 5 5 5 5 4 5 4 4 4 3 3 3 3 3 3 4 4 4 5 5
25 22 22 22 22 19 22 22 23 25 25 22 21 20 18 14 13 12 11 11 10 9 8 8 8 7 6 5 5 4 4 4 4 4 3 2 2 2 1 1 1 2 2 2 2 3 3 4 5
23 20 19 19 19 19 24 23 24 25 25 24 21 19 17 14 12 12 12 11 10 9 7 7 7 6 5 4 3 3 3 3 3 2 2 1 1 1 0 0 0 1 1 1 2 2 3 3 3
21 21 20 19 20 22 25 22 23 24 23 23 21 19 15 13 12 12 11 11 10 8 6 6 6 5 4 3 3 2 2 2 1 1 1 1 0 0 -0 0 0 0 0 0 1 1 1 1 1
21 20 22 20 21 19 21 23 23 21 20 20 19 17 14 12 11 11 10 10 9 7 5 4 4 4 3 2 2 2 1 1 1 0 0 -0 -0 -0 -1 -0 -0 -0 0 0 0 0 -0 -0 -0
22 23 19 19 17 17 20 21 21 19 17 18 17 15 13 12 11 11 11 10 8 6 4 3 3 3 2 2 2 1 1 1 1 0 -0 -0 -1 -1 -1 -1 -1 -1 -1 -0 -0 -0 -1 -1 -1
20 20 20 20 19 18 18 19 21 19 19 18 17 16 13 11 11 11 11 10 8 6 4 3 3 2 2 2 1 1 1 1 1 -0 -0 -1 -1 -1 -0 -0 -1 -2 -2 -1 -1 -1 -1 -1 -1
22 21 20 17 17 17 17 18 21 19 20 19 19 18 14 12 12 12 11 10 8 6 5 3 3 3 2 2 2 2 2 2 2 1 1 0 0 -0 0 0 -1 -2 -2 -2 -2 -1 -1 -1 -1

GFSSGP_925_temp_135.txt.gz
Temp
26 27 25 24 22 22 24 28 30 28 30 30 30 29 28 27 27 24 27 27 26 26 25 25 25 25 25 25 25 25 25 25 25 25 25 25 24 24 23 23 22 22 22 22 22 21 21 21 21
26 27 26 23 23 23 24 29 28 29 31 31 30 29 28 27 28 28 27 26 27 25 25 25 25 25 25 25 25 25 25 25 25 24 24 24 24 24 23 23 22 22 22 21 21 21 21 21 21
26 25 22 22 22 23 26 29 29 31 32 32 28 28 29 27 29 28 28 27 26 25 25 25 25 24 24 24 24 24 24 24 24 24 24 24 24 23 23 22 22 22 21 21 21 21 21 21 21
25 23 22 23 24 26 28 29 30 30 31 28 28 27 28 29 28 28 27 26 25 25 24 24 24 24 24 24 24 24 24 24 24 24 24 23 23 23 23 22 22 21 21 20 20 21 21 21 21
27 22 23 23 25 30 28 29 30 30 31 29 28 26 26 28 29 28 27 26 25 24 24 24 24 24 24 24 24 24 24 24 24 24 24 23 23 23 23 23 22 22 21 21 20 20 20 20 21
23 22 22 23 27 29 28 29 30 30 31 29 27 26 26 29 29 27 27 26 25 24 24 24 24 24 24 24 24 24 24 23 23 23 23 23 23 23 23 23 22 22 22 21 20 20 20 20 20
23 22 22 24 27 29 29 29 29 28 28 28 28 25 26 27 29 27 27 26 26 24 22 21 21 21 22 23 24 24 23 23 23 22 22 22 22 22 22 22 22 22 22 21 21 20 20 20 20
24 23 24 24 27 27 29 29 29 28 28 30 29 25 24 27 28 27 26 24 23 22 22 21 21 21 21 21 22 23 23 23 23 22 22 22 22 22 21 21 21 21 21 21 21 21 20 20 20
27 22 21 25 26 27 30 27 29 29 28 28 26 25 26 27 27 24 23 22 19 19 19 20 21 21 21 20 21 20 22 23 23 23 23 22 22 22 22 22 22 22 22 22 21 21 21 20 20
23 21 25 27 26 27 28 27 27 28 29 27 25 26 26 25 24 21 19 19 16 16 17 17 18 19 19 19 19 19 19 19 20 22 23 23 22 22 22 22 21 22 22 22 21 21 21 20 19
24 22 25 26 26 25 27 28 28 27 27 25 24 24 22 22 20 19 18 17 15 15 17 16 15 16 16 16 16 16 17 18 19 19 20 21 21 21 20 20 21 21 21 21 21 20 20 20 20
26 25 27 25 26 26 25 26 26 26 25 25 24 24 22 20 19 18 17 16 15 15 14 14 13 14 14 14 15 15 15 16 16 17 19 20 21 20 20 20 20 20 20 20 20 20 20 20 21
25 27 26 27 25 25 26 25 26 25 24 24 25 21 20 19 17 17 17 16 15 14 13 12 12 13 13 13 13 14 14 14 15 16 16 17 17 18 18 18 18 18 19 19 19 19 19 19 19
26 26 24 26 26 26 25 25 25 25 24 24 22 19 18 17 16 17 16 16 14 13 12 12 11 12 12 13 12 13 13 13 13 13 14 15 15 16 17 17 17 17 17 18 18 18 18 19 18
24 24 23 23 25 25 24 23 23 24 24 24 20 19 17 16 16 15 16 15 13 12 12 11 11 11 12 12 12 12 12 12 12 12 12 12 13 13 16 16 15 15 16 17 17 17 18 18 18
24 23 20 23 24 24 23 21 23 22 23 23 18 18 16 15 15 15 15 14 13 12 11 10 10 11 11 12 12 12 12 11 11 11 11 11 12 13 13 13 13 14 15 15 15 14 15 15 15
21 19 21 22 24 22 22 22 22 23 24 23 18 16 16 14 14 14 14 13 12 12 11 10 10 10 11 11 12 12 11 11 11 10 10 10 10 11 11 11 10 12 13 13 12 13 12 13 14
19 20 20 20 23 22 21 22 23 23 23 23 18 17 15 14 13 14 13 13 12 11 11 10 10 9 10 10 11 11 11 11 11 10 9 9 9 9 9 9 9 10 10 10 10 10 11 11 10
22 22 22 23 24 22 22 21 23 23 22 19 18 17 15 14 13 14 13 12 11 11 10 9 9 9 9 9 9 10 11 11 10 9 9 8 8 7 7 6 6 7 7 7 7 7 7 9 9
22 22 22 23 25 23 21 21 22 23 23 20 18 16 14 14 13 13 11 11 10 10 9 9 8 8 7 7 8 8 9 9 8 8 8 7 7 6 6 5 5 5 5 6 6 6 6 7 7
22 22 22 23 23 23 22 21 22 23 22 19 18 17 16 14 13 12 10 10 10 9 9 9 8 7 6 6 7 8 9 8 7 6 6 5 4 4 4 4 4 4 4 4 4 5 5 6 7
21 24 24 23 22 20 23 18 21 22 22 19 17 15 14 14 12 11 10 10 9 9 9 9 8 6 6 5 5 5 5 5 4 4 4 4 3 3 3 2 3 3 3 3 3 4 4 5 6
22 24 23 23 20 20 21 18 20 21 19 17 15 15 14 13 10 9 9 10 9 9 8 8 7 6 5 4 4 4 4 4 3 3 2 2 2 1 1 1 1 1 2 2 2 2 3 4 4
24 21 21 20 18 14 19 19 19 20 22 18 17 16 13 11 10 9 10 9 9 8 8 8 6 5 4 3 3 3 3 3 2 2 1 1 1 1 1 0 1 1 1 1 1 2 2 3 3
22 18 13 14 14 15 20 19 21 21 22 19 17 15 12 10 9 9 8 9 7 7 7 7 5 4 3 3 2 2 2 2 1 1 1 0 0 -0 -0 0 0 0 1 1 1 1 1 1 1
20 19 15 16 14 17 21 17 20 20 20 19 18 13 12 10 9 9 9 9 6 6 5 5 4 3 3 3 2 2 1 1 1 1 0 -0 -0 -0 -0 -0 -0 -0 -0 0 0 0 0 -0 0
19 18 20 18 18 13 16 20 19 18 17 16 14 12 10 9 9 8 8 8 5 5 4 4 3 3 2 2 2 1 1 1 0 0 -0 -1 -1 -0 -0 -1 -1 -1 -1 -1 -0 -1 -1 -1 -1
20 20 17 15 16 16 17 18 15 15 15 15 13 10 9 9 8 8 8 7 5 4 3 3 3 2 2 2 2 1 1 1 0 -0 -0 -0 -0 -0 -0 -1 -2 -2 -1 -1 -1 -1 -1 -1 -1
19 18 18 17 16 15 15 13 18 15 16 15 13 11 9 8 8 8 8 6 5 4 3 3 2 2 2 1 2 2 1 1 1 0 0 0 0 0 -0 -2 -2 -2 -2 -2 -1 -1 -2 -2 -2
20 19 18 14 15 13 12 13 18 16 17 16 15 12 9 9 9 8 8 6 5 4 3 3 2 2 2 2 2 2 2 1 1 0 0 -0 -0 -1 -2 -3 -3 -3 -3 -2 -2 -2 -2 -3 -3

GFSSGP_925_temp_141.txt.gz
Temp
24 25 25 23 22 20 23 25 26 26 25 25 26 25 24 24 25 24 22 23 24 24 24 24 24 24 24 24 24 24 25 25 24 24 24 24 23 23 22 22 21 21 21 21 21 21 21 21 21
25 25 24 18 21 21 22 23 27 25 25 25 26 25 25 24 24 22 22 21 23 24 23 24 24 24 24 24 24 24 24 24 24 24 24 24 23 23 22 22 21 21 21 21 21 21 21 21 21
25 24 21 19 17 22 24 26 27 25 25 26 26 25 25 24 24 23 22 22 23 23 22 23 23 24 24 24 24 23 24 24 23 23 23 23 23 23 23 22 22 22 22 21 21 21 21 21 21
24 21 18 20 23 24 25 27 24 25 26 25 25 24 25 24 24 23 22 21 22 20 20 20 21 21 22 22 23 23 23 23 23 23 23 23 23 23 22 22 22 22 22 22 21 21 21 21 21
23 18 19 20 22 24 25 27 25 26 25 25 24 24 23 22 22 21 19 19 19 19 19 20 20 21 21 20 20 21 22 23 23 23 22 22 22 22 22 22 22 21 21 21 21 21 21 21 21
19 17 18 21 22 24 24 26 25 25 24 24 24 23 22 19 20 18 19 18 19 19 19 19 19 19 20 21 21 21 20 20 22 23 23 23 22 22 22 22 22 21 21 21 21 20 20 20 21
20 18 19 21 23 24 27 27 25 24 24 25 24 23 20 18 16 17 18 18 18 19 20 20 19 19 19 20 20 20 20 20 20 20 21 21 22 22 22 22 21 21 21 21 21 21 21 20 20
17 18 22 21 23 24 27 26 25 25 25 24 24 22 19 18 16 17 18 18 18 18 19 19 19 19 20 19 19 19 19 20 20 20 20 20 20 20 21 21 21 21 20 20 20 20 20 20 20
19 18 19 23 23 24 27 26 25 24 24 23 21 20 19 17 17 18 18 18 17 17 17 18 18 18 19 19 18 19 20 19 18 19 19 19 20 20 20 20 20 20 20 20 20 19 19 20 19
19 18 20 22 24 25 24 26 25 24 23 21 19 18 18 17 17 15 14 13 13 14 15 15 16 16 17 17 17 17 18 18 17 18 18 18 18 19 19 19 19 19 19 19 19 19 19 19 19
20 20 21 24 24 24 25 26 24 21 22 21 19 17 16 15 14 13 12 12 12 12 14 14 15 15 15 15 15 16 16 16 17 17 17 17 17 17 18 18 19 19 19 20 18 18 18 18 19
22 22 22 24 24 24 25 24 23 23 23 20 18 16 15 14 13 12 12 12 13 13 13 13 13 13 13 14 14 14 14 15 16 15 16 16 16 17 17 17 17 17 17 17 17 17 17 17 18
21 23 23 23 23 24 23 24 24 20 18 17 17 16 14 13 12 12 12 11 11 11 12 12 12 12 12 12 13 13 13 13 13 14 14 15 15 15 15 16 16 16 16 16 17 17 17 17 17
21 21 22 23 23 23 23 23 24 19 16 16 16 14 14 13 12 11 11 11 12 12 11 11 12 11 12 11 11 12 12 12 13 13 13 13 13 14 14 14 14 14 14 14 15 15 16 17 16
21 21 22 22 23 23 23 22 22 18 16 15 15 14 12 12 12 11 11 11 11 11 11 11 11 11 11 11 11 11 11 11 11 11 12 12 12 12 13 12 13 13 12 13 14 14 14 15 16
21 21 20 22 22 22 22 20 21 17 17 14 13 13 12 11 10 11 11 11 11 11 11 11 11 11 11 10 10 10 10 10 10 10 10 10 10 10 11 10 10 11 11 11 12 12 12 12 13
18 17 18 21 21 21 20 21 21 17 18 14 13 12 11 10 9 10 10 10 10 10 11 11 11 11 10 10 9 9 9 9 9 9 8 8 9 9 9 9 9 9 9 10 9 10 9 9 10
18 17 18 19 22 19 19 18 20 18 17 15 12 11 10 10 10 9 9 10 10 10 10 10 10 10 10 9 9 8 8 7 7 7 6 6 7 7 7 7 7 7 8 7 7 7 8 8 8
19 18 18 19 20 21 19 19 20 17 17 14 12 11 11 11 10 9 9 9 9 8 9 9 9 9 10 9 8 8 6 6 6 6 5 6 5 5 5 5 5 5 4 4 4 5 5 6 7
17 17 17 18 20 19 18 18 18 16 16 14 13 12 11 10 9 8 8 9 9 8 8 7 7 8 9 9 8 7 6 5 4 4 4 4 4 4 4 3 3 3 3 3 3 3 3 5 5
16 17 18 19 20 20 19 18 19 19 17 15 15 13 12 11 9 8 7 8 8 7 7 7 7 7 7 7 7 6 5 4 3 3 3 2 2 2 2 2 2 2 2 2 3 3 3 3 5
16 18 18 19 18 16 18 18 18 18 18 15 14 13 12 11 9 9 7 6 7 7 7 6 6 6 6 6 6 6 4 3 2 2 2 2 1 1 1 1 1 1 2 2 2 2 2 3 4
17 19 18 18 17 17 18 16 18 18 18 15 14 13 12 11 9 8 7 7 7 6 6 6 5 5 4 5 4 4 2 2 1 1 1 1 1 1 1 1 1 1 1 1 1 1 2 2 2
19 18 17 16 15 14 18 17 21 18 20 18 14 13 12 10 9 8 7 6 6 5 5 5 5 4 3 3 3 3 2 1 1 1 0 0 0 0 0 0 1 1 0 0 0 1 0 0 1
17 16 13 14 13 16 18 18 21 20 20 19 14 13 12 9 8 7 5 5 4 4 4 4 4 3 3 2 2 2 1 1 1 0 0 -0 -0 -1 -0 -0 -0 0 0 -0 -0 -0 -1 -1 -1
17 18 15 16 14 17 17 16 19 19 19 19 15 13 11 9 8 6 5 5 4 4 4 4 3 2 2 2 1 1 1 0 0 -0 -0 -0 -1 -1 -1 -1 -1 -1 -0 -1 -1 -1 -1 -2 -2
18 16 18 17 14 13 14 16 18 16 17 16 13 12 9 8 7 6 5 4 4 3 4 4 3 2 2 1 1 1 1 1 0 0 -0 -0 -1 -1 -1 -1 -1 -1 -1 -1 -2 -2 -2 -2 -4
18 19 17 14 13 14 17 15 16 15 15 13 12 10 9 8 7 6 5 4 3 4 4 3 3 2 2 1 1 1 1 0 0 -0 -1 -1 -1 -1 -1 -2 -2 -2 -2 -2 -2 -3 -4 -4 -5
17 17 17 17 17 16 16 16 13 15 13 12 12 10 8 7 7 6 5 3 3 3 3 3 2 2 2 2 1 1 0 -0 -0 -0 -1 -1 -1 -2 -2 -3 -2 -2 -3 -3 -3 -4 -4 -5 -5
17 17 18 15 16 14 17 17 17 15 14 13 11 10 7 7 6 5 4 3 2 2 2 2 2 2 2 2 1 1 0 -0 -1 -1 -2 -2 -2 -3 -3 -3 -3 -3 -4 -4 -4 -5 -6 -6 -6